[[{"header":{"parameterUnit":"m.s-1","parameterCategory":1,"la1":30.6,"la2":29.2853,"lo1":-89.7004,"lo2":-87.6739,"dy":0.0162,"dx":0.0183,"nx":112,"ny":82,"refTime":"2024-05-09T12:00:00:Z","depth":0,"parameterNumber":2,"parameterNumberName":"U-component_of_WINDS"},"data":[0.0,0.0,0.0,0.0,0.0,0.0,0.0,0.0,0.0,0.0,0.0,0.0,0.0,0.0,0.0,0.0,0.0,0.0,0.0,0.0,0.0,0.0,0.0,0.0,0.0,0.0,0.0,0.0,0.0,0.0,0.0,0.0,0.0,0.0,0.0,0.0,0.0,0.0,0.0,0.0,0.0,0.0,0.0,0.0,0.0,0.0,0.0,0.0,0.0,0.0,0.0,0.0,0.0,0.0,0.0,0.0,0.0,0.0,0.0,0.0,0.0,0.0,0.0,0.0,0.0,0.0,0.0,0.0,0.0,0.0,0.0,0.0,0.0,0.0,0.0,0.0,0.0,0.0,0.0,0.0,0.0,0.0,0.0,0.0,0.0,0.0,0.0,0.0,0.0,0.0,2.43,2.7622,3.0453,3.2136,3.2205,3.0427,2.7478,2.3201,0.0,0.0,0.0,0.0,0.0,0.0,0.0,0.0,0.0,0.0,0.0,0.0,0.0,0.0,0.0,0.0,0.0,0.0,0.0,0.0,0.0,0.0,0.0,0.0,0.0,0.0,0.0,0.0,0.0,0.0,0.0,0.0,0.0,0.0,0.0,0.0,0.0,0.0,0.0,0.0,0.0,0.0,0.0,0.0,0.0,0.0,0.0,0.0,0.0,0.0,0.0,0.0,0.0,0.0,0.0,0.0,0.0,0.0,0.0,0.0,0.0,0.0,0.0,0.0,0.0,0.0,0.0,0.0,0.0,0.0,0.0,0.0,0.0,0.0,0.0,0.0,0.0,0.0,0.0,0.0,0.0,0.0,0.0,0.0,0.0,0.0,0.0,0.0,0.0,0.0,0.0,0.0,0.0,0.0,0.0,0.0,0.0,0.0,0.0,0.0,0.0,0.0,0.0,0.0,2.5488,3.1758,3.2235,3.24,3.3133,3.03,2.6905,2.3232,0.0,0.0,0.0,0.0,0.0,0.0,0.0,0.0,0.0,0.0,0.0,0.0,0.0,0.0,0.0,0.0,0.0,0.0,0.0,0.0,0.0,0.0,0.0,0.0,0.0,0.0,0.0,0.0,0.0,0.0,0.0,0.0,0.0,0.0,0.0,0.0,0.0,0.0,0.0,0.0,0.0,0.0,0.0,0.0,0.0,0.0,0.0,0.0,0.0,0.0,0.0,0.0,0.0,0.0,0.0,0.0,0.0,0.0,0.0,0.0,0.0,0.0,0.0,0.0,0.0,0.0,0.0,0.0,0.0,0.0,0.0,0.0,0.0,0.0,0.0,0.0,0.0,0.0,0.0,0.0,0.0,0.0,0.0,0.0,0.0,0.0,0.0,0.0,0.0,0.0,0.0,0.0,0.0,0.0,0.0,0.0,0.0,0.0,0.0,0.0,0.0,0.0,0.0,2.4347,2.7669,3.2214,3.2751,3.2773,3.2695,3.0,2.6797,2.3287,1.9712,0.0,0.0,0.0,0.0,0.0,0.0,0.0,0.0,0.0,0.0,0.0,0.0,0.0,0.0,0.0,0.0,0.0,0.0,0.0,0.0,0.0,0.0,0.0,0.0,0.0,0.0,0.0,0.0,0.0,0.0,0.0,0.0,0.0,0.0,0.0,0.0,0.0,0.0,0.0,0.0,0.0,0.0,0.0,0.0,0.0,0.0,0.0,0.0,0.0,0.0,0.0,0.0,0.0,0.0,0.0,0.0,0.0,0.0,0.0,0.0,0.0,0.0,0.0,0.0,0.0,0.0,0.0,0.0,0.0,0.0,0.0,0.0,0.0,0.0,0.0,0.0,0.0,0.0,0.0,0.0,0.0,0.0,0.0,0.0,0.0,0.0,0.0,0.0,0.0,0.0,0.0,0.0,0.0,0.0,0.0,0.0,0.0,0.0,0.0,0.0,0.0,0.0,2.7468,3.0005,3.2143,3.2993,3.3127,3.243,2.95,2.6281,2.3008,1.8338,0.0,0.0,0.0,0.0,0.0,0.0,0.0,0.0,0.0,0.0,0.0,0.0,0.0,0.0,0.0,0.0,0.0,0.0,0.0,0.0,0.0,0.0,0.0,0.0,0.0,0.0,0.0,0.0,0.0,0.0,0.0,0.0,0.0,0.0,0.0,0.0,0.0,0.0,0.0,0.0,0.0,0.0,0.0,0.0,0.0,0.0,0.0,0.0,0.0,0.0,0.0,0.0,0.0,0.0,0.0,0.0,0.0,0.0,0.0,0.0,0.0,0.0,0.0,0.0,0.0,0.0,0.0,0.0,0.0,0.0,0.0,0.0,0.0,0.0,0.0,0.0,0.0,0.0,0.0,0.0,0.0,0.0,0.0,0.0,0.0,0.0,0.0,0.0,0.0,0.0,0.0,0.0,0.0,0.0,0.0,0.0,0.0,0.0,0.0,0.0,0.0,0.0,2.8191,3.213,3.3115,3.3332,3.3344,3.3239,2.8715,2.4745,2.2068,1.6343,0.0,0.0,0.0,0.0,0.0,0.0,0.0,0.0,0.0,0.0,0.0,0.0,0.0,0.0,0.0,0.0,0.0,0.0,0.0,0.0,0.0,0.0,0.0,0.0,0.0,0.0,0.0,0.0,0.0,0.0,0.0,0.0,0.0,0.0,0.0,0.0,0.0,0.0,0.0,0.0,0.0,0.0,0.0,0.0,0.0,0.0,0.0,0.0,0.0,0.0,0.0,0.0,0.0,0.0,0.0,0.0,0.0,0.0,0.0,0.0,0.0,0.0,0.0,0.0,0.0,0.0,0.0,0.0,0.0,0.0,0.0,0.0,0.0,0.0,0.0,0.0,0.0,0.0,0.0,0.0,0.0,0.0,0.0,0.0,0.0,0.0,0.0,0.0,0.0,0.0,0.0,0.0,0.0,0.0,0.0,0.0,0.0,0.0,0.0,0.0,0.0,0.0,2.6392,2.9518,0.0,3.2226,3.2132,3.1023,2.8177,2.4898,2.1221,0.0,0.0,0.0,0.0,0.0,0.0,0.0,0.0,0.0,0.0,0.0,0.0,0.0,0.0,0.0,0.0,0.0,0.0,0.0,0.0,0.0,0.0,0.0,0.0,0.0,0.0,0.0,0.0,0.0,0.0,0.0,0.0,0.0,0.0,0.0,0.0,0.0,0.0,0.0,0.0,0.0,0.0,0.0,0.0,0.0,0.0,0.0,0.0,0.0,0.0,0.0,0.0,0.0,0.0,0.0,0.0,0.0,0.0,0.0,0.0,0.0,0.0,0.0,0.0,0.0,0.0,0.0,0.0,0.0,0.0,0.0,0.0,0.0,0.0,0.0,0.0,0.0,0.0,0.0,0.0,0.0,0.0,0.0,0.0,0.0,0.0,0.0,0.0,0.0,0.0,0.0,0.0,0.0,0.0,0.0,0.0,0.0,0.0,0.0,0.0,0.0,0.0,2.2505,2.5945,2.8783,0.0,3.1952,3.1909,3.0422,2.7727,2.4491,2.0745,0.0,0.0,0.0,0.0,0.0,0.0,0.0,0.0,0.0,0.0,0.0,0.0,0.0,0.0,0.0,0.0,0.0,0.0,0.0,0.0,0.0,0.0,0.0,0.0,0.0,0.0,0.0,0.0,0.0,0.0,0.0,0.0,0.0,0.0,0.0,0.0,0.0,0.0,0.0,0.0,0.0,0.0,0.0,0.0,0.0,0.0,0.0,0.0,0.0,0.0,0.0,0.0,0.0,0.0,0.0,0.0,0.0,0.0,0.0,0.0,0.0,0.0,0.0,0.0,0.0,0.0,0.0,0.0,0.0,0.0,0.0,0.0,0.0,0.0,0.0,0.0,0.0,0.0,0.0,0.0,0.0,0.0,0.0,0.0,0.0,0.0,0.0,0.0,0.0,0.0,0.0,0.0,0.0,0.0,0.0,0.0,0.0,0.0,0.0,0.0,0.0,0.0,2.2656,2.7369,3.0864,3.1887,3.283,3.2999,3.2039,2.7326,2.3303,0.0,0.0,0.0,0.0,0.0,0.0,0.0,0.0,0.0,0.0,0.0,0.0,0.0,0.0,0.0,0.0,0.0,0.0,0.0,0.0,0.0,0.0,0.0,0.0,0.0,0.0,0.0,0.0,0.0,0.0,0.0,0.0,0.0,0.0,0.0,0.0,0.0,0.0,0.0,0.0,0.0,0.0,0.0,0.0,0.0,0.0,0.0,0.0,0.0,0.0,0.0,0.0,0.0,0.0,0.0,0.0,0.0,0.0,0.0,0.0,0.0,0.0,0.0,0.0,0.0,0.0,0.0,0.0,0.0,0.0,0.0,0.0,0.0,0.0,0.0,0.0,0.0,0.0,0.0,0.0,0.0,0.0,0.0,0.0,0.0,0.0,0.0,0.0,0.0,0.0,0.0,0.0,0.0,0.0,0.0,0.0,0.0,0.0,0.0,0.0,0.0,0.0,0.0,2.2443,2.6331,2.9337,3.0911,3.132,3.0905,2.9444,2.7376,2.4046,1.9058,0.0,0.0,0.0,0.0,0.0,0.0,0.0,0.0,0.0,0.0,0.0,0.0,0.0,0.0,0.0,0.0,0.0,0.0,0.0,0.0,0.0,0.0,0.0,0.0,0.0,0.0,0.0,0.0,0.0,0.0,0.0,0.0,0.0,0.0,0.0,0.0,0.0,0.0,0.0,0.0,0.0,0.0,0.0,0.0,0.0,0.0,0.0,0.0,0.0,0.0,0.0,0.0,0.0,0.0,0.0,0.0,0.0,0.0,0.0,0.0,0.0,0.0,0.0,0.0,0.0,0.0,0.0,0.0,0.0,0.0,0.0,0.0,0.0,0.0,0.0,0.0,0.0,0.0,0.0,0.0,0.0,0.0,0.0,0.0,0.0,0.0,0.0,0.0,0.0,0.0,0.0,0.0,0.0,0.0,0.0,0.0,0.0,0.0,0.0,0.0,0.0,0.0,2.2384,2.5894,2.8686,3.051,3.0419,2.9802,2.8773,2.6969,2.3926,1.9296,0.0,0.0,0.0,0.0,0.0,0.0,0.0,0.0,0.0,0.0,0.0,0.0,0.0,0.0,0.0,0.0,0.0,0.0,0.0,0.0,0.0,0.0,0.0,0.0,0.0,0.0,0.0,0.0,0.0,0.0,0.0,0.0,0.0,0.0,0.0,0.0,0.0,0.0,0.0,0.0,0.0,0.0,0.0,0.0,0.0,0.0,0.0,0.0,0.0,0.0,0.0,0.0,0.0,0.0,0.0,0.0,0.0,0.0,0.0,0.0,0.0,0.0,0.0,0.0,0.0,0.0,0.0,0.0,0.0,0.0,0.0,0.0,0.0,0.0,0.0,0.0,0.0,0.0,0.0,0.0,0.0,0.0,0.0,0.0,0.0,0.0,0.0,0.0,0.0,0.0,0.0,0.0,0.0,0.0,0.0,0.0,0.0,0.0,0.0,0.0,0.0,0.0,2.2414,2.5909,2.8686,3.0502,2.9964,2.9438,2.9308,2.6424,2.3447,2.0685,0.0,0.0,0.0,0.0,0.0,0.0,0.0,0.0,0.0,0.0,0.0,0.0,0.0,0.0,0.0,0.0,0.0,0.0,0.0,0.0,0.0,0.0,0.0,0.0,0.0,0.0,0.0,0.0,0.0,0.0,0.0,0.0,0.0,0.0,0.0,0.0,0.0,0.0,0.0,0.0,0.0,0.0,0.0,0.0,0.0,0.0,0.0,0.0,0.0,0.0,0.0,0.0,0.0,0.0,0.0,0.0,0.0,0.0,0.0,0.0,0.2948,0.0,0.0,0.0,0.0,0.0,0.0,0.0,0.0,0.0,0.0,0.0,0.0,0.0,0.0,0.0,0.0,0.0,0.0,0.0,0.0,0.0,0.0,0.0,0.0,0.0,0.0,0.0,0.0,0.0,0.0,0.0,0.0,0.0,0.0,0.0,0.0,0.0,0.0,0.0,0.0,0.0,2.2284,2.587,2.8676,3.0432,2.9889,2.9154,2.8518,2.7172,2.4713,2.0812,1.8437,0.0,0.0,0.0,0.0,0.0,0.0,0.0,0.0,0.0,0.0,0.0,0.0,0.0,0.0,0.0,0.0,0.0,0.0,0.0,0.0,0.0,0.0,0.0,0.0,0.0,0.0,0.0,0.0,0.0,0.0,0.0,0.0,0.0,0.0,0.0,0.0,0.0,0.0,0.0,0.0,0.0,0.0,0.0,0.0,0.0,0.0,0.0,0.0,0.0,0.0,0.0,0.0,0.0,0.0,0.0,0.0,0.0,0.0,0.0,0.0,0.3162,0.0,0.0,0.0,0.0,0.0,0.0,0.0,0.0,0.0,0.0,0.0,0.0,0.0,0.0,0.0,0.0,0.0,0.0,0.0,0.0,0.0,0.0,0.0,0.0,0.0,0.0,0.0,0.0,0.0,0.0,0.0,0.0,0.0,0.0,0.0,0.0,0.0,0.0,0.0,0.0,2.2233,2.5474,2.7909,2.926,2.8709,2.8057,2.7608,2.6425,2.4571,2.1973,1.9764,0.0,0.0,0.0,0.0,0.0,0.0,0.0,0.0,0.0,0.0,0.0,0.0,0.0,0.0,0.0,0.0,0.0,0.0,0.0,0.0,0.0,0.0,0.0,0.0,0.0,0.0,0.0,0.0,0.0,0.0,0.0,0.0,0.0,0.0,0.0,0.0,0.0,0.0,0.0,0.0,0.0,0.0,0.0,0.0,0.0,0.0,0.0,0.0,0.0,0.0,0.0,0.0,0.0,0.0,-0.0161,0.0508,0.1177,0.1762,0.2315,0.2233,0.3043,0.4282,0.0,0.0,0.0,0.0,0.0,0.0,0.0,0.0,0.0,0.0,0.0,0.0,0.0,0.0,0.0,0.0,0.0,0.0,0.0,0.0,0.0,0.0,0.0,0.0,0.0,1.8254,1.8387,0.0,0.0,0.0,0.0,0.0,0.0,0.0,0.0,0.0,0.0,0.0,0.0,2.2455,2.517,2.7062,2.7989,2.7409,2.6968,2.6898,2.5499,2.4256,2.3376,2.1015,1.8963,0.0,0.0,0.0,0.0,0.0,0.0,0.0,0.0,0.0,0.0,0.0,0.0,0.0,0.0,0.0,0.0,0.0,0.0,0.0,0.0,0.0,0.0,0.0,0.0,0.0,0.0,0.0,0.0,0.0,0.0,0.0,0.0,-0.5646,-0.6341,0.0,0.0,0.0,0.0,0.0,0.0,0.0,0.0,0.0,0.0,0.0,0.0,0.0,0.0,-0.1441,-0.0523,-0.0526,-0.1557,-0.0148,0.052,0.0539,0.2179,0.3012,0.3159,0.3004,0.0,0.2672,0.1625,0.0,0.0,0.0,0.0,0.0,0.0,0.0,0.0,0.0,0.0,0.0,0.0,0.0,0.0,0.0,0.0,0.0,0.0,0.0,0.0,0.0,0.0,1.8936,1.9161,1.9873,2.0594,0.0,1.8661,1.6311,1.6282,0.0,0.0,0.0,0.0,0.0,0.0,0.0,0.0,2.3375,2.5476,2.7036,2.7918,2.7346,2.6913,2.6894,2.6052,2.5164,2.4277,2.248,2.1013,2.0046,1.7039,0.0,0.0,0.0,0.0,0.0,0.0,0.0,0.0,0.0,0.0,0.0,0.0,0.0,0.0,0.0,0.0,0.0,0.0,0.0,0.0,0.0,0.0,0.0,0.0,0.0,0.0,0.0,0.0,0.0,-0.7446,-0.7286,-0.6388,-0.562,-0.4792,0.0,0.0,0.0,0.0,0.0,0.0,0.0,0.0,0.0,-0.4771,-0.4055,-0.3633,-0.3561,-0.2728,-0.2706,-0.3387,-0.1972,-0.1142,-0.0827,0.0181,0.0997,0.1563,0.1824,0.2167,0.2491,0.1958,0.1566,0.1267,0.0,0.0,0.0,0.0,0.0,0.0,0.4879,0.0,0.0,0.0,0.0,0.0,0.0,0.0,0.0,0.0,0.0,0.0,0.0,0.0,0.0,2.0103,2.0433,2.0764,2.1725,2.0873,1.9691,0.0,1.9839,1.957,1.5625,0.0,0.0,0.0,0.0,0.0,2.3621,2.5505,2.6627,2.6541,2.6715,2.6665,2.6199,2.5859,2.55,2.5155,2.3943,2.2863,2.2005,1.9612,1.7426,0.0,0.0,0.0,0.0,0.0,0.0,0.0,0.0,0.0,0.0,0.0,0.0,0.0,0.0,0.0,0.0,0.0,0.0,0.0,0.0,0.0,0.0,0.0,0.0,0.0,0.0,0.0,0.0,-0.8402,-0.9266,-0.671,-0.7914,-0.8275,0.0,0.0,0.0,0.0,0.0,0.0,-1.0031,-0.9218,-0.8348,-0.744,-0.6891,-0.6444,-0.6178,-0.5592,-0.5374,-0.551,-0.4235,-0.3271,-0.2632,-0.22,-0.1404,-0.0207,0.0348,0.1254,0.22,0.2083,0.2023,0.1954,0.1572,0.1545,0.0,0.3142,0.3661,0.4066,0.6021,0.7602,0.8739,0.8732,0.0,1.0053,1.0161,0.0,0.0,0.0,0.0,1.6393,1.6921,0.0,1.8785,2.0157,2.0304,2.0444,2.1446,2.213,2.2111,0.0,2.247,2.2579,1.7568,0.0,0.0,0.0,0.0,2.2842,2.4276,2.5906,2.6611,2.5768,2.6357,2.6462,2.5678,2.539,2.5301,2.5361,2.4336,2.3431,2.2786,2.1366,1.9575,1.7385,0.0,0.0,0.0,0.0,0.0,0.0,0.0,0.0,0.0,0.0,0.0,0.0,0.0,0.0,0.0,0.0,0.0,0.0,0.0,0.0,0.0,0.0,0.0,0.0,0.0,0.0,0.0,0.0,0.0,-0.8406,-1.1041,0.0,0.0,0.0,0.0,-1.0881,-1.0715,-1.0998,-1.1995,-1.074,-1.007,-1.0173,-0.8898,-0.8436,-0.887,-0.845,-0.798,-0.7532,-0.6117,-0.5164,-0.4623,-0.4225,-0.3135,-0.1467,-0.0756,0.0206,0.1206,0.1427,0.1508,0.1516,0.1253,0.1719,0.2668,0.2871,0.3653,0.4768,0.5557,0.6768,0.7979,0.8332,0.9407,1.0726,1.1527,1.2458,0.0,0.0,1.5208,1.6515,1.6679,1.7736,1.883,1.9153,1.9489,2.0031,2.1067,2.1686,2.1921,0.0,2.2767,2.3371,2.1908,0.0,2.3293,2.2793,2.4396,2.5747,2.5959,2.7063,2.7489,2.6545,2.6668,2.6469,2.5664,2.4837,2.4384,2.4453,2.288,2.1914,2.1874,2.1043,2.0113,1.9091,1.7368,0.0,0.0,0.0,0.0,0.0,0.0,0.0,0.0,0.0,0.0,0.0,0.0,0.0,0.0,0.0,0.0,0.0,0.0,0.0,0.0,0.0,0.0,0.0,0.0,0.0,0.0,0.0,0.0,-1.1725,-1.4047,0.0,-1.2924,-1.2814,-1.3183,-1.3909,-1.3922,-1.4168,-1.48,-1.4499,-1.419,-1.4,-1.3412,-1.2874,-1.2508,-1.1873,-1.1256,-1.0625,-0.9604,-0.8513,-0.7404,-0.6621,-0.5456,-0.398,-0.297,-0.241,-0.2039,-0.0685,0.0653,0.1721,0.1323,0.1511,0.2079,0.2896,0.3518,0.4016,0.5276,0.6141,0.6952,0.8743,0.9861,1.0714,1.1643,1.2459,1.314,1.3343,1.4566,1.5954,1.6269,1.702,1.795,1.8958,1.9346,1.9813,2.0836,2.2076,2.2748,2.2,2.3577,2.4464,2.2746,2.4304,2.5278,2.3871,2.5337,2.6439,2.5963,2.7489,2.7842,2.5808,2.6776,2.6997,2.5594,2.4741,2.4073,2.3536,2.2435,2.1305,2.0174,1.9843,1.9016,1.7559,1.691,1.5598,0.0,0.0,0.0,0.0,0.0,0.0,0.0,0.0,0.0,0.0,0.0,0.0,0.0,0.0,0.0,0.0,0.0,0.0,0.0,0.0,0.0,0.0,0.0,0.0,0.0,0.0,-1.5039,-1.4182,-1.6687,-1.778,-1.5858,-1.5918,-1.6285,-1.6759,-1.6779,-1.6966,-1.7418,-1.7462,-1.7403,-1.725,-1.6988,-1.6559,-1.5933,-1.5235,-1.4468,-1.36,-1.2794,-1.1705,-1.0341,-0.9265,-0.8096,-0.6684,-0.5501,-0.4789,-0.4237,-0.2795,-0.1361,-0.0,0.0743,0.1211,0.1679,0.272,0.328,0.3664,0.5106,0.6046,0.6808,0.8676,0.9697,1.0425,1.1267,1.217,1.2957,1.3037,1.4204,1.5563,1.5857,1.6504,1.7337,1.8505,1.8919,1.9371,2.0525,2.1787,2.2656,2.2493,2.3883,2.4574,2.2978,2.4778,2.595,2.4505,2.6298,2.7494,2.6707,2.7998,2.8186,2.6166,2.6879,2.6968,2.5553,2.4458,2.3728,2.349,2.2163,2.0993,2.01,1.952,1.8827,1.7937,1.7626,1.6767,1.5303,0.0,0.0,0.0,0.0,0.0,0.0,0.0,0.0,0.0,0.0,0.0,0.0,0.0,0.0,0.0,0.0,0.0,0.0,0.0,0.0,0.0,0.0,0.0,-1.2398,-1.5105,-1.6794,-1.5701,-1.8951,-2.0194,-1.739,-1.8023,-1.8749,-1.9124,-1.9022,-1.9152,-1.9655,-1.9441,-1.9389,-1.9711,-1.9333,-1.9071,-1.8955,-1.8347,-1.75,-1.63,-1.5494,-1.4458,-1.3236,-1.217,-1.088,-0.94,-0.8215,-0.6824,-0.5353,-0.4795,-0.4332,-0.3656,-0.0564,0.0881,0.1408,0.2148,0.2889,0.376,0.5011,0.6318,0.7517,0.8011,0.8854,0.9831,1.0571,1.1688,1.2749,1.3053,1.4168,1.5302,1.5426,1.6161,1.7082,1.7798,1.8169,1.8772,2.0167,2.0854,2.1594,2.311,2.367,2.3649,2.2956,2.4313,2.5382,2.5031,2.7445,0.0,2.8275,2.8604,2.8548,2.7655,2.7014,2.6333,2.5604,2.3967,2.3387,2.4331,2.2018,2.0957,2.1728,2.0133,1.9623,2.0488,1.971,1.8873,1.8024,0.0,0.0,0.0,0.0,0.0,0.0,0.0,0.0,0.0,0.0,0.0,0.0,0.0,0.0,0.0,0.0,0.0,0.0,0.0,0.0,0.0,-1.2719,-1.4874,-1.4983,-1.7679,-1.9618,-1.96,-2.0649,-2.0977,-1.9935,-1.9603,-1.9577,-1.9821,-1.9708,-1.9522,-1.9339,-2.0302,-2.0631,-2.0133,-2.0803,-2.0965,-2.0597,-1.9902,-1.9206,-1.8519,-1.7643,-1.6634,-1.5428,-1.4273,-1.3,-1.1589,-1.0295,-0.9,-0.7727,-0.6608,-0.5722,-0.485,-0.2385,-0.118,-0.0688,0.023,0.1478,0.2839,0.3498,0.4896,0.6375,0.6489,0.7305,0.8447,0.9445,1.0065,1.056,1.1361,1.2435,1.3406,1.3837,1.4805,1.5866,1.6873,1.7705,1.8646,2.0057,2.1062,2.2003,2.2975,2.3459,2.4068,2.526,2.5647,2.6109,2.7085,0.0,0.0,2.8003,2.8437,2.8203,2.6738,2.7148,2.7229,2.6447,2.5447,2.4705,2.4354,2.1934,2.0625,2.0848,1.8776,1.8533,2.0456,2.0881,2.0967,0.0,0.0,0.0,0.0,0.0,0.0,0.0,0.0,0.0,0.0,0.0,0.0,0.0,0.0,0.0,0.0,0.0,0.0,0.0,0.0,0.0,0.0,-1.5239,-1.7378,-1.7538,-1.9629,-2.1281,-2.1713,-2.1647,-2.1411,-2.0975,-2.0548,-2.0224,-2.0181,-2.0692,-2.0614,-1.9826,-2.1432,-2.1961,-2.1098,-2.1922,-2.2156,-2.1732,-2.1237,-2.0683,-2.008,-1.9242,-1.8328,-1.7258,-1.6172,-1.4801,0.0,-1.1986,-1.0594,-0.9051,-0.7979,-0.6948,0.0,0.0,0.0,0.0,0.0,0.0943,0.2532,0.2672,0.4048,0.5657,0.5693,0.645,0.7492,0.8264,0.9057,0.9858,1.0479,1.1556,1.2601,1.3042,1.3968,1.5021,1.6384,1.7124,1.797,1.9571,2.0629,2.1573,2.2699,0.0,0.0,2.579,2.5916,2.6074,2.6816,2.7579,2.804,0.0,2.8314,2.8256,2.7314,2.7599,2.7691,2.7273,2.6539,0.0,0.0,0.0,2.2342,2.1615,2.0275,0.0,0.0,0.0,2.361,0.0,0.0,0.0,0.0,2.2585,2.2507,0.0,0.0,0.0,0.0,0.0,0.0,0.0,0.0,0.0,0.0,0.0,0.0,0.0,0.0,0.0,0.0,-1.8138,-2.0029,-1.9714,-2.0863,-2.185,-2.2176,-2.1838,-2.1351,-2.0942,-2.0766,-2.0681,-2.0574,-2.1703,-2.2002,-2.0978,0.0,0.0,0.0,0.0,-2.2653,-2.2412,-2.2128,-2.1684,-2.1042,-2.0396,-1.967,-1.8821,-1.7852,-1.639,-1.4593,-1.3471,-1.1817,-0.9843,-0.9123,-0.7917,-0.6327,-0.3897,-0.263,-0.213,-0.0875,0.0781,0.0,0.0,0.0,0.0,0.5137,0.5876,0.6778,0.7145,0.8395,0.9762,1.0058,1.1149,1.2359,1.2658,1.3398,1.4478,1.5979,1.6469,1.705,1.8923,1.9858,2.0751,2.2352,2.355,2.4511,2.5214,2.5526,2.562,2.5555,2.7207,0.0,2.8098,2.8316,2.8523,2.8616,0.0,0.0,2.8144,2.7505,2.7459,2.8288,2.686,2.5209,2.347,2.3589,2.3719,2.379,2.5336,2.6509,2.7284,2.8096,2.8493,2.8418,2.5854,2.5866,0.0,0.0,0.0,0.0,0.0,0.0,0.0,0.0,0.0,0.0,0.0,0.0,0.0,0.0,0.0,-1.5633,-1.7746,-1.9451,-2.0011,-2.0445,-2.0653,-2.056,-2.0154,-1.9943,-2.0157,-1.9798,-2.0289,-2.2113,-2.2041,-2.2224,-2.2902,-2.2899,0.0,-2.1465,-2.1943,-2.2033,-2.1709,-2.1885,-2.1841,-2.1458,0.0,0.0,-1.9722,-1.8821,-1.7557,-1.6009,-1.4954,-1.3442,-1.1631,-1.0663,-0.8775,-0.6234,-0.4366,-0.3198,-0.2475,-0.1374,-0.0245,0.0744,0.1309,0.24,0.3595,0.3656,0.4574,0.5757,0.6291,0.7033,0.0,0.9307,1.0268,1.1024,1.167,1.2605,1.37,1.5059,1.5848,1.6762,1.8584,1.966,2.0624,2.21,2.3039,2.3864,2.4759,2.5154,2.5775,2.6988,2.7353,2.784,2.8892,2.8671,2.852,2.8812,2.8849,2.8912,2.9049,2.8962,2.8973,2.9156,2.8301,2.7011,2.527,2.6544,2.7505,2.7928,2.8478,2.8848,2.9015,2.9883,3.0272,3.0166,2.8304,2.7659,0.0,0.0,0.0,0.0,0.0,0.0,0.0,0.0,0.0,0.0,0.0,-1.4016,-1.5403,0.0,-1.6444,-1.8093,-1.9087,-1.9595,-1.9471,-1.9741,-2.001,-2.0125,-1.9936,-1.9848,-1.9951,-1.9956,-2.0452,-2.1692,-2.2092,-2.2346,-2.2602,-2.3071,-2.2765,-2.145,-2.1921,-2.2104,-2.1975,-2.1912,-2.203,-2.2249,-2.1589,-2.1104,-2.0646,-1.9812,-1.873,-1.7444,-1.6479,-1.512,-1.3408,-1.1399,-0.9343,-0.7247,-0.5293,-0.3788,-0.2651,-0.2285,-0.1352,-0.0186,-0.0,0.1138,0.2404,0.264,0.3537,0.4587,0.5098,0.588,0.6798,0.7876,0.932,1.0661,1.1087,1.2205,1.345,1.4401,1.5276,1.6223,1.7727,1.8867,1.9997,2.1301,2.2438,2.3478,2.4297,2.5024,2.5764,2.6588,2.726,2.785,2.8338,2.8742,2.9075,2.927,2.9538,2.9748,2.9893,2.999,3.0063,3.0102,2.9357,2.8527,2.7695,2.8073,2.8628,2.9285,2.9455,2.976,3.0141,3.0579,3.0778,3.0735,2.9898,2.9471,0.0,0.0,0.0,0.0,0.0,0.0,0.0,-1.3511,-1.4095,-1.5314,-1.5864,-1.6768,-1.8885,-1.8386,-1.8298,-2.0298,-2.047,-1.9991,-1.8932,-1.922,-1.9556,-1.9572,-1.9621,-1.9741,-1.9996,-2.021,-2.0557,-2.1068,-2.2102,-2.253,-2.2102,-2.3225,-2.3228,-2.1819,-2.2188,-2.2401,-2.2359,-2.2032,-2.2207,-2.2889,-2.2136,-2.173,-2.1568,-2.0795,-1.9824,-1.8722,-1.7608,-1.6284,-1.4748,-1.214,-1.0307,-0.8978,-0.6999,-0.5123,-0.3599,-0.3318,-0.228,-0.0998,-0.1184,-0.0201,0.1273,0.1733,0.2577,0.3423,0.4014,0.4915,0.5805,0.6448,0.8161,1.0028,1.0696,1.1873,1.3122,1.3965,1.4831,1.5745,1.6948,1.8119,1.9309,2.0555,2.188,2.3069,2.3906,2.4871,2.5622,2.5956,2.7198,2.8022,2.7785,2.8783,2.957,2.9713,3.0052,3.0328,3.05,3.0621,3.071,3.0786,3.0134,2.978,2.9827,2.9156,2.9096,2.9746,2.9979,3.0325,3.079,3.0977,3.0967,3.0794,3.0793,3.0767,-0.7304,-0.9918,-1.2304,-1.334,-1.3583,-1.4829,0.0,-1.9347,-1.8881,-2.1378,-2.1147,-2.0598,-2.0967,-2.0224,-1.9684,-1.996,-2.0322,-2.0202,-1.92,-1.947,-1.9137,-1.7473,-1.7528,-1.8433,-2.0262,-1.956,-1.9812,-2.1738,-2.2386,-2.2901,-2.3351,-2.3374,-2.3182,-2.2752,-2.2581,-2.2401,-2.2217,-2.226,-2.2439,-2.2889,-2.2088,-2.1894,-2.2263,-2.1554,-2.0686,-1.9612,-1.7653,-1.6188,-1.5133,-1.3705,-1.2537,-1.1517,-0.9967,-0.8408,-0.674,-0.4261,-0.2875,-0.2183,-0.2052,-0.1206,-0.0,0.0911,0.1734,0.2558,0.3466,0.4351,0.5135,0.5698,0.6605,0.8032,1.0408,1.1406,1.2128,1.3708,1.4709,1.5563,1.6912,1.8024,1.9169,2.0534,2.1527,2.248,2.3638,2.4415,2.5336,2.6588,2.7326,2.7974,2.8567,2.8942,2.9338,2.9836,3.0011,3.0254,3.0568,3.061,3.0678,3.0779,3.0703,3.0667,3.0678,3.0566,3.0563,3.065,3.1413,3.1474,3.0792,3.1574,3.1554,3.0802,3.0802,3.0764,-1.1922,-1.3528,-1.4493,-1.6495,-1.7692,-1.8827,-2.0533,-2.1075,-2.1533,-2.2624,-2.243,-2.2086,-2.2115,-2.0874,-2.0005,0.0,-2.0532,-2.0321,-1.9855,-1.9793,-1.9661,-1.9342,-1.8861,-1.8761,-1.931,-1.9479,-2.0333,-2.2133,-2.2716,-2.329,-2.3973,-2.4139,-2.3935,-2.3271,-2.295,-2.2828,-2.2854,-2.2622,-2.2951,-2.3752,-2.3038,-2.2513,-2.2191,-2.1622,-2.0792,-1.9816,-1.8127,-1.7402,-1.7254,-1.5352,-1.4092,-1.3185,-1.167,-1.0308,-0.8883,-0.5972,-0.425,-0.3257,-0.2605,-0.1808,-0.1045,-0.0194,0.0508,0.1194,0.2107,0.2789,0.352,0.4595,0.56,0.6846,0.8796,1.0009,1.1142,1.2549,1.376,1.4953,1.6187,1.7468,1.8661,1.9773,2.0917,2.1974,2.277,2.3918,2.4996,2.5842,2.6901,2.7794,2.8378,2.8837,2.9319,2.9899,3.0071,3.026,3.052,3.0574,3.0649,3.0787,3.0789,3.0798,3.0796,3.0808,3.0796,3.08,3.121,3.1191,3.0801,3.1209,3.1203,3.0862,3.0813,3.0782,-1.4306,-1.5734,-1.6736,-1.8966,-2.0752,-2.1855,-2.1454,-2.2314,-2.319,-2.3146,-2.2891,-2.2528,-2.2067,-2.0648,-1.9707,-2.0316,-2.0257,-2.0177,-2.0311,-2.0083,-2.0083,-2.0611,-1.9977,-1.9389,-1.9101,-1.9668,-2.0681,-2.2228,-2.2817,-2.3393,-2.4015,-2.4788,-2.4837,-2.406,-2.3756,-2.3652,-2.3692,-2.3228,-2.3473,-2.4436,-2.3739,-2.3118,-2.2636,-2.1757,-2.0913,-2.01,-1.9033,-1.8808,-1.9052,-1.7312,-1.6072,-1.5114,-1.3783,-1.2558,-1.1256,-0.8628,-0.6518,-0.4817,-0.3618,-0.2856,-0.2335,-0.1611,-0.0955,-0.0252,0.0512,0.1272,0.2213,0.3421,0.4665,0.5924,0.7372,0.879,1.0129,1.1392,1.2846,1.4227,1.5313,1.6743,1.8093,1.9097,2.0294,2.1376,2.2081,2.3318,2.443,2.5073,2.6251,2.7326,2.7989,2.8646,2.9425,3.0478,3.0293,3.0305,3.0709,3.0617,3.069,3.1079,3.0892,3.0886,3.112,3.0915,3.0908,3.1155,3.1441,3.145,3.1163,3.1442,3.1347,3.0878,3.0811,3.0791,-1.2844,-1.5775,-1.9198,-2.0121,-2.1619,-2.3065,-2.3888,-2.4018,-2.3976,-2.3948,-2.3236,-2.2104,-2.048,-1.945,-1.8802,-1.8693,-1.9107,-1.9675,-2.0307,-2.0228,-2.0025,-1.9866,-1.9808,-1.9991,0.0,-2.015,-2.0468,-2.1816,-2.2524,-2.3079,-2.3398,-2.4987,-2.5733,-2.5346,-2.5214,-2.5005,-2.4744,-2.4123,-2.4045,-2.4567,-2.3705,-2.3575,-2.3975,-2.2338,-2.1304,-2.0763,-2.0408,-2.0122,-1.994,-1.9633,-1.8879,-1.7895,-1.7059,-1.5847,-1.4286,-1.2481,-0.9925,-0.7039,-0.5414,-0.4567,-0.413,-0.3367,-0.2546,-0.1726,-0.1167,0.0196,0.1738,0.2272,0.3606,0.5209,0.6785,0.8011,0.9093,1.0508,1.2051,1.3502,1.4436,1.5918,1.7435,1.8691,1.9645,2.057,2.1704,2.2665,2.3621,2.4673,2.5517,2.6438,2.7547,2.8428,2.9717,3.18,3.075,3.0307,3.1283,3.079,3.0818,3.1796,3.1127,3.108,3.1923,3.1208,3.1192,3.2049,3.2882,3.291,3.2065,3.2904,3.246,3.0801,3.0797,3.0808,-1.6624,-1.92,-2.1165,-2.2621,-2.3806,-2.4689,-2.5007,-2.4517,-2.3851,-2.33,-2.2,-2.046,-1.8862,-1.8231,-1.7918,-1.7814,-1.9157,-2.0265,-2.0435,-2.1113,-2.1207,-2.0187,-2.0797,0.0,0.0,0.0,0.0,-2.276,-2.2942,-2.3437,-2.4529,-2.557,-2.6063,-2.5937,-2.5663,-2.5589,-2.5738,-2.5158,-2.5061,-2.5438,-2.4185,-2.3616,-2.3628,-2.2248,-2.1376,-2.104,-2.0668,-2.0795,-2.1259,-2.0093,-1.9711,-1.9665,-1.836,-1.7169,-1.595,-1.3761,-1.2287,-1.089,-0.7456,-0.591,-0.5364,-0.4365,-0.3613,-0.2937,-0.2045,-0.1102,-0.0191,0.0906,0.221,0.357,0.4791,0.629,0.7822,0.9093,1.0488,1.2097,1.3979,1.5513,1.6958,1.834,1.951,2.0409,2.0812,2.1913,2.3288,2.4823,2.6145,2.7158,2.7811,2.8489,2.9232,3.0076,2.9964,3.0013,3.0428,3.0426,3.0565,3.0946,3.0759,3.077,3.1052,3.1411,3.1727,3.203,3.2898,3.3208,3.2959,3.269,3.2233,3.1651,3.1069,3.0801,-1.8933,-2.0962,-2.2225,-2.4268,-2.4896,-2.5033,-2.504,-2.4036,-2.278,-2.1671,-2.0038,-1.8323,-1.6735,-1.5805,-1.5544,-1.636,-1.7858,-1.9276,-2.0308,-2.1331,-2.1862,-2.1545,-2.1941,-2.2192,0.0,0.0,0.0,-2.3209,-2.3224,-2.3883,-2.5459,-2.6353,-2.6837,-2.682,-2.6607,-2.6419,-2.626,-2.5901,-2.577,-2.5881,-2.4896,-2.4135,-2.3622,-2.2778,-2.2179,-2.1832,-2.1542,-2.1787,-2.2346,-2.1009,-2.0664,-2.0759,-1.9442,-1.8352,-1.7302,-1.5558,-1.462,-1.3661,-0.9301,-0.7558,-0.7021,-0.5758,-0.4871,-0.4053,-0.3,-0.2158,-0.1272,-0.0384,0.0962,0.237,0.3453,0.4919,0.6436,0.7926,0.9291,1.0793,1.2797,1.4459,1.592,1.7295,1.8596,1.9658,2.0054,2.1506,2.3142,2.4681,2.6075,2.7293,2.8176,2.8443,2.8925,2.9913,2.9811,2.9846,3.0314,3.0314,3.0597,3.1306,3.0809,3.0782,3.1474,3.1468,3.1615,3.1967,3.2824,3.3295,3.3351,3.2795,3.2381,3.2079,3.1204,3.0814,-1.9644,-2.1162,-2.2575,-2.4999,-2.4908,-2.4202,-2.4151,-2.2708,-2.0906,-1.9219,-1.7495,-1.5799,-1.4111,-1.244,-1.2073,-1.4442,-1.548,-1.7021,-1.9999,-2.1025,-2.2004,0.0,0.0,0.0,0.0,0.0,0.0,-2.3318,0.0,-2.4315,-2.6113,-2.7329,-2.7947,-2.7947,-2.7878,-2.7401,-2.6418,-2.6295,-2.6134,-2.5934,-2.5791,-2.5109,-2.3978,-2.3929,-2.3585,-2.3056,-2.3056,-2.3164,-2.3305,-2.2537,-2.193,-2.1304,-2.0435,-1.9488,-1.8513,-1.7984,-1.6922,-1.5283,-1.1227,-0.9531,-0.8896,-0.7483,-0.6252,-0.5209,-0.4156,-0.2813,-0.1662,-0.1615,-0.0192,0.1535,0.2675,0.3758,0.5008,0.6928,0.8398,0.9742,1.0899,1.2732,1.4492,1.5545,1.7069,1.8459,1.9451,2.137,2.3142,2.421,2.54,2.6793,2.8487,2.8235,2.8783,3.1115,3.0176,2.9811,3.0828,3.0414,3.0877,3.2705,3.1226,3.1126,3.2956,3.1439,3.0984,3.1861,3.2745,3.3238,3.3291,3.3256,3.2849,3.2065,3.1207,3.0836,-2.0725,-2.2882,-2.4744,-2.5488,-2.5006,-2.4167,-2.348,-2.1443,-1.9242,-1.7563,-1.524,-1.3032,-1.146,-1.1234,-1.1877,-1.3638,-1.5619,0.0,-2.0134,-2.1571,0.0,-2.2111,0.0,-2.343,-2.3747,-2.3997,0.0,0.0,-2.447,-2.4622,-2.6196,-2.6988,-2.7377,-2.7345,-2.7312,-2.7145,-2.6775,-2.664,-2.6504,-2.6434,-2.6225,-2.5686,-2.4888,-2.5232,-2.4874,-2.4058,-2.4839,-2.5326,-2.5615,-2.4724,-2.4254,-2.4019,-2.2183,-2.0936,-2.0016,-1.8768,-1.7699,-1.6543,-1.4705,-1.2835,-1.0906,-0.889,-0.7543,-0.6445,-0.5008,-0.3893,-0.3035,-0.2697,-0.149,-0.0123,0.0482,0.2102,0.3969,0.5216,0.6865,0.8646,1.0374,1.2261,1.4013,1.5311,1.7286,1.9016,1.9876,2.1472,2.2846,2.3666,2.4752,2.5957,2.7341,2.7924,2.8505,2.9332,2.9422,2.9566,2.9926,3.004,3.0556,3.1645,3.0781,3.0752,3.193,3.1549,3.1452,3.1757,3.2668,3.3158,3.3215,3.2562,3.2182,3.2005,3.1183,3.0817,-2.2202,-2.4156,-2.5508,-2.5215,-2.4189,-2.282,-2.1185,-1.8756,-1.6289,-1.4215,-1.1964,-1.009,-0.921,-0.9102,-0.9909,0.0,0.0,0.0,-1.9713,-2.1719,-2.2978,0.0,-2.386,0.0,-2.5017,-2.5368,-2.5882,0.0,-2.5814,-2.578,-2.7021,-2.7682,-2.7997,-2.7889,-2.7889,-2.7639,-2.7137,-2.6973,-2.6908,-2.699,-2.6808,-2.6404,-2.5916,-2.662,-2.6509,-2.575,0.0,-2.7017,-2.7052,-2.6061,-2.5618,-2.5371,-2.3892,-2.2487,-2.1249,-2.0127,-1.8839,-1.7479,-1.6472,-1.4866,-1.2882,-1.0524,-0.896,-0.7683,-0.599,-0.4885,-0.3963,-0.3353,-0.2299,-0.1223,-0.054,0.0727,0.229,0.4061,0.5616,0.7219,0.9125,1.1042,1.2992,1.5027,1.7062,1.8738,1.9658,2.1037,2.2331,2.342,2.443,2.5481,2.6607,2.7691,2.8742,2.9608,2.9978,3.0239,3.0453,3.0696,3.124,3.2161,3.12,3.1024,3.2005,3.1366,3.1027,3.113,3.2014,3.2512,3.2587,3.2119,3.1911,3.1948,3.1099,3.071,-2.348,-2.4882,-2.546,-2.4472,-2.3005,-2.1064,-1.8275,-1.5665,-1.3087,-1.0403,-0.8556,-0.7432,-0.7421,-0.6952,-0.7636,-1.0936,-1.3427,-1.6054,-1.9256,-2.1554,-2.3552,-2.5245,-2.5348,-2.5695,-2.6776,-2.6767,-2.6991,-2.7753,-2.7327,-2.7344,-2.8075,-2.8568,-2.8824,-2.8798,-2.8767,-2.836,-2.7557,-2.7338,-2.7338,-2.7539,-2.74,-2.7112,-2.6787,-2.777,-2.7913,-2.7389,0.0,0.0,-2.7834,-2.6997,-2.6439,-2.6077,-2.5411,-2.4061,-2.2396,-2.169,-2.0082,-1.8135,-1.7213,-1.6063,-1.4591,-1.2143,-1.0425,-0.8913,-0.7126,-0.5832,-0.4769,-0.3806,-0.2955,-0.2153,-0.11,-0.0538,0.0474,0.2993,0.4442,0.5709,0.7486,0.9591,1.1866,1.47,1.6507,1.7907,1.8967,2.0332,2.173,2.3128,2.4271,2.5304,2.627,2.752,2.8934,3.0556,3.0831,3.1086,3.1523,3.1704,3.2198,3.316,3.1864,3.1478,3.239,3.0973,3.0259,3.0367,3.1126,3.154,3.1603,3.1671,3.1639,3.1521,3.0773,3.0354,-2.2994,-2.4381,-2.5312,-2.373,-2.2558,-2.0742,-1.6689,-1.4347,-1.2065,-0.8726,-0.7235,-0.6531,-0.6531,-0.7008,-0.849,-1.1829,-1.3393,-1.5725,-2.0125,-2.1161,-2.2497,-2.5317,-2.5634,-2.621,-2.7714,-2.7742,0.0,0.0,0.0,0.0,-2.8282,-2.7683,-2.7647,-2.8314,-2.8116,-2.8074,-2.821,-2.8037,-2.788,-2.7811,-2.784,-2.7408,-2.6586,-2.7412,-2.756,-2.7162,0.0,0.0,-2.7963,-2.7897,-2.7513,-2.6854,-2.6579,-2.5381,-2.3699,-2.2374,-2.0682,-1.8915,-1.7918,-1.6574,-1.5002,-1.2951,-1.1549,-1.0273,-0.8231,-0.6834,-0.5654,-0.4581,-0.3768,-0.3062,-0.2446,-0.1648,-0.0645,0.077,0.2772,0.4665,0.601,0.8982,1.1997,1.404,1.5668,1.7081,1.8274,1.9825,2.1253,2.2412,2.4085,2.5652,2.6801,2.708,2.7736,2.9195,2.9655,3.0285,3.1274,3.1589,3.1868,3.2231,3.1411,3.1108,3.1511,3.0613,3.0157,3.0228,3.0426,3.0552,3.0564,3.0621,3.0316,2.967,2.9516,2.905,-2.3356,-2.4627,-2.5246,-2.3532,-2.1761,-1.9422,-1.5564,-1.2616,-1.0,-0.7441,-0.6562,-0.625,-0.6299,-0.7018,-0.8413,-1.0933,-1.2085,-1.4183,-1.8599,-2.0342,-2.2344,-2.5531,-2.6628,-2.7622,-2.8913,-2.8876,0.0,0.0,0.0,0.0,-2.7949,-2.7042,-2.6914,-2.7759,-2.7531,-2.7736,-2.85,-2.8334,-2.829,-2.836,-2.8378,-2.8076,-2.7567,-2.837,-2.847,-2.8007,0.0,0.0,-2.8428,-2.8607,-2.841,-2.8057,-2.8074,-2.6765,-2.471,-2.3772,-2.1837,-1.9594,-1.8489,-1.706,-1.5395,-1.391,-1.2647,-1.137,-0.965,-0.8101,-0.6724,-0.5612,-0.465,-0.3801,-0.3322,-0.2698,-0.1835,-0.0349,0.2382,0.5055,0.6727,0.9115,1.1319,1.2601,1.4366,1.5997,1.7025,1.8766,2.0505,2.181,2.3274,2.4602,2.5725,2.6036,2.7012,2.9228,3.0052,3.057,3.0893,3.117,3.1581,3.2109,3.1272,3.0995,3.1525,3.0519,2.9975,3.0049,3.0147,3.0202,3.0202,3.0267,2.9862,2.9037,2.9041,2.8602,-2.3482,-2.4646,-2.4948,-2.3454,-2.1246,-1.8484,-1.4887,-1.1601,-0.8783,-0.6945,-0.6509,-0.6528,-0.6799,-0.7417,-0.8383,-0.9947,-1.0898,-1.2814,-1.68,-1.9284,-2.2064,-2.5747,-2.7411,0.0,-2.9599,-2.9672,0.0,0.0,0.0,0.0,-2.7442,-2.6631,-2.6667,-2.7736,-2.7362,-2.7676,-2.8731,-2.8664,-2.8713,-2.8915,-2.8845,-2.8731,-2.8621,-2.9294,-2.9251,-2.8747,0.0,0.0,0.0,-2.8758,-2.8813,-2.8712,-2.9195,-2.7967,-2.5831,-2.5051,-2.3112,-2.055,-1.9202,-1.7599,-1.6028,-1.4923,-1.3482,-1.1995,-1.0676,-0.9176,-0.7668,-0.66,-0.5475,-0.4577,-0.4058,-0.3595,-0.2782,-0.0814,0.2185,0.515,0.7177,0.8925,1.0338,1.1152,1.3017,1.4801,1.5717,1.7645,1.9583,2.1191,2.2417,2.3525,2.4364,2.5282,2.6632,2.8715,3.0087,3.0783,3.0505,3.0916,3.1384,3.1783,3.1015,3.0742,3.1232,3.0263,2.9736,2.9789,2.9918,3.0015,3.0015,2.9913,2.9426,2.8559,2.8387,2.7866,-2.252,-2.3663,-2.4127,-2.324,-2.1588,-1.9098,-1.4884,-1.2382,-1.029,-0.7886,-0.7339,-0.7554,-0.8408,-0.8694,-0.9101,-1.0049,-1.0932,-1.2692,-1.612,-1.8048,-2.0938,-2.5887,0.0,0.0,-2.9009,-2.9608,0.0,0.0,0.0,0.0,0.0,-2.6578,-2.7153,-2.8894,-2.8158,-2.822,-2.923,-2.9212,-2.923,-2.9251,-2.9188,-2.9082,-2.8971,-2.9099,-2.8888,-2.8424,0.0,0.0,0.0,-2.7998,-2.8148,-2.7948,-2.9194,-2.8857,-2.7453,-2.5689,-2.4048,-2.2338,-2.0207,-1.8496,-1.7038,-1.5808,-1.383,-1.1744,-1.0642,-0.9505,-0.8337,-0.7159,-0.6252,-0.5454,-0.4751,-0.4186,-0.3152,-0.0759,0.1436,0.352,0.5276,0.735,0.9162,1.0053,1.1926,1.367,1.469,1.6809,1.8838,2.023,2.2076,2.3424,2.3754,2.5644,2.6695,2.5982,2.8202,2.9857,3.0119,3.116,3.1382,3.0374,3.0259,3.0019,2.9553,2.9468,2.9435,2.9456,2.9588,2.9678,2.9753,2.908,2.8332,2.7528,2.674,2.5897,-2.118,-2.2604,-2.3207,-2.2855,-2.07,-1.7946,-1.5146,-1.235,-0.9938,-0.8462,-0.8144,-0.8105,-0.8039,-0.844,-0.8923,-0.9341,-0.9699,-1.0927,-1.3755,-1.6064,-1.9141,-2.3729,-2.5906,0.0,0.0,0.0,0.0,0.0,0.0,0.0,0.0,-2.6885,-2.6898,-2.8575,-2.8294,-2.8537,-2.9475,-2.9532,-2.9551,-2.955,-2.9512,-2.9472,-2.9433,-2.9411,-2.9148,-2.8712,0.0,0.0,0.0,-2.8952,-2.9051,-2.826,-2.9032,-2.8469,-2.7011,-2.547,-2.39,-2.2247,-2.0723,-1.9306,-1.796,-1.646,-1.473,-1.2996,-1.1399,-1.0272,-0.927,-0.8293,-0.7197,-0.6191,-0.574,-0.4499,-0.2932,-0.1053,0.0767,0.2653,0.4797,0.6466,0.7896,0.9095,1.0246,1.1612,1.3348,1.5119,1.6938,1.8936,2.05,2.1787,2.2667,2.4026,2.4879,2.4806,2.6928,2.8323,2.8239,2.8921,2.9419,2.9484,2.937,2.9387,2.9588,2.931,2.9141,2.9101,2.9175,2.8998,2.8573,2.8296,2.7531,2.6311,2.5959,2.5325,-1.9903,-2.1422,-2.2111,-2.2119,-1.9955,-1.7309,-1.5296,-1.2579,-1.0194,-0.9164,-0.8959,-0.8813,-0.8323,-0.8698,-0.904,-0.8886,-0.9096,-1.0047,-1.2282,-1.4844,-1.7998,-2.2001,0.0,-2.6812,0.0,0.0,0.0,0.0,0.0,0.0,0.0,-2.7733,-2.7532,-2.8791,-2.8551,-2.8816,-2.9681,-2.9735,-2.9754,-2.9756,-2.9756,-2.9756,-2.9756,-2.9701,-2.9625,0.0,0.0,0.0,0.0,-3.0103,-3.0035,-2.9034,-2.9161,-2.8401,-2.706,-2.5433,-2.3954,-2.255,-2.1229,-2.0036,-1.8858,-1.7062,-1.5711,-1.4355,-1.2359,-1.1049,-1.0086,-0.9229,-0.7901,-0.6555,-0.6059,-0.4627,-0.3007,-0.1846,-0.0174,0.1656,0.3691,0.5265,0.6702,0.8016,0.889,1.0058,1.1864,1.3597,1.5389,1.7427,1.9096,2.0518,2.1622,2.2563,2.3362,2.3994,2.5575,2.6634,2.6573,2.7272,2.7989,2.8558,2.8451,2.8612,2.9206,2.8916,2.8743,2.8694,2.8518,2.8173,2.7677,2.7221,2.6434,2.5389,2.511,2.4669,-1.8783,-2.0118,-2.0768,-2.0973,-1.9675,-1.7746,-1.5271,-1.3337,-1.1636,-1.0096,-0.9793,-0.9831,-0.9946,-0.9979,-0.9734,-0.8932,-0.9527,-1.0676,-1.2355,-1.4847,-1.7797,0.0,0.0,-2.4993,0.0,0.0,0.0,0.0,0.0,0.0,0.0,0.0,-2.9451,-3.0052,-2.9121,-2.902,-2.9888,-2.9893,-2.9895,-2.9895,-2.9895,-2.9895,-2.9895,-2.9825,0.0,0.0,0.0,0.0,0.0,-3.1057,-3.0749,-3.0216,-2.9627,-2.9067,-2.8303,-2.588,-2.4612,-2.3792,-2.1856,-2.072,-1.9737,-1.7687,-1.6515,-1.5545,-1.3386,-1.1799,-1.059,-0.9723,-0.8144,-0.6501,-0.5536,-0.4568,-0.3688,-0.3188,-0.1486,0.0351,0.1635,0.3605,0.549,0.669,0.8133,0.9414,1.0128,1.2448,1.46,1.5656,1.7985,1.9927,2.0696,2.1704,2.2589,2.3319,2.4116,2.4855,2.5484,2.6918,2.7673,2.7426,2.7525,2.7689,2.7897,2.8101,2.8201,2.8201,2.7494,2.7191,2.7405,2.5682,2.4847,2.4882,2.3947,2.3544,-1.5343,-1.6458,-1.709,-1.7213,-1.5998,-1.4419,-1.3088,-1.1936,-1.0877,-0.9931,-0.9249,-0.8876,-0.8959,-0.9013,-0.9371,-1.0344,-1.1235,-1.2416,-1.413,-1.667,0.0,-2.2259,-2.6225,-2.8957,0.0,0.0,0.0,0.0,0.0,0.0,0.0,0.0,-2.9593,-3.0279,-2.9947,-2.9901,-3.0169,-3.0155,-3.0147,-3.0104,-3.0138,-3.0448,-3.0906,-3.0285,0.0,0.0,0.0,0.0,0.0,-3.2292,-3.1542,-2.9832,-2.936,-2.829,-2.6798,-2.4967,-2.3805,-2.2864,-2.107,-2.0355,-1.98,-1.7659,-1.6656,-1.6038,-1.4438,-1.2872,-1.1218,-0.9285,-0.8069,-0.7082,-0.5835,-0.4838,-0.401,-0.3442,-0.2363,-0.0969,0.0696,0.2547,0.4309,0.5743,0.6487,0.748,0.9451,1.0927,1.2586,1.4725,1.6863,1.8703,1.994,2.0782,2.1609,2.248,2.3216,2.4194,2.5508,2.627,2.6826,2.7117,2.7161,2.7269,2.747,2.7409,2.7439,2.7577,2.6784,2.6149,2.5754,2.4638,2.3866,2.3379,2.2952,2.2822,-1.3132,-1.4168,-1.4787,-1.4909,-1.3745,-1.2376,-1.1595,-1.0781,-0.9933,-0.8957,-0.8763,-0.8727,-0.8538,-0.8754,-0.9357,-1.0546,-1.1471,-1.266,-1.4418,0.0,0.0,-2.3627,0.0,0.0,0.0,0.0,0.0,0.0,0.0,0.0,0.0,0.0,-3.0056,-3.05,-3.0422,-3.0386,-3.0375,-3.0344,-3.029,-3.0228,-3.0304,-3.0567,-3.1024,0.0,0.0,0.0,0.0,0.0,0.0,-3.3395,-3.2773,-3.1431,-2.9713,-2.8323,-2.7017,-2.4636,-2.3024,-2.1872,-2.0529,-1.9839,-1.9293,-1.7333,-1.6256,-1.5535,-1.4347,-1.297,-1.141,-0.9439,-0.8426,-0.7603,-0.6299,-0.5289,-0.4449,-0.3825,-0.3016,-0.1911,-0.0342,0.1331,0.2953,0.4342,0.4974,0.6022,0.8145,0.9562,1.1191,1.347,1.5659,1.7501,1.8862,1.9851,2.0627,2.1246,2.2309,2.3359,2.4414,2.5174,2.5746,2.6106,2.6386,2.659,2.679,2.6723,2.6757,2.6888,2.5819,2.504,2.462,2.359,2.2722,2.2096,2.2102,2.2102,0.0,-1.2878,-1.345,-1.3541,-1.2494,-1.125,-1.057,-0.9841,0.0,-0.7624,-0.8391,-0.9185,-0.8805,-0.9213,-0.9738,-1.0165,-1.0927,-1.2112,0.0,-1.7298,0.0,0.0,0.0,0.0,0.0,0.0,0.0,0.0,0.0,0.0,0.0,0.0,0.0,-3.0613,-3.0559,-3.0519,-3.0501,-3.0443,-3.0383,-3.0309,-3.0383,-3.0449,-3.0506,0.0,0.0,0.0,0.0,0.0,0.0,-3.4177,-3.4134,-3.4061,-3.0365,-2.8881,-2.8454,-2.4764,-2.2396,-2.0962,-2.0067,-1.9269,-1.8389,-1.6837,-1.5511,-1.4354,-1.338,-1.2413,-1.1286,-1.0032,-0.9052,-0.8041,-0.686,-0.5862,-0.4959,-0.4343,-0.3463,-0.2517,-0.1448,-0.0,0.1461,0.2625,0.3682,0.4912,0.6463,0.8303,1.0158,1.2019,1.427,1.6213,1.7433,1.8706,1.9497,1.9743,2.1208,2.2246,2.2298,2.3631,2.4552,2.4712,2.5233,2.566,2.5924,2.6002,2.6057,2.6106,2.468,2.39,2.385,2.2481,2.1513,2.1023,2.1321,2.1366,-0.9633,0.0,-1.0547,-0.9515,-0.9012,-0.8771,0.0,-0.8461,-0.8426,-0.8735,-0.8593,-0.8949,-1.0689,-1.0249,-1.0645,-1.3869,-1.4682,-1.5778,-1.8203,0.0,0.0,-2.833,0.0,0.0,0.0,0.0,0.0,0.0,0.0,0.0,0.0,0.0,0.0,-2.9775,-3.0395,-3.0691,-3.0656,-3.0633,-3.06,-3.0537,-3.0603,-3.0923,-3.1457,0.0,0.0,0.0,0.0,0.0,0.0,-3.345,-3.285,-3.1628,-2.971,-2.8491,-2.745,-2.4539,-2.2854,-2.1642,-1.911,-1.8063,-1.7617,-1.6076,-1.5133,-1.4493,-1.358,-1.2805,-1.192,-1.0248,-0.9207,-0.8274,-0.6702,-0.5806,-0.5163,-0.4598,-0.3962,-0.3352,-0.2623,-0.0913,0.07,0.1285,0.263,0.4241,0.6007,0.714,0.857,1.0921,1.2727,1.4291,1.5574,1.6468,1.7331,1.8292,1.896,1.9586,2.0106,2.2123,2.3798,2.4776,2.4148,2.4237,2.5335,2.4815,2.4767,2.5281,2.3931,2.2916,2.2221,2.1307,2.0632,2.0268,2.023,2.0181,-0.8778,-0.9342,-0.9744,-0.9026,-0.8608,-0.838,-0.845,-0.822,-0.8031,-0.8128,-0.8391,-0.9042,-1.0446,-1.0615,-1.1427,-1.4088,-1.5306,0.0,0.0,0.0,-2.7381,-2.924,0.0,0.0,0.0,0.0,0.0,0.0,0.0,0.0,0.0,0.0,0.0,0.0,-3.0154,-3.0388,-3.0742,-3.0751,-3.0739,-3.0682,-3.0735,-3.0944,-3.1277,0.0,0.0,0.0,0.0,0.0,-3.2634,-3.2372,-3.215,-3.1771,-2.9303,-2.8376,-2.8083,-2.526,-2.3078,-2.1247,-1.9257,-1.7566,-1.6161,-1.5186,-1.4681,-1.4337,-1.3619,-1.2972,-1.2147,-1.0595,-0.9666,-0.8771,-0.7114,-0.6253,-0.5682,-0.4923,-0.4463,-0.3962,-0.3405,-0.2088,-0.0857,-0.0286,0.1372,0.317,0.48,0.6081,0.7615,0.9838,1.1232,1.2497,1.3641,1.4769,1.573,1.6344,1.7278,1.7928,1.8171,1.9649,2.1178,2.266,2.2454,2.264,2.3389,2.335,2.3434,2.3692,2.2748,2.172,2.07,2.0029,1.9654,1.9595,1.9589,1.9675,-0.8928,-0.9587,-1.0165,-0.9946,-0.9467,-0.9066,-0.9117,-0.8684,-0.8109,-0.756,-0.8526,-0.9585,-0.9967,-1.1128,-1.2359,-1.3374,0.0,0.0,-2.2064,-2.4918,-2.7168,0.0,0.0,0.0,0.0,0.0,0.0,0.0,0.0,0.0,0.0,0.0,0.0,0.0,-2.9542,-2.9687,-3.0562,-3.0597,-3.0671,-3.0804,-3.0794,-3.0767,-3.0722,-3.1297,0.0,0.0,0.0,0.0,-3.1955,-3.0956,-3.1317,-3.2126,-2.8753,-2.8193,-2.8945,-2.6038,-2.3335,-2.0977,-1.9795,-1.7422,-1.4914,-1.4569,-1.435,-1.413,-1.3581,-1.3001,-1.2255,-1.0971,-1.0161,-0.9274,-0.7667,-0.6849,-0.6218,-0.5399,-0.4904,-0.4519,-0.4018,-0.3236,-0.2399,-0.1732,0.0111,0.2017,0.3405,0.5019,0.6786,0.8634,0.9615,1.0494,1.1597,1.3032,1.4003,1.4094,1.5478,1.6302,1.6216,1.6659,1.7644,1.9125,2.0242,2.0944,2.119,2.1919,2.226,2.2177,2.1503,2.0561,1.946,1.8882,1.8627,1.8631,1.8727,1.8948,-0.9992,-1.0975,-1.1229,-0.9376,-0.9334,-0.9731,-0.9683,-0.9561,-0.9607,-1.0226,-1.0538,-1.1192,-1.2673,-1.3295,-1.4101,-1.569,0.0,-2.0864,0.0,0.0,0.0,0.0,0.0,0.0,0.0,0.0,0.0,0.0,0.0,0.0,0.0,0.0,0.0,0.0,0.0,-2.8641,-2.9518,-2.9647,-3.0075,-3.08,-3.08,-3.0757,-3.07,-3.0814,-3.0812,0.0,0.0,0.0,-2.9459,-2.9159,-2.889,-2.8521,-2.7175,-2.722,-2.7712,-2.532,-2.4049,-2.3095,-1.9683,-1.7211,-1.5492,-1.496,-1.4603,-1.4294,-1.3714,-1.3086,-1.23,-1.1345,-1.0272,-0.911,-0.7943,-0.7101,-0.6426,-0.5828,-0.5454,-0.5018,-0.4519,-0.3735,-0.2954,-0.2174,-0.0556,0.1291,0.3071,0.4047,0.5143,0.6909,0.7376,0.7825,0.8882,0.9974,1.0831,1.1336,1.2416,1.3182,1.3321,1.3606,1.4097,1.4754,1.7225,1.9322,2.072,2.1155,2.1634,2.2112,2.0908,2.0003,1.9418,1.833,1.7327,1.6484,1.6429,1.6008,-0.913,-0.9964,-1.057,-1.0235,-1.1219,-1.224,-1.2107,-1.2107,-1.2124,-1.214,-1.249,-1.2925,-1.3361,-1.4278,-1.5729,-1.802,0.0,-2.2161,0.0,0.0,0.0,0.0,0.0,0.0,0.0,0.0,0.0,0.0,0.0,0.0,0.0,0.0,0.0,0.0,0.0,-2.7647,-2.8487,-2.8113,-2.8651,-3.0096,-3.0095,-3.0075,-3.0046,-2.9975,-2.9904,0.0,0.0,-2.8606,-2.8101,-2.7519,-2.7361,-2.7364,-2.6356,-2.6688,-2.7518,-2.5471,-2.41,-2.2805,-1.9701,-1.7692,-1.6296,-1.5256,-1.464,-1.4186,-1.3658,-1.2987,-1.2314,-1.1651,-1.0585,-0.9472,-0.8447,-0.7717,-0.7074,-0.6539,-0.6109,-0.5673,-0.5281,-0.4783,-0.4003,-0.2672,-0.1276,0.056,0.3196,0.3702,0.4193,0.5382,0.5695,0.5964,0.6422,0.7479,0.8407,0.8977,0.9678,1.0278,1.059,1.1554,1.2657,1.3992,1.5837,1.7421,1.8735,1.8692,1.8917,1.9598,1.8206,1.7581,1.775,1.5988,1.5357,1.5881,1.536,1.4537,-0.8584,-0.9151,-1.0001,-1.126,-1.248,-1.3644,-1.4525,-1.4554,-1.444,-1.4635,-1.5001,-1.5091,-1.4419,-1.5286,0.0,-1.971,-2.1357,0.0,0.0,0.0,0.0,0.0,0.0,0.0,0.0,0.0,0.0,0.0,0.0,0.0,0.0,0.0,0.0,0.0,0.0,0.0,-2.7409,-2.664,-2.7191,-2.9138,-2.9152,-2.9175,-2.9179,-2.9067,-2.8994,-2.8899,-2.7841,-2.7344,-2.7191,-2.6238,-2.6159,-2.6575,-2.5683,-2.6097,-2.7061,-2.5922,-2.4258,-2.2284,-2.0336,-1.8576,-1.6961,-1.5771,-1.4856,-1.4082,-1.3695,-1.3035,-1.2314,-1.1968,-1.1108,-1.002,-0.9093,-0.8362,-0.7777,-0.7198,-0.6756,-0.6317,-0.5991,-0.5664,-0.4944,-0.3282,-0.1995,-0.0223,0.2766,0.3102,0.3197,0.4027,0.418,0.4303,0.4521,0.5456,0.6251,0.6477,0.7148,0.7797,0.8324,0.9694,1.1149,1.2531,1.3545,1.479,1.6276,1.5635,1.5527,1.6207,1.5001,1.4521,1.4988,1.3252,1.2987,1.4033,1.354,1.2688,-0.9689,-1.0107,-1.06,-1.1763,-1.1411,-1.1829,-1.587,-1.5843,-1.5774,-1.8718,-1.8718,-1.798,-1.7319,-1.6948,-1.7587,-2.0219,-2.1016,0.0,0.0,0.0,0.0,0.0,0.0,0.0,0.0,0.0,0.0,0.0,0.0,0.0,0.0,0.0,0.0,0.0,0.0,0.0,-2.6314,-2.5513,-2.6098,-2.8016,-2.8151,-2.8193,-2.82,-2.8199,-2.8111,-2.7957,-2.7125,-2.668,-2.6481,-2.5482,-2.5061,-2.504,-2.4915,-2.5072,-2.5505,-2.644,-2.5098,-2.2682,-2.216,-1.9912,-1.7247,-1.7024,-1.5591,-1.401,-1.414,-1.3276,-1.2323,-1.2431,-1.1669,-1.0608,-0.9769,-0.904,-0.8362,-0.7777,-0.7348,-0.6864,-0.6317,-0.605,-0.5504,-0.4073,-0.2781,-0.1279,0.0786,0.1365,0.1919,0.2939,0.2759,0.2716,0.3431,0.4063,0.4271,0.3678,0.4907,0.6121,0.6972,0.7883,0.8171,0.7663,0.8726,1.074,1.3764,1.2534,1.197,1.2468,1.1993,1.1444,1.0716,1.0685,1.0061,0.8961,0.9446,0.9217,-0.8543,-0.9672,-1.097,-1.1716,-1.1936,-1.2851,-1.6141,-1.7535,-1.8637,-2.0529,-2.099,-2.0595,-1.9012,-1.8734,-1.909,-2.02,0.0,0.0,0.0,0.0,0.0,0.0,0.0,0.0,0.0,0.0,0.0,0.0,0.0,0.0,0.0,0.0,0.0,0.0,0.0,0.0,0.0,-2.4412,-2.4339,-2.5106,-2.6547,-2.6915,-2.6383,-2.7019,-2.7265,-2.7169,-2.6277,-2.5855,-2.5785,-2.531,-2.5056,-2.5004,-2.5352,-2.5265,-2.5019,-2.5585,-2.4998,-2.3668,-2.195,-2.0537,-1.9311,-1.8004,-1.6402,-1.4911,-1.4842,-1.3893,-1.2793,-1.2569,-1.2076,-1.1418,-1.0395,-0.9666,-0.9093,-0.8514,-0.8096,-0.7622,-0.702,-0.6696,-0.5995,-0.4097,-0.3444,-0.2422,-0.0,0.0429,0.0733,0.1552,0.1452,0.1365,0.156,0.1618,0.1792,0.2142,0.3286,0.4294,0.5025,0.4652,0.4229,0.3837,0.5894,0.8108,1.017,1.0289,1.0,0.9321,0.8415,0.7923,0.7858,0.7494,0.6968,0.6231,0.6565,0.6472,-0.8029,-0.9233,-1.0723,-1.1482,-1.2432,-1.3913,-1.6615,-1.8435,-2.0061,-2.1856,-2.2018,-2.1383,-2.0029,-1.9497,0.0,0.0,0.0,0.0,0.0,0.0,0.0,0.0,0.0,0.0,0.0,0.0,0.0,0.0,0.0,0.0,0.0,0.0,0.0,0.0,0.0,0.0,0.0,-2.3524,-2.293,-2.2439,-2.4297,-2.4898,-2.44,-2.5138,-2.5639,-2.5881,-2.527,-2.4992,-2.504,-2.5178,-2.4992,-2.4683,-2.5366,-2.5167,-2.453,-2.4628,-2.4469,-2.3947,-2.2078,-2.1148,-2.0517,-1.9059,-1.7547,-1.6239,-1.5822,-1.467,-1.3495,-1.3107,-1.2569,-1.1826,-1.098,-1.03,-0.9718,-0.9242,-0.8784,-0.8374,-0.7777,-0.7372,-0.6498,-0.4303,-0.3872,-0.3103,-0.0744,-0.0316,-0.0154,0.0336,0.0424,0.037,0.0135,-0.0091,0.014,0.1037,0.1898,0.2635,0.3147,0.2809,0.2339,0.184,0.363,0.5257,0.6406,0.7267,0.7149,0.6015,0.5489,0.5205,0.5274,0.5092,0.4684,0.4263,0.4752,0.4833,-0.8603,-0.8956,-0.9821,-1.1096,-1.2638,-1.4607,-1.7532,-1.8422,-1.956,-2.2915,-2.1746,-2.018,-2.0358,-1.9062,0.0,0.0,0.0,0.0,0.0,0.0,0.0,0.0,0.0,0.0,0.0,0.0,0.0,0.0,0.0,0.0,0.0,0.0,0.0,0.0,0.0,0.0,0.0,-2.2904,-2.206,-2.0315,-2.1364,-2.2051,-2.2395,-2.2527,-2.3106,-2.3985,-2.406,-2.4121,-2.4248,-2.4991,-2.4709,-2.3866,-2.4669,-2.4538,-2.3877,-2.3726,-2.3574,-2.3337,-2.2923,-2.1801,-2.0475,-2.0193,-1.922,-1.7963,-1.707,-1.5658,-1.4301,-1.4263,-1.3102,-1.1873,-1.1593,-1.0968,-1.0344,-0.9917,-0.951,-0.9054,-0.8527,-0.8043,-0.7052,-0.486,-0.4103,-0.3247,-0.1498,-0.0982,-0.0796,-0.0718,-0.0322,-0.018,-0.0674,-0.0697,-0.043,0.029,0.0786,0.1166,0.1389,0.2704,0.3074,0.1843,0.1783,0.208,0.2681,0.3062,0.3069,0.2625,0.336,0.3516,0.293,0.3632,0.3572,0.2823,0.412,0.4407,-0.8324,-0.983,-1.1673,-1.246,-1.479,-1.7169,-1.8257,-1.9234,-2.0569,-2.2854,-2.2423,-2.1472,-2.1004,-2.0598,0.0,0.0,0.0,0.0,0.0,0.0,0.0,0.0,0.0,0.0,0.0,0.0,0.0,0.0,0.0,0.0,0.0,0.0,0.0,0.0,0.0,0.0,-2.2662,-2.1478,-2.0662,-2.0228,-1.9937,-2.0292,-2.1221,-2.1983,-2.2481,-2.2786,-2.3553,-2.3878,-2.3873,-2.4297,-2.3888,-2.3036,-2.3242,-2.3193,-2.2898,-2.2212,-2.2289,-2.2653,-2.1812,-2.166,-2.1786,-2.147,-2.0494,-1.9351,-1.8951,-1.7495,-1.5928,-1.5689,-1.4871,-1.3876,-1.2878,-1.219,-1.1511,-1.0637,-1.0035,-0.9452,-0.8873,-0.8375,-0.7481,-0.5479,-0.4312,-0.3434,-0.2775,-0.2235,-0.1825,-0.1835,-0.1351,-0.1166,-0.1706,-0.1404,-0.1188,-0.1147,-0.025,0.0506,0.0861,0.101,0.1011,0.083,0.1304,0.1799,0.2343,0.309,0.3149,0.2391,0.2973,0.3157,0.2954,0.3084,0.3302,0.35,0.3771,0.3853,-0.9035,-1.0777,-1.2763,-1.3841,-1.5981,-1.8001,-1.8782,-1.9671,-2.0721,-2.2149,-2.1698,-2.1018,-2.099,-2.0846,0.0,0.0,0.0,0.0,0.0,0.0,0.0,0.0,0.0,0.0,0.0,0.0,0.0,0.0,0.0,0.0,0.0,0.0,0.0,0.0,0.0,0.0,-2.1813,-2.0459,-1.9674,-1.9391,-1.8983,-1.9182,-1.9932,-2.0637,-2.1185,-2.1606,-2.2355,-2.2859,-2.3094,-2.3047,-2.2723,-2.2262,-2.2254,-2.2233,-2.2136,-2.1184,-2.1598,-2.2517,-2.1739,-2.2105,-2.283,-2.2368,-2.1801,-2.1156,-2.04,-1.8955,-1.7533,-1.7008,-1.6065,-1.503,-1.4003,-1.3271,-1.2469,-1.1011,-1.024,-0.9764,-0.9285,-0.8772,-0.7941,-0.6139,-0.502,-0.41,-0.3435,-0.2785,-0.2361,-0.2341,-0.1654,-0.1166,-0.1302,-0.157,-0.1794,-0.1928,-0.1465,-0.0945,-0.0498,-0.0694,-0.0522,0.0337,0.1065,0.1697,0.2173,0.2902,0.2985,0.2319,0.2869,0.3099,0.2963,0.3021,0.3235,0.3553,0.37,0.3774,-1.0208,-1.1612,-1.3175,-1.5031,-1.6411,-1.7704,-1.9104,-1.9711,-2.0213,-2.0973,-2.0108,-1.9482,-2.0536,-2.0192,0.0,0.0,0.0,0.0,0.0,0.0,0.0,0.0,0.0,0.0,0.0,0.0,0.0,0.0,0.0,0.0,0.0,0.0,0.0,0.0,0.0,0.0,-2.0402,-1.9682,-1.893,0.0,-1.8406,-1.8563,-1.8623,-1.8912,-1.9595,-2.0541,-2.0708,-2.1206,-2.1876,-2.1425,-2.1268,-2.1333,-2.1508,-2.159,-2.1488,-2.0718,-2.1372,-2.2636,-2.2402,-2.2949,-2.3632,-2.3155,-2.3226,-2.3257,-2.1762,-2.0487,-1.9405,-1.8604,-1.7265,-1.5916,-1.5327,-1.4538,-1.3372,-1.1411,-1.0504,-1.0008,-0.9679,-0.9207,-0.8324,-0.6716,-0.5891,-0.5058,-0.3792,-0.3024,-0.2581,-0.2476,-0.1569,-0.0763,-0.0359,-0.1479,-0.2243,-0.2243,-0.2645,-0.269,-0.2109,-0.2066,-0.1368,0.0277,0.0902,0.147,0.2039,0.2525,0.2613,0.2293,0.3053,0.3252,0.2933,0.3299,0.3444,0.3278,0.3924,0.3982,-0.9475,-1.1003,-1.2858,-1.4793,-1.6874,-1.8516,-1.8788,-1.9064,-1.9383,-1.9927,-1.9823,-1.9778,-2.0174,0.0,0.0,0.0,0.0,0.0,0.0,0.0,0.0,0.0,0.0,0.0,0.0,0.0,0.0,0.0,0.0,0.0,0.0,0.0,0.0,0.0,0.0,-1.9849,-1.8884,-1.8299,-1.7912,0.0,-1.7945,-1.8031,-1.801,-1.8432,-1.9128,-1.9938,-1.9315,-1.9286,-1.9695,-1.9898,-1.9692,-1.9342,-2.0252,-2.0628,-2.0729,-2.1162,-2.1486,-2.1865,-2.2999,-2.3545,-2.3944,-2.49,-2.5186,-2.5208,-2.5323,-2.4237,-2.2957,-2.3035,-2.1401,-1.9507,-1.8999,-1.73,-1.5348,-1.388,-1.2128,-1.0615,-0.9731,-0.922,-0.8488,-0.6961,-0.6292,-0.5809,-0.511,-0.4129,-0.3294,-0.2853,-0.2598,-0.2506,-0.2773,-0.2776,-0.2734,-0.2734,-0.2823,-0.2375,-0.1123,-0.1005,-0.0725,0.0053,-0.0146,0.0093,0.0813,0.1978,0.2452,0.2213,0.3111,0.3396,0.3069,0.3451,0.368,0.3745,0.4024,0.4146,-0.9416,-1.0965,-1.2874,-1.5517,-1.7052,-1.7949,-1.8064,-1.7904,-1.7817,-1.8165,-1.867,-1.9125,0.0,0.0,0.0,0.0,0.0,0.0,0.0,0.0,0.0,0.0,0.0,0.0,0.0,0.0,0.0,0.0,0.0,0.0,0.0,0.0,0.0,0.0,-2.004,-1.9187,-1.8257,-1.7593,-1.7296,-1.7311,-1.7608,-1.7698,-1.7608,-1.8044,-1.8467,-1.8851,-1.8083,-1.7861,-1.8058,-1.8302,-1.8354,-1.8416,-1.9842,-2.0522,-2.0837,-2.17,-2.2258,-2.2656,-2.3475,-2.4334,-2.5191,-2.5802,-2.6236,-2.645,-2.6053,-2.5179,-2.4288,-2.4078,-2.2644,-2.1092,-2.0892,-1.898,-1.6741,-1.5539,-1.3386,-1.1261,-1.0009,-0.9669,-0.9102,-0.748,-0.7035,-0.6625,-0.5667,-0.4461,-0.3569,-0.3289,-0.3409,-0.3647,-0.3887,-0.3704,-0.3486,-0.3268,-0.3442,-0.317,-0.2192,-0.1435,-0.093,-0.0706,-0.0877,-0.0758,-0.0094,0.1231,0.1992,0.2,0.3075,0.3391,0.2993,0.3746,0.4005,0.3914,0.4272,0.4502,-0.9336,-1.1002,-1.301,-1.6041,-1.6791,-1.6807,-1.6959,-1.6619,-1.6267,-1.6236,-1.7163,0.0,0.0,0.0,0.0,0.0,0.0,0.0,0.0,0.0,0.0,0.0,0.0,0.0,0.0,0.0,0.0,0.0,0.0,0.0,0.0,0.0,-1.9684,-2.0242,-1.9442,-1.86,-1.7765,-1.7123,-1.6825,-1.6841,-1.7216,-1.7377,-1.7353,-1.7568,-1.7698,-1.7676,-1.6948,-1.668,-1.6715,-1.6835,-1.7173,-1.7789,-1.942,-2.046,-2.1094,-2.1951,-2.29,-2.3781,-2.3952,-2.5112,-2.6474,-2.6302,-2.6848,-2.7301,-2.609,-2.5423,-2.4989,-2.4514,-2.3277,-2.2167,-2.2477,-2.0488,-1.8115,-1.7196,-1.4924,-1.2437,-1.0496,-1.0269,-0.986,-0.8071,-0.7704,-0.7279,-0.5942,-0.4675,-0.3799,-0.3622,-0.4038,-0.4395,-0.4382,-0.4414,-0.4232,-0.3755,-0.4056,-0.41,-0.3622,-0.2307,-0.1433,-0.1298,-0.1194,-0.0958,-0.0444,0.0758,0.1481,0.1717,0.2879,0.3259,0.28,0.3952,0.4264,0.3883,0.4522,0.4893,-0.8168,-1.0452,-1.3044,-1.4785,-1.5591,-1.5831,-1.5353,-1.5801,-1.5984,0.0,-1.5825,0.0,0.0,0.0,0.0,0.0,0.0,0.0,0.0,0.0,0.0,0.0,0.0,0.0,0.0,0.0,0.0,0.0,0.0,0.0,0.0,-1.8363,-1.8303,-1.8845,-1.8124,-1.7261,-1.6286,-1.6402,-1.6382,-1.6219,-1.6463,-1.6743,-1.7048,-1.6917,-1.6885,-1.6894,-1.5989,-1.5573,-1.5542,-1.5895,-1.6251,-1.6642,-1.7868,-1.9247,-2.0651,-2.118,-2.2336,-2.3746,-2.4606,-2.5621,-2.6544,-2.6806,-2.7436,-2.8057,-2.7866,-2.7229,-2.6784,-2.7671,-2.607,-2.4339,-2.535,-2.2942,-2.0153,-1.976,-1.7801,-1.4963,-1.1157,-1.0837,-1.0548,-0.8164,-0.7722,-0.7392,-0.6363,-0.5411,-0.4548,-0.3711,-0.4267,-0.4725,-0.4733,-0.4853,-0.4718,-0.4276,-0.4276,-0.41,-0.3622,-0.2639,-0.1666,-0.0846,-0.0409,0.0044,0.0583,0.1095,0.1401,0.1373,0.2435,0.2808,0.2468,0.3772,0.4199,0.3753,0.4595,0.4985,-0.7759,-0.9654,-1.1616,-1.3168,-1.4041,-1.4476,-1.4269,-1.4796,-1.503,-1.4193,0.0,0.0,0.0,0.0,0.0,0.0,0.0,0.0,0.0,0.0,0.0,0.0,0.0,0.0,0.0,0.0,0.0,0.0,0.0,0.0,-1.8389,-1.784,-1.772,-1.8254,-1.7619,0.0,-1.5913,-1.6039,-1.6139,-1.6166,-1.6179,-1.6344,-1.6601,-1.6394,-1.6432,-1.6622,-1.5702,-1.5046,-1.4649,-1.5009,-1.5232,-1.5454,-1.717,-1.8487,-1.9613,-2.1134,-2.2202,-2.307,-2.4537,-2.56,-2.6389,-2.6767,-2.7501,-2.8144,-2.7594,-2.7114,-2.6965,-2.7798,-2.6376,-2.4913,-2.6206,-2.3963,-2.119,-2.0556,-1.8782,-1.6388,-1.345,-1.2614,-1.1513,-0.8494,-0.7856,-0.766,-0.7173,-0.6381,-0.5497,-0.4683,-0.4859,-0.5214,-0.5592,-0.5684,-0.5419,-0.4649,-0.4404,-0.4232,-0.4012,-0.3334,-0.2525,-0.1544,-0.0284,0.0573,0.078,0.1277,0.1484,0.1478,0.2033,0.2391,0.2452,0.3537,0.4021,0.3941,0.4678,0.5159,-0.7274,-0.8427,-0.9576,-1.1197,-1.2106,-1.2705,-1.3238,-1.3676,-1.3908,0.0,0.0,0.0,0.0,0.0,0.0,0.0,0.0,0.0,0.0,0.0,0.0,0.0,0.0,0.0,0.0,0.0,0.0,0.0,0.0,0.0,-1.7684,-1.6953,-1.6818,-1.7557,-1.6744,-1.6068,-1.561,-1.5683,-1.5799,-1.5983,-1.5898,-1.594,-1.612,-1.5953,-1.6022,-1.6223,-1.553,-1.4814,-1.4172,-1.4599,-1.4716,-1.4813,-1.6432,-1.7597,-1.8555,-2.0309,-2.1466,-2.2379,-2.3907,-2.5177,-2.6149,-2.6384,-2.7141,-2.7762,-2.6774,-2.6602,-2.6862,-2.7233,-2.6284,-2.5356,-2.6333,-2.4454,-2.2143,-2.1463,-1.9704,-1.7555,-1.5215,-1.3529,-1.1738,-0.9281,-0.841,-0.7973,-0.7752,-0.6671,-0.573,-0.5346,-0.5529,-0.5749,-0.5905,-0.6153,-0.5905,-0.4908,-0.451,-0.4365,-0.4478,-0.406,-0.3099,-0.1552,-0.0477,0.0301,0.0859,0.1325,0.1549,0.1493,0.2288,0.2631,0.2548,0.341,0.3938,0.4069,0.4681,0.5191,-0.6352,-0.6631,-0.71,-0.8758,-0.9642,-1.0495,-1.2027,0.0,-1.269,0.0,0.0,0.0,0.0,0.0,0.0,0.0,0.0,0.0,0.0,0.0,0.0,0.0,0.0,0.0,0.0,0.0,0.0,0.0,0.0,0.0,-1.6448,-1.5272,-1.5096,-1.6354,-1.4948,-1.4427,-1.5029,-1.5163,-1.5298,-1.5448,-1.5448,-1.5492,-1.5652,-1.5623,-1.5536,-1.5374,-1.5315,-1.4877,-1.4255,-1.489,-1.5121,-1.5093,-1.5314,-1.6359,-1.7658,-1.7776,-1.9479,-2.1826,-2.2637,-2.4195,-2.5793,-2.5608,-2.6205,-2.6805,-2.5842,-2.6224,-2.6934,-2.671,-2.6485,-2.6271,-2.6015,-2.4685,-2.3379,-2.3204,-2.1341,-1.869,-1.5432,-1.2481,-1.0507,-1.0695,-0.9448,-0.8211,-0.7768,-0.5885,-0.4601,-0.5227,-0.6129,-0.6284,-0.503,-0.5718,-0.5905,-0.4908,-0.4492,-0.4475,-0.4919,-0.4539,-0.2944,0.0155,-0.1106,-0.1049,0.1006,0.1429,0.1445,0.1117,0.3559,0.4131,0.2686,0.3566,0.3955,0.3942,0.4591,0.5032,-0.5703,-0.5799,-0.6115,-0.7392,-0.8426,-0.9364,-1.029,-1.1684,-1.2734,0.0,0.0,0.0,0.0,0.0,0.0,0.0,0.0,0.0,0.0,0.0,0.0,0.0,0.0,0.0,0.0,0.0,0.0,0.0,0.0,0.0,-1.5974,-1.5139,-1.5068,-1.5941,-1.4651,-1.401,-1.416,-1.4474,-1.4794,-1.5074,-1.4845,-1.4982,-1.5403,-1.5179,-1.4873,-1.4499,-1.4689,-1.4459,-1.3953,-1.4209,-1.4264,-1.4232,-1.4626,-1.5221,-1.5994,-1.6987,-1.8454,-2.0162,-2.1693,-2.3107,-2.4281,-2.4805,-2.5159,-2.5464,-2.6035,-2.6424,-2.6901,-2.7969,-2.7792,-2.7256,-2.7102,-2.5895,-2.4264,-2.2558,-2.0786,-1.8732,-1.6019,-1.3607,-1.1867,-1.127,-1.0723,-0.9903,-0.8406,-0.6204,-0.471,-0.4934,-0.5467,-0.5655,-0.5189,-0.5246,-0.5189,-0.4838,-0.4678,-0.4426,-0.3898,-0.3483,-0.2689,-0.1241,-0.1493,-0.1312,-0.035,0.0918,0.1542,0.141,0.3239,0.3827,0.3155,0.4063,0.4508,0.4536,0.4862,0.523,-0.512,-0.4961,-0.5127,-0.6345,-0.7117,-0.7919,-0.9319,-1.0696,-1.1656,0.0,0.0,0.0,0.0,0.0,0.0,0.0,0.0,0.0,0.0,0.0,0.0,0.0,0.0,0.0,0.0,0.0,0.0,0.0,0.0,0.0,-1.5268,-1.4602,-1.429,-1.4452,-1.3668,-1.3293,-1.3421,-1.3753,-1.4133,-1.4501,-1.431,-1.442,-1.4763,-1.4592,-1.4353,-1.4054,-1.4067,-1.3929,-1.3718,-1.3896,-1.3918,-1.3854,-1.4269,-1.4515,-1.478,-1.5921,-1.7265,-1.877,-2.0301,-2.168,-2.2883,-2.3745,-2.4122,-2.4436,-2.566,-2.6366,-2.6995,-2.822,-2.8333,-2.7962,-2.7415,-2.6288,-2.4743,-2.2531,-2.0981,-1.9395,-1.7247,-1.4829,-1.2749,-1.1582,-1.1148,-1.0477,-0.8895,-0.7288,-0.6067,-0.5673,-0.5617,-0.5592,-0.5467,-0.5189,-0.4966,-0.4966,-0.487,-0.4521,-0.3876,-0.3144,-0.238,-0.1611,-0.111,-0.0757,-0.0573,0.0839,0.1778,0.2139,0.3105,0.3667,0.3816,0.449,0.487,0.502,0.5188,0.5444,0.0,0.0,0.0,-0.5603,-0.5643,-0.6096,-0.9124,0.0,-0.9333,0.0,0.0,0.0,0.0,0.0,0.0,0.0,0.0,0.0,0.0,0.0,0.0,0.0,0.0,0.0,0.0,0.0,0.0,0.0,0.0,-1.3993,-1.4254,-1.3467,-1.2638,-1.1827,-1.1899,-1.2217,-1.286,-1.3072,-1.3377,-1.3682,-1.3802,-1.3802,-1.3715,-1.3888,-1.4046,-1.413,-1.3507,-1.3314,-1.3547,-1.4029,-1.4163,-1.4,-1.4222,-1.4208,-1.4117,-1.447,-1.5869,-1.7695,-1.841,-1.9987,-2.18,-2.2459,-2.3091,-2.3731,-2.4598,-2.5935,-2.7153,-2.7262,-2.7977,-2.8337,-2.6841,-2.5781,-2.4762,-2.3394,-2.2168,-2.0862,-1.9154,-1.5926,-1.304,-1.1813,-1.0736,-0.9823,-0.9136,-0.9016,-0.8616,-0.7381,-0.6695,-0.6183,-0.5842,-0.5529,-0.534,-0.5347,-0.4998,-0.4846,-0.4966,-0.3573,-0.2075,-0.0605,0.0134,0.0504,0.0571,0.1279,0.215,0.3175,0.3303,0.3784,0.4579,0.4698,0.4969,0.5327,0.5456,0.5703,-0.521,0.0,0.0,0.0,0.0,0.0,-0.7248,-0.7996,-0.8521,0.0,0.0,0.0,0.0,0.0,0.0,0.0,0.0,0.0,0.0,0.0,0.0,0.0,0.0,0.0,0.0,0.0,0.0,0.0,-1.2683,-1.3155,-1.3408,-1.3213,-1.2627,-1.1695,-1.2386,-1.2422,-1.1758,-1.258,-1.3112,-1.3331,-1.3173,-1.3229,-1.3488,-1.3297,-1.3331,-1.3555,-1.3354,-1.3257,-1.3211,-1.3353,-1.3499,-1.3648,-1.3894,-1.3974,-1.3894,-1.4163,-1.5613,-1.7516,-1.7976,-1.9572,-2.1526,-2.208,-2.2391,-2.274,-2.3902,-2.4814,-2.5687,-2.6853,-2.7785,-2.8338,-2.7729,-2.6404,-2.5137,-2.4696,-2.4352,-2.346,-2.1202,-1.8013,-1.5139,-1.3795,-1.2199,-1.084,-1.0079,-0.9922,-0.9319,-0.7464,-0.6885,-0.6529,-0.6222,-0.6284,-0.6284,-0.606,-0.5277,-0.473,-0.4519,-0.3386,-0.2075,-0.0605,-0.0101,0.0837,0.2405,0.3163,0.3331,0.2845,0.2865,0.3193,0.381,0.4168,0.4797,0.5667,0.6135,0.6651,-0.5828,-0.5727,-0.5959,-0.5941,0.0,0.0,-0.6925,-0.7348,-0.7574,0.0,0.0,0.0,0.0,0.0,0.0,0.0,0.0,0.0,0.0,0.0,0.0,0.0,0.0,0.0,0.0,0.0,0.0,0.0,-1.197,-1.2531,-1.2812,-1.2454,-1.2025,-1.1514,-1.1728,-1.1753,-1.1526,-1.1993,-1.2488,-1.3,-1.2838,-1.2826,-1.2975,-1.2814,-1.2779,-1.2906,-1.2906,-1.2836,-1.2742,-1.2864,-1.3133,-1.3521,-1.3561,-1.3578,-1.3677,-1.4067,-1.5319,-1.6875,-1.7524,-1.897,-2.0518,-2.0509,-2.0866,-2.1404,-2.2203,-2.3039,-2.3971,-2.527,-2.6202,-2.6927,-2.7614,-2.6556,-2.5306,-2.5318,-2.4805,-2.4091,-2.3232,-2.0067,-1.6792,-1.4712,-1.2787,-1.1402,-1.1105,-1.0888,-1.0025,-0.7757,-0.7392,-0.7065,-0.6214,-0.6612,-0.6794,-0.6345,-0.5529,-0.4736,-0.4091,-0.2154,-0.0722,-0.0133,0.0269,0.1338,0.334,0.3303,0.2979,0.2424,0.2574,0.3009,0.3761,0.4047,0.4853,0.6048,0.6381,0.694,-0.6603,-0.6398,-0.6569,-0.7012,-0.6521,0.0,-0.7419,-0.7154,-0.6749,0.0,0.0,0.0,0.0,0.0,0.0,0.0,0.0,0.0,0.0,0.0,0.0,0.0,0.0,0.0,0.0,0.0,-1.042,-1.0525,-1.1344,-1.1989,-1.2306,-1.1497,-1.1116,-1.1362,-1.0658,-1.0751,-1.1733,-1.1511,-1.1822,-1.2603,-1.2639,-1.252,-1.2341,-1.2365,-1.2365,-1.2305,-1.2294,-1.2222,-1.2126,-1.2389,-1.2878,-1.3409,-1.3178,-1.324,-1.3468,-1.4072,-1.4935,-1.5924,-1.6995,-1.8165,-1.9067,-1.8417,-1.8957,-1.9866,-1.998,-2.0875,-2.2052,-2.3026,-2.3728,-2.4629,-2.6642,-2.6206,-2.527,-2.5434,-2.4097,-2.3145,-2.4389,-2.1643,-1.8019,-1.4847,-1.2825,-1.1707,-1.194,-1.1603,-1.0444,-0.7989,-0.7812,-0.753,-0.6229,-0.6656,-0.6867,-0.6245,-0.5686,-0.4712,-0.3082,0.0027,0.1604,0.0925,0.1273,0.2206,0.377,0.2569,0.1938,0.2096,0.2592,0.3247,0.4083,0.4293,0.5093,0.6417,0.6414,0.701,0.0,0.0,0.0,0.0,0.0,0.0,-0.6629,-0.6773,-0.691,0.0,0.0,0.0,0.0,0.0,0.0,0.0,0.0,0.0,0.0,0.0,0.0,0.0,0.0,0.0,0.0,0.0,-0.9631,-1.0078,-1.0595,-1.1005,-1.1268,-1.1122,-1.0999,-1.1014,-1.1285,-1.1457,-1.1387,-1.1826,-1.2048,-1.2066,-1.2186,-1.2161,-1.1991,-1.1771,-1.1745,-1.1819,-1.1785,-1.1653,-1.1505,-1.1799,-1.2364,-1.3042,-1.3211,-1.3235,-1.3293,-1.3643,-1.4302,-1.5082,-1.5648,-1.6644,-1.7695,-1.7677,-1.7921,-1.8274,-1.8403,-1.895,-1.9813,-2.1142,-2.1804,-2.2547,-2.4568,-2.4985,-2.4953,-2.5207,-2.3037,-2.0994,-2.1285,-2.0556,-1.8634,-1.4518,-1.309,-1.2287,-1.1452,-1.0506,-0.9229,-0.7269,-0.6794,-0.6936,-0.7647,-0.6996,-0.6214,-0.5561,-0.5624,-0.3661,0.1414,0.375,0.4442,0.3308,0.3769,0.4248,0.4581,0.3165,0.2446,0.2642,0.3796,0.4257,0.4017,0.501,0.5827,0.6497,0.6891,0.7844,0.0,0.0,0.0,-0.8588,0.0,0.0,0.0,-0.7169,-0.6955,-0.679,0.0,0.0,0.0,0.0,0.0,0.0,0.0,0.0,0.0,0.0,0.0,0.0,0.0,0.0,0.0,0.0,-0.9431,-0.9921,-0.9856,-1.0057,-1.0622,-1.0673,-1.0754,-1.0843,-1.1204,-1.1599,-1.2004,-1.2052,-1.2218,-1.2552,-1.2469,-1.2242,-1.1938,-1.1572,-1.1437,-1.1459,-1.1255,-1.118,-1.1201,-1.1292,-1.1725,-1.2256,-1.2385,-1.2754,-1.3253,-1.3766,-1.4362,-1.5042,-1.5734,-1.6382,-1.6906,-1.6564,-1.6759,-1.7036,-1.6624,-1.689,-1.7663,-1.9432,-1.9899,-2.0418,-2.267,-2.2911,-2.2686,-2.2946,-2.1341,-1.9638,-1.9192,-1.9225,-1.8558,-1.5879,-1.4171,-1.2965,-1.2204,-0.954,-0.7186,-0.6289,-0.5884,-0.6463,-0.8579,-0.7753,-0.6876,-0.6535,-0.5634,-0.2581,0.3468,0.4307,0.4616,0.4821,0.5289,0.5742,0.6221,0.4521,0.3341,0.2905,0.4336,0.5111,0.5097,0.5648,0.6304,0.7072,0.7152,0.8254,0.0,0.0,0.0,0.0,0.0,-0.8452,0.0,0.0,0.0,-0.7605,0.0,0.0,0.0,0.0,0.0,0.0,0.0,0.0,0.0,0.0,0.0,0.0,0.0,0.0,0.0,0.0,-0.8987,-0.9433,-0.9012,-0.9091,-0.9959,-1.0217,-1.0454,-1.0769,-1.0902,-1.1428,-1.2379,-1.1961,-1.2124,-1.277,-1.2541,-1.2235,-1.1844,-1.1426,-1.118,-1.1099,-1.0812,-1.0784,-1.0957,-1.0784,-1.095,-1.1286,-1.1452,-1.209,-1.2965,-1.3686,-1.422,-1.4726,-1.5607,-1.5971,-1.5958,-1.5312,-1.5461,-1.577,-1.5091,-1.5048,-1.5629,-1.7387,-1.7757,-1.8092,-2.0365,-2.0364,-1.9891,-2.055,-1.9559,-1.8326,-1.7845,-1.721,-1.6809,-1.7052,-1.557,-1.4053,-1.3376,-0.9025,-0.5633,-0.5595,-0.6329,-0.7733,-1.0147,-0.8617,-0.6455,-0.4235,-0.2454,0.0462,0.5126,0.4784,0.4853,0.6075,0.654,0.7038,0.7627,0.5926,0.4491,0.3509,0.4849,0.574,0.6155,0.6222,0.6787,0.7736,0.7419,0.8536,0.0,0.0,0.0,0.0,-1.0273,0.0,0.0,0.0,-0.7832,-0.6781,0.0,0.0,0.0,0.0,0.0,0.0,0.0,0.0,0.0,0.0,0.0,0.0,0.0,0.0,0.0,0.0,0.0,-0.7888,-0.7842,-0.8125,-0.8929,-0.9662,-1.0255,-1.0688,-1.0783,-1.0933,-1.1168,-1.1239,-1.1271,-1.1253,-1.1389,-1.1405,-1.1265,-1.105,-1.0954,-1.0926,-1.0697,-1.0544,-1.0467,-1.0205,-1.0048,-1.0075,-1.0935,-1.1429,-1.1787,-1.2456,-1.2759,-1.2906,-1.3587,-1.3981,-1.4109,-1.4009,-1.4077,-1.4202,-1.4405,-1.4148,-1.3857,-1.4491,-1.4763,-1.5295,-1.6822,-1.7284,-1.7826,-1.9859,-1.8198,-1.6441,-1.7337,-1.3628,-1.1477,-1.618,-1.6886,-1.6083,-1.4136,-0.9584,-0.6153,-0.5973,-1.0127,-1.3423,-1.3873,-0.924,-0.2002,0.8221,0.912,0.8765,0.823,0.8323,0.8119,0.7453,0.8095,0.8224,0.754,0.672,0.596,0.5241,0.58,0.609,0.6029,0.6839,0.7582,0.8218,0.7983,0.8853,0.0,0.0,0.0,0.0,0.0,0.0,-0.8333,0.0,-0.7827,0.0,0.0,0.0,0.0,0.0,0.0,0.0,0.0,0.0,0.0,0.0,0.0,0.0,0.0,0.0,0.0,0.0,0.0,0.0,0.0,-0.7917,-0.8767,-0.9546,-1.0121,-1.0443,-1.065,-1.1012,-1.1556,-1.1478,-1.1535,-1.1756,-1.1644,-1.1428,-1.1182,-1.0809,-1.0762,-1.0915,-1.0469,-1.0341,-1.0414,-1.0005,-0.9744,-0.9625,-0.9798,-1.0409,-1.1256,-1.1541,-1.1767,-1.2063,-1.2578,-1.2646,-1.2573,-1.2908,-1.2996,-1.301,-1.2771,-1.2411,-1.222,-1.2683,-1.3091,-1.374,-1.511,-1.5676,-1.5176,-1.2451,-1.2204,-1.2712,-1.3323,-1.2436,-1.1572,-1.1618,-1.192,-1.2891,-1.5349,-1.0945,-0.6344,-0.407,-0.0127,0.2552,0.2466,0.215,0.4538,1.1307,1.1533,1.0805,0.9731,1.0035,0.9653,0.8273,0.9053,0.9018,0.7833,0.8577,0.8293,0.6799,0.8157,0.8934,0.9012,0.8581,0.8889,0.9842,0.949,1.0223,-1.1677,0.0,0.0,0.0,0.0,0.0,0.0,0.0,0.0,0.0,0.0,0.0,0.0,0.0,0.0,-0.7752,0.0,0.0,0.0,0.0,0.0,0.0,0.0,0.0,0.0,0.0,0.0,0.0,-0.7047,0.0,-0.8512,-0.933,-0.9946,-1.0391,-1.0525,-1.0911,-1.1622,-1.1327,-1.1348,-1.159,-1.1389,-1.1145,-1.0844,-1.0449,-1.0449,-1.0702,-1.0143,-1.0012,-1.0173,-0.9703,-0.9426,-0.9288,-0.8903,-0.9424,-1.0397,-1.0492,-1.0809,-1.1195,-1.1551,-1.1572,-1.1525,-1.2115,-1.2192,-1.1991,-1.1717,-1.1343,-1.1154,-1.17,-1.2008,-1.2491,-1.4006,-1.386,-1.1943,-0.6431,-0.6903,-0.8599,-0.8663,-0.9882,-0.9877,-0.6289,-0.4777,-0.5235,-0.8942,-0.7772,-0.4805,-0.0326,0.8593,1.4781,1.4729,1.1645,1.0297,1.2473,1.2297,1.1744,1.0975,1.1176,1.0678,0.9188,0.9741,0.9654,0.8622,1.0091,1.0216,0.8704,1.0242,1.1065,1.1126,1.0179,1.0272,1.138,1.0664,1.1025,0.0,0.0,0.0,-1.0176,0.0,0.0,0.0,0.0,-0.8748,0.0,0.0,0.0,0.0,-0.8577,-0.7935,-0.791,-0.7492,0.0,0.0,0.0,0.0,0.0,0.0,0.0,0.0,0.0,0.0,-0.5975,-0.5637,0.0,-0.7929,-0.8732,-0.959,-1.0657,-1.0438,-1.0409,-1.0628,-1.0309,-1.0078,-0.99,-1.0009,-1.0039,-1.0039,-1.0029,-1.0029,-1.0039,-0.9716,-0.9597,-0.9496,-0.9073,-0.892,-0.8871,-0.8545,-0.8578,-0.8815,-0.9207,-0.9589,-0.9982,-1.0277,-1.0628,-1.1128,-1.1777,-1.1659,-1.1311,-1.1779,-1.1483,-1.1113,-1.1547,-1.1375,-1.1436,-1.3185,-1.1249,-0.7955,-0.4475,-0.4104,-0.4412,-0.4156,-0.4466,-0.3866,-0.083,0.3777,0.7676,0.9155,0.2595,-0.0733,0.5563,1.1232,1.4792,1.4801,1.4605,1.4211,1.3531,1.3285,1.2906,1.2293,1.201,1.1454,1.0407,1.0246,1.0146,1.0046,1.0782,1.1176,1.1176,1.1484,1.1441,1.1018,1.1159,1.1642,1.2416,1.0954,1.0749,0.0,0.0,-1.3104,-1.1287,0.0,0.0,0.0,0.0,0.0,0.0,0.0,0.0,0.0,-0.8356,-0.7826,-0.7885,-0.7101,-0.6266,0.0,0.0,0.0,0.0,0.0,0.0,0.0,0.0,0.0,-0.6327,-0.6162,-0.6706,0.0,-0.89,-0.9521,-1.0103,-1.0137,-1.0195,-1.0189,-1.0007,-0.9813,-0.9677,-0.9716,-0.9716,-0.9686,-0.9686,-0.9762,-0.9926,-0.9524,-0.9389,-0.94,-0.8947,-0.8692,-0.8537,-0.8242,-0.8166,-0.8207,-0.853,-0.8735,-0.8937,-0.915,-0.9473,-0.9841,-1.009,-0.9979,-0.9695,-0.9497,-0.9403,-0.9332,-0.9206,-0.9206,-0.9494,-1.0631,-0.7698,-0.4104,-0.3096,-0.3078,-0.3293,-0.3196,-0.3017,-0.2427,-0.0771,0.251,0.6356,1.0406,0.7373,0.6215,1.1605,1.3782,1.4805,1.4795,1.4859,1.4771,1.4467,1.3853,1.3462,1.3436,1.2683,1.201,1.1483,1.1291,1.1164,1.1156,1.1827,1.2197,1.2221,1.279,1.2942,1.2663,1.2777,1.2917,1.3097,1.3123,1.3331,-1.334,-1.3465,0.0,-1.176,-1.1257,0.0,-0.9342,0.0,0.0,0.0,0.0,0.0,0.0,0.0,-0.8066,-0.8203,-0.7223,-0.6323,0.0,-0.5865,0.0,0.0,0.0,0.0,0.0,0.0,-0.5322,-0.6317,-0.6221,-0.6703,0.0,0.0,-0.9363,-0.9834,-1.001,-1.0068,-0.9997,-0.9769,-0.9527,-0.9359,-0.939,-0.9319,-0.9199,-0.9199,-0.9299,-0.9367,-0.9078,-0.8947,-0.8937,-0.8659,-0.8406,-0.8216,-0.804,-0.7954,-0.7914,-0.8047,-0.8084,-0.8037,-0.8338,-0.8468,-0.856,-0.8726,-0.8699,-0.8546,-0.8303,-0.8241,-0.8228,-0.7974,-0.7716,-0.7561,-0.7505,-0.4774,-0.2091,-0.2027,-0.2213,-0.2323,-0.1997,-0.1661,-0.1204,-0.0359,0.2222,0.5613,0.9711,0.9605,1.0363,1.4508,1.4833,1.5046,1.6249,1.5912,1.543,1.5004,1.465,1.4316,1.4093,1.3513,1.2913,1.2297,1.2427,1.2369,1.1968,1.2694,1.3264,1.3557,1.4194,1.4541,1.4492,1.4464,1.4472,1.4495,1.4928,1.5411]},{"header":{"parameterUnit":"m.s-1","parameterCategory":1,"la1":30.6,"la2":29.2853,"lo1":-89.7004,"lo2":-87.6739,"dy":0.0162,"dx":0.0183,"nx":112,"ny":82,"refTime":"2024-05-09T12:00:00:Z","depth":0,"parameterNumber":3,"parameterNumberName":"V-component_of_WINDS"},"data":[0.0,0.0,0.0,0.0,0.0,0.0,0.0,0.0,0.0,0.0,0.0,0.0,0.0,0.0,0.0,0.0,0.0,0.0,0.0,0.0,0.0,0.0,0.0,0.0,0.0,0.0,0.0,0.0,0.0,0.0,0.0,0.0,0.0,0.0,0.0,0.0,0.0,0.0,0.0,0.0,0.0,0.0,0.0,0.0,0.0,0.0,0.0,0.0,0.0,0.0,0.0,0.0,0.0,0.0,0.0,0.0,0.0,0.0,0.0,0.0,0.0,0.0,0.0,0.0,0.0,0.0,0.0,0.0,0.0,0.0,0.0,0.0,0.0,0.0,0.0,0.0,0.0,0.0,0.0,0.0,0.0,0.0,0.0,0.0,0.0,0.0,0.0,0.0,0.0,0.0,0.0902,0.0904,0.1463,0.1825,0.197,0.1928,0.2102,0.2541,0.0,0.0,0.0,0.0,0.0,0.0,0.0,0.0,0.0,0.0,0.0,0.0,0.0,0.0,0.0,0.0,0.0,0.0,0.0,0.0,0.0,0.0,0.0,0.0,0.0,0.0,0.0,0.0,0.0,0.0,0.0,0.0,0.0,0.0,0.0,0.0,0.0,0.0,0.0,0.0,0.0,0.0,0.0,0.0,0.0,0.0,0.0,0.0,0.0,0.0,0.0,0.0,0.0,0.0,0.0,0.0,0.0,0.0,0.0,0.0,0.0,0.0,0.0,0.0,0.0,0.0,0.0,0.0,0.0,0.0,0.0,0.0,0.0,0.0,0.0,0.0,0.0,0.0,0.0,0.0,0.0,0.0,0.0,0.0,0.0,0.0,0.0,0.0,0.0,0.0,0.0,0.0,0.0,0.0,0.0,0.0,0.0,0.0,0.0,0.0,0.0,0.0,0.0,0.0,0.0056,0.0069,0.0844,0.1202,0.0868,0.086,0.1234,0.2032,0.0,0.0,0.0,0.0,0.0,0.0,0.0,0.0,0.0,0.0,0.0,0.0,0.0,0.0,0.0,0.0,0.0,0.0,0.0,0.0,0.0,0.0,0.0,0.0,0.0,0.0,0.0,0.0,0.0,0.0,0.0,0.0,0.0,0.0,0.0,0.0,0.0,0.0,0.0,0.0,0.0,0.0,0.0,0.0,0.0,0.0,0.0,0.0,0.0,0.0,0.0,0.0,0.0,0.0,0.0,0.0,0.0,0.0,0.0,0.0,0.0,0.0,0.0,0.0,0.0,0.0,0.0,0.0,0.0,0.0,0.0,0.0,0.0,0.0,0.0,0.0,0.0,0.0,0.0,0.0,0.0,0.0,0.0,0.0,0.0,0.0,0.0,0.0,0.0,0.0,0.0,0.0,0.0,0.0,0.0,0.0,0.0,0.0,0.0,0.0,0.0,0.0,0.0,-0.0638,-0.1208,-0.0914,-0.0429,-0.0,0.0,-0.0131,0.0117,0.0813,0.1162,0.0,0.0,0.0,0.0,0.0,0.0,0.0,0.0,0.0,0.0,0.0,0.0,0.0,0.0,0.0,0.0,0.0,0.0,0.0,0.0,0.0,0.0,0.0,0.0,0.0,0.0,0.0,0.0,0.0,0.0,0.0,0.0,0.0,0.0,0.0,0.0,0.0,0.0,0.0,0.0,0.0,0.0,0.0,0.0,0.0,0.0,0.0,0.0,0.0,0.0,0.0,0.0,0.0,0.0,0.0,0.0,0.0,0.0,0.0,0.0,0.0,0.0,0.0,0.0,0.0,0.0,0.0,0.0,0.0,0.0,0.0,0.0,0.0,0.0,0.0,0.0,0.0,0.0,0.0,0.0,0.0,0.0,0.0,0.0,0.0,0.0,0.0,0.0,0.0,0.0,0.0,0.0,0.0,0.0,0.0,0.0,0.0,0.0,0.0,0.0,0.0,0.0,-0.1981,-0.2361,-0.2036,-0.1513,-0.1084,-0.0849,-0.0837,-0.0631,-0.0,0.024,0.0,0.0,0.0,0.0,0.0,0.0,0.0,0.0,0.0,0.0,0.0,0.0,0.0,0.0,0.0,0.0,0.0,0.0,0.0,0.0,0.0,0.0,0.0,0.0,0.0,0.0,0.0,0.0,0.0,0.0,0.0,0.0,0.0,0.0,0.0,0.0,0.0,0.0,0.0,0.0,0.0,0.0,0.0,0.0,0.0,0.0,0.0,0.0,0.0,0.0,0.0,0.0,0.0,0.0,0.0,0.0,0.0,0.0,0.0,0.0,0.0,0.0,0.0,0.0,0.0,0.0,0.0,0.0,0.0,0.0,0.0,0.0,0.0,0.0,0.0,0.0,0.0,0.0,0.0,0.0,0.0,0.0,0.0,0.0,0.0,0.0,0.0,0.0,0.0,0.0,0.0,0.0,0.0,0.0,0.0,0.0,0.0,0.0,0.0,0.0,0.0,0.0,-0.2901,-0.3164,-0.3116,-0.2112,-0.1529,-0.1669,-0.094,-0.0216,0.0337,0.0392,0.0,0.0,0.0,0.0,0.0,0.0,0.0,0.0,0.0,0.0,0.0,0.0,0.0,0.0,0.0,0.0,0.0,0.0,0.0,0.0,0.0,0.0,0.0,0.0,0.0,0.0,0.0,0.0,0.0,0.0,0.0,0.0,0.0,0.0,0.0,0.0,0.0,0.0,0.0,0.0,0.0,0.0,0.0,0.0,0.0,0.0,0.0,0.0,0.0,0.0,0.0,0.0,0.0,0.0,0.0,0.0,0.0,0.0,0.0,0.0,0.0,0.0,0.0,0.0,0.0,0.0,0.0,0.0,0.0,0.0,0.0,0.0,0.0,0.0,0.0,0.0,0.0,0.0,0.0,0.0,0.0,0.0,0.0,0.0,0.0,0.0,0.0,0.0,0.0,0.0,0.0,0.0,0.0,0.0,0.0,0.0,0.0,0.0,0.0,0.0,0.0,0.0,-0.3007,-0.3168,0.0,-0.2253,-0.1895,-0.2101,-0.16,-0.1087,-0.0648,0.0,0.0,0.0,0.0,0.0,0.0,0.0,0.0,0.0,0.0,0.0,0.0,0.0,0.0,0.0,0.0,0.0,0.0,0.0,0.0,0.0,0.0,0.0,0.0,0.0,0.0,0.0,0.0,0.0,0.0,0.0,0.0,0.0,0.0,0.0,0.0,0.0,0.0,0.0,0.0,0.0,0.0,0.0,0.0,0.0,0.0,0.0,0.0,0.0,0.0,0.0,0.0,0.0,0.0,0.0,0.0,0.0,0.0,0.0,0.0,0.0,0.0,0.0,0.0,0.0,0.0,0.0,0.0,0.0,0.0,0.0,0.0,0.0,0.0,0.0,0.0,0.0,0.0,0.0,0.0,0.0,0.0,0.0,0.0,0.0,0.0,0.0,0.0,0.0,0.0,0.0,0.0,0.0,0.0,0.0,0.0,0.0,0.0,0.0,0.0,0.0,0.0,-0.2614,-0.3128,-0.3407,0.0,-0.2515,-0.2301,-0.2528,-0.2182,-0.1713,-0.1223,0.0,0.0,0.0,0.0,0.0,0.0,0.0,0.0,0.0,0.0,0.0,0.0,0.0,0.0,0.0,0.0,0.0,0.0,0.0,0.0,0.0,0.0,0.0,0.0,0.0,0.0,0.0,0.0,0.0,0.0,0.0,0.0,0.0,0.0,0.0,0.0,0.0,0.0,0.0,0.0,0.0,0.0,0.0,0.0,0.0,0.0,0.0,0.0,0.0,0.0,0.0,0.0,0.0,0.0,0.0,0.0,0.0,0.0,0.0,0.0,0.0,0.0,0.0,0.0,0.0,0.0,0.0,0.0,0.0,0.0,0.0,0.0,0.0,0.0,0.0,0.0,0.0,0.0,0.0,0.0,0.0,0.0,0.0,0.0,0.0,0.0,0.0,0.0,0.0,0.0,0.0,0.0,0.0,0.0,0.0,0.0,0.0,0.0,0.0,0.0,0.0,0.0,-0.2832,-0.3543,-0.3926,-0.3422,-0.3017,-0.2887,-0.3085,-0.2511,-0.1885,0.0,0.0,0.0,0.0,0.0,0.0,0.0,0.0,0.0,0.0,0.0,0.0,0.0,0.0,0.0,0.0,0.0,0.0,0.0,0.0,0.0,0.0,0.0,0.0,0.0,0.0,0.0,0.0,0.0,0.0,0.0,0.0,0.0,0.0,0.0,0.0,0.0,0.0,0.0,0.0,0.0,0.0,0.0,0.0,0.0,0.0,0.0,0.0,0.0,0.0,0.0,0.0,0.0,0.0,0.0,0.0,0.0,0.0,0.0,0.0,0.0,0.0,0.0,0.0,0.0,0.0,0.0,0.0,0.0,0.0,0.0,0.0,0.0,0.0,0.0,0.0,0.0,0.0,0.0,0.0,0.0,0.0,0.0,0.0,0.0,0.0,0.0,0.0,0.0,0.0,0.0,0.0,0.0,0.0,0.0,0.0,0.0,0.0,0.0,0.0,0.0,0.0,0.0,-0.2955,-0.3642,-0.3862,-0.3181,-0.3016,-0.284,-0.2511,-0.2155,-0.1629,-0.0957,0.0,0.0,0.0,0.0,0.0,0.0,0.0,0.0,0.0,0.0,0.0,0.0,0.0,0.0,0.0,0.0,0.0,0.0,0.0,0.0,0.0,0.0,0.0,0.0,0.0,0.0,0.0,0.0,0.0,0.0,0.0,0.0,0.0,0.0,0.0,0.0,0.0,0.0,0.0,0.0,0.0,0.0,0.0,0.0,0.0,0.0,0.0,0.0,0.0,0.0,0.0,0.0,0.0,0.0,0.0,0.0,0.0,0.0,0.0,0.0,0.0,0.0,0.0,0.0,0.0,0.0,0.0,0.0,0.0,0.0,0.0,0.0,0.0,0.0,0.0,0.0,0.0,0.0,0.0,0.0,0.0,0.0,0.0,0.0,0.0,0.0,0.0,0.0,0.0,0.0,0.0,0.0,0.0,0.0,0.0,0.0,0.0,0.0,0.0,0.0,0.0,0.0,-0.2798,-0.3524,-0.3713,-0.2871,-0.2795,-0.2673,-0.2328,-0.1827,-0.1359,-0.0885,0.0,0.0,0.0,0.0,0.0,0.0,0.0,0.0,0.0,0.0,0.0,0.0,0.0,0.0,0.0,0.0,0.0,0.0,0.0,0.0,0.0,0.0,0.0,0.0,0.0,0.0,0.0,0.0,0.0,0.0,0.0,0.0,0.0,0.0,0.0,0.0,0.0,0.0,0.0,0.0,0.0,0.0,0.0,0.0,0.0,0.0,0.0,0.0,0.0,0.0,0.0,0.0,0.0,0.0,0.0,0.0,0.0,0.0,0.0,0.0,0.0,0.0,0.0,0.0,0.0,0.0,0.0,0.0,0.0,0.0,0.0,0.0,0.0,0.0,0.0,0.0,0.0,0.0,0.0,0.0,0.0,0.0,0.0,0.0,0.0,0.0,0.0,0.0,0.0,0.0,0.0,0.0,0.0,0.0,0.0,0.0,0.0,0.0,0.0,0.0,0.0,0.0,-0.2554,-0.3411,-0.3713,-0.2736,-0.2621,-0.2576,-0.25,-0.179,-0.1178,-0.0858,0.0,0.0,0.0,0.0,0.0,0.0,0.0,0.0,0.0,0.0,0.0,0.0,0.0,0.0,0.0,0.0,0.0,0.0,0.0,0.0,0.0,0.0,0.0,0.0,0.0,0.0,0.0,0.0,0.0,0.0,0.0,0.0,0.0,0.0,0.0,0.0,0.0,0.0,0.0,0.0,0.0,0.0,0.0,0.0,0.0,0.0,0.0,0.0,0.0,0.0,0.0,0.0,0.0,0.0,0.0,0.0,0.0,0.0,0.0,0.0,-1.277,0.0,0.0,0.0,0.0,0.0,0.0,0.0,0.0,0.0,0.0,0.0,0.0,0.0,0.0,0.0,0.0,0.0,0.0,0.0,0.0,0.0,0.0,0.0,0.0,0.0,0.0,0.0,0.0,0.0,0.0,0.0,0.0,0.0,0.0,0.0,0.0,0.0,0.0,0.0,0.0,0.0,-0.3629,-0.4213,-0.435,-0.3602,-0.3538,-0.3257,-0.2558,-0.2258,-0.162,-0.059,0.0121,0.0,0.0,0.0,0.0,0.0,0.0,0.0,0.0,0.0,0.0,0.0,0.0,0.0,0.0,0.0,0.0,0.0,0.0,0.0,0.0,0.0,0.0,0.0,0.0,0.0,0.0,0.0,0.0,0.0,0.0,0.0,0.0,0.0,0.0,0.0,0.0,0.0,0.0,0.0,0.0,0.0,0.0,0.0,0.0,0.0,0.0,0.0,0.0,0.0,0.0,0.0,0.0,0.0,0.0,0.0,0.0,0.0,0.0,0.0,0.0,-1.5541,0.0,0.0,0.0,0.0,0.0,0.0,0.0,0.0,0.0,0.0,0.0,0.0,0.0,0.0,0.0,0.0,0.0,0.0,0.0,0.0,0.0,0.0,0.0,0.0,0.0,0.0,0.0,0.0,0.0,0.0,0.0,0.0,0.0,0.0,0.0,0.0,0.0,0.0,0.0,0.0,-0.382,-0.4092,-0.3922,-0.3011,-0.2828,-0.2455,-0.1628,-0.1443,-0.0965,-0.0048,0.0216,0.0,0.0,0.0,0.0,0.0,0.0,0.0,0.0,0.0,0.0,0.0,0.0,0.0,0.0,0.0,0.0,0.0,0.0,0.0,0.0,0.0,0.0,0.0,0.0,0.0,0.0,0.0,0.0,0.0,0.0,0.0,0.0,0.0,0.0,0.0,0.0,0.0,0.0,0.0,0.0,0.0,0.0,0.0,0.0,0.0,0.0,0.0,0.0,0.0,0.0,0.0,0.0,0.0,0.0,-1.8456,-1.9388,-2.0728,-2.1784,-2.2498,-2.0386,-1.949,-1.9316,0.0,0.0,0.0,0.0,0.0,0.0,0.0,0.0,0.0,0.0,0.0,0.0,0.0,0.0,0.0,0.0,0.0,0.0,0.0,0.0,0.0,0.0,0.0,0.0,0.0,-1.4134,-1.3668,0.0,0.0,0.0,0.0,0.0,0.0,0.0,0.0,0.0,0.0,0.0,0.0,-0.3909,-0.3762,-0.3323,-0.2326,-0.1977,-0.1531,-0.0939,-0.0668,-0.0265,0.0357,0.0183,0.0248,0.0,0.0,0.0,0.0,0.0,0.0,0.0,0.0,0.0,0.0,0.0,0.0,0.0,0.0,0.0,0.0,0.0,0.0,0.0,0.0,0.0,0.0,0.0,0.0,0.0,0.0,0.0,0.0,0.0,0.0,0.0,0.0,-0.627,-0.7011,0.0,0.0,0.0,0.0,0.0,0.0,0.0,0.0,0.0,0.0,0.0,0.0,0.0,0.0,-1.6068,-1.845,-2.0071,-2.0958,-2.2597,-2.3822,-2.4682,-2.4905,-2.5447,-2.6197,-2.5861,0.0,-2.2164,-1.9561,0.0,0.0,0.0,0.0,0.0,0.0,0.0,0.0,0.0,0.0,0.0,0.0,0.0,0.0,0.0,0.0,0.0,0.0,0.0,0.0,0.0,0.0,-1.7581,-1.651,-1.6455,-1.6308,0.0,-1.2003,-0.956,-0.8979,0.0,0.0,0.0,0.0,0.0,0.0,0.0,0.0,-0.4915,-0.432,-0.3679,-0.3243,-0.2513,-0.2059,-0.2058,-0.1479,-0.0769,0.0,0.0147,0.0321,0.07,0.0632,0.0,0.0,0.0,0.0,0.0,0.0,0.0,0.0,0.0,0.0,0.0,0.0,0.0,0.0,0.0,0.0,0.0,0.0,0.0,0.0,0.0,0.0,0.0,0.0,0.0,0.0,0.0,0.0,0.0,-0.6587,-0.6532,-0.6673,-0.6214,-0.5513,0.0,0.0,0.0,0.0,0.0,0.0,0.0,0.0,0.0,-1.637,-1.7565,-1.8912,-2.0454,-2.2216,-2.33,-2.3724,-2.5059,-2.6166,-2.7077,-2.7597,-2.8557,-2.9822,-2.9827,-2.9158,-2.7779,-2.4198,-2.1721,-1.9999,0.0,0.0,0.0,0.0,0.0,0.0,-2.0923,0.0,0.0,0.0,0.0,0.0,0.0,0.0,0.0,0.0,0.0,0.0,0.0,0.0,0.0,-1.8993,-1.8724,-1.8209,-1.705,-1.5165,-1.3033,0.0,-1.0108,-0.9282,-0.7705,0.0,0.0,0.0,0.0,0.0,-0.5075,-0.4497,-0.392,-0.3553,-0.2926,-0.245,-0.2177,-0.1752,-0.1169,-0.0274,0.0313,0.0599,0.0528,0.0813,0.1104,0.0,0.0,0.0,0.0,0.0,0.0,0.0,0.0,0.0,0.0,0.0,0.0,0.0,0.0,0.0,0.0,0.0,0.0,0.0,0.0,0.0,0.0,0.0,0.0,0.0,0.0,0.0,0.0,-0.7598,-0.7174,-0.6149,-0.7001,-0.7418,0.0,0.0,0.0,0.0,0.0,0.0,-1.261,-1.3666,-1.5868,-1.9508,-2.0596,-2.2107,-2.4104,-2.4967,-2.5554,-2.5925,-2.6737,-2.7639,-2.8649,-2.9606,-3.0632,-3.1679,-3.1932,-3.1928,-3.1466,-2.8028,-2.5702,-2.4159,-2.2484,-2.1429,0.0,-2.2358,-2.2794,-2.3062,-2.557,-2.6733,-2.6897,-2.5541,0.0,-2.3974,-2.179,0.0,0.0,0.0,0.0,-2.0702,-2.0803,0.0,-2.059,-2.0692,-2.0216,-1.94,-1.8316,-1.7135,-1.5482,0.0,-1.1948,-1.1135,-0.8711,0.0,0.0,0.0,0.0,-0.5907,-0.5549,-0.4801,-0.4155,-0.3851,-0.3295,-0.2723,-0.2077,-0.1998,-0.1603,-0.0719,0.0106,0.0562,0.0547,0.0933,0.1154,0.1139,0.0,0.0,0.0,0.0,0.0,0.0,0.0,0.0,0.0,0.0,0.0,0.0,0.0,0.0,0.0,0.0,0.0,0.0,0.0,0.0,0.0,0.0,0.0,0.0,0.0,0.0,0.0,0.0,0.0,-0.6305,-0.8096,0.0,0.0,0.0,0.0,-1.0325,-1.1745,-1.3461,-1.5562,-1.7356,-1.9551,-2.2322,-2.2881,-2.3989,-2.5762,-2.6005,-2.6725,-2.7867,-2.8172,-2.8917,-3.0037,-3.1042,-3.1132,-3.0531,-3.1495,-3.1484,-3.0699,-2.9712,-2.8769,-2.7771,-2.6083,-2.5371,-2.5387,-2.621,-2.6409,-2.6369,-2.7312,-2.7922,-2.8291,-2.8128,-2.7126,-2.5894,-2.544,-2.4319,0.0,0.0,-2.2654,-2.2524,-2.1445,-2.1903,-2.2342,-2.0994,-2.0359,-1.977,-1.8721,-1.6943,-1.5207,0.0,-1.3145,-1.2166,-1.0685,0.0,-0.9293,-0.8128,-0.7517,-0.714,-0.6956,-0.5506,-0.4477,-0.4442,-0.3629,-0.284,-0.2245,-0.2282,-0.208,-0.1389,-0.0699,0.0048,0.0955,0.0689,0.0966,0.1838,0.1367,0.0,0.0,0.0,0.0,0.0,0.0,0.0,0.0,0.0,0.0,0.0,0.0,0.0,0.0,0.0,0.0,0.0,0.0,0.0,0.0,0.0,0.0,0.0,0.0,0.0,0.0,0.0,0.0,-0.8248,-0.9699,0.0,-1.0513,-1.08,-1.136,-1.2251,-1.3503,-1.48,-1.6081,-1.8065,-1.9986,-2.1765,-2.2656,-2.3835,-2.5365,-2.5754,-2.6518,-2.7679,-2.8091,-2.897,-3.026,-3.082,-3.1345,-3.1842,-3.2325,-3.243,-3.2182,-3.1379,-2.9915,-2.8131,-2.7546,-2.6617,-2.5697,-2.6443,-2.6722,-2.6869,-2.8123,-2.8586,-2.8681,-2.882,-2.8436,-2.7729,-2.6777,-2.5975,-2.5242,-2.4447,-2.4242,-2.4104,-2.3562,-2.3533,-2.3499,-2.2998,-2.2157,-2.1155,-2.0121,-1.9022,-1.7613,-1.5333,-1.4307,-1.3352,-1.1715,-1.1333,-1.073,-0.9044,-0.8232,-0.7706,-0.7383,-0.622,-0.5286,-0.49,-0.4241,-0.3674,-0.3256,-0.2655,-0.2053,-0.1646,-0.0539,0.0372,0.0925,0.1257,0.158,0.1846,0.1666,0.1639,0.0,0.0,0.0,0.0,0.0,0.0,0.0,0.0,0.0,0.0,0.0,0.0,0.0,0.0,0.0,0.0,0.0,0.0,0.0,0.0,0.0,0.0,0.0,0.0,0.0,0.0,-0.8639,-0.9254,-1.0631,-1.1602,-1.1896,-1.2492,-1.3129,-1.3876,-1.5108,-1.617,-1.6968,-1.8808,-2.0376,-2.1492,-2.2341,-2.3431,-2.4771,-2.523,-2.5968,-2.6981,-2.7437,-2.8258,-2.9406,-3.007,-3.0749,-3.1446,-3.2011,-3.2046,-3.1651,-3.1164,-2.9676,-2.7754,-2.8389,-2.7747,-2.6509,-2.7012,-2.7205,-2.7373,-2.8591,-2.9065,-2.9197,-2.9289,-2.9193,-2.8838,-2.7888,-2.7335,-2.6863,-2.6149,-2.5757,-2.5396,-2.489,-2.47,-2.4531,-2.4008,-2.3156,-2.2186,-2.1069,-2.0051,-1.8759,-1.672,-1.5436,-1.4116,-1.2282,-1.2018,-1.1486,-0.9838,-0.8991,-0.8406,-0.8038,-0.6786,-0.5863,-0.5502,-0.48,-0.4151,-0.3705,-0.2895,-0.218,-0.1746,-0.0484,0.0366,0.0834,0.1408,0.173,0.1806,0.1775,0.1725,0.1642,0.0,0.0,0.0,0.0,0.0,0.0,0.0,0.0,0.0,0.0,0.0,0.0,0.0,0.0,0.0,0.0,0.0,0.0,0.0,0.0,0.0,0.0,0.0,-0.7158,-0.8159,-0.8977,-0.9249,-1.0886,-1.1895,-1.173,-1.2974,-1.4193,-1.5144,-1.6462,-1.7549,-1.8329,-1.9697,-2.0883,-2.17,-2.2142,-2.293,-2.4153,-2.457,-2.5109,-2.5834,-2.6303,-2.6908,-2.7595,-2.8846,-2.9295,-2.9147,-3.0394,-3.0156,-2.8883,-2.904,-2.8145,-2.6862,-2.8705,-2.8834,-2.8031,-2.8082,-2.8074,-2.8089,-2.8786,-2.9407,-2.9869,-2.9639,-2.9419,-2.9169,-2.8847,-2.8391,-2.7974,-2.7833,-2.7217,-2.637,-2.5296,-2.5368,-2.5324,-2.3834,-2.3255,-2.2671,-2.1439,-1.979,-1.8443,-1.7975,-1.6421,-1.4563,-1.2529,-1.2122,-1.1701,-1.0561,-0.9854,0.0,-0.8983,-0.7264,-0.6133,-0.6194,-0.5251,-0.4289,-0.3485,-0.3049,-0.2458,-0.1755,-0.0769,0.0046,0.0664,0.0967,0.1329,0.1792,0.1724,0.1651,0.1498,0.0,0.0,0.0,0.0,0.0,0.0,0.0,0.0,0.0,0.0,0.0,0.0,0.0,0.0,0.0,0.0,0.0,0.0,0.0,0.0,0.0,-0.5999,-0.7015,-0.7634,-0.9056,-1.0322,-1.1089,-1.2468,-1.3493,-1.3958,-1.4974,-1.5642,-1.5837,-1.7132,-1.781,-1.7489,-1.9266,-2.0274,-2.0221,-2.1262,-2.2189,-2.2875,-2.3405,-2.393,-2.4465,-2.508,-2.5737,-2.6455,-2.7272,-2.788,-2.8327,-2.9071,-2.8986,-2.8341,-2.8622,-2.7816,-2.6493,-2.7259,-2.7025,-2.628,-2.6308,-2.7069,-2.8197,-2.9009,-2.9657,-2.9994,-2.927,-2.9298,-2.9457,-2.8433,-2.8033,-2.7871,-2.7597,-2.713,-2.6597,-2.6023,-2.5642,-2.5392,-2.5253,-2.4146,-2.3026,-2.2571,-2.1527,-2.0162,-1.8522,-1.7517,-1.6464,-1.4879,-1.3998,-1.316,-1.2059,0.0,0.0,-0.9438,-0.7819,-0.6511,-0.6173,-0.5277,-0.4374,-0.3658,-0.3012,-0.2433,-0.197,-0.091,-0.0045,0.0682,0.1107,0.1499,0.1925,0.1781,0.1696,0.0,0.0,0.0,0.0,0.0,0.0,0.0,0.0,0.0,0.0,0.0,0.0,0.0,0.0,0.0,0.0,0.0,0.0,0.0,0.0,0.0,0.0,-0.6587,-0.7692,-0.8507,-0.9787,-1.1019,-1.1912,-1.3007,-1.3971,-1.4755,-1.5344,-1.58,-1.5981,-1.7057,-1.7606,-1.7234,-1.9045,-1.9948,-1.9588,-2.0622,-2.1396,-2.1827,-2.2282,-2.277,-2.3304,-2.3975,-2.4657,-2.5347,-2.6007,-2.6565,0.0,-2.7565,-2.7419,-2.6856,-2.7153,-2.6628,0.0,0.0,0.0,0.0,0.0,-2.6995,-2.8226,-2.9077,-2.9745,-3.0157,-2.9634,-2.9398,-2.9231,-2.8819,-2.8293,-2.7837,-2.8027,-2.7727,-2.7333,-2.7038,-2.655,-2.6149,-2.5966,-2.4799,-2.3631,-2.3428,-2.2316,-2.1015,-1.9645,0.0,0.0,-1.6588,-1.5189,-1.3864,-1.2647,-1.1353,-1.0275,0.0,-0.8253,-0.7045,-0.6621,-0.5615,-0.4696,-0.3954,-0.3259,0.0,0.0,0.0,-0.0292,0.0519,0.0841,0.0,0.0,0.0,0.1703,0.0,0.0,0.0,0.0,0.2424,0.2763,0.0,0.0,0.0,0.0,0.0,0.0,0.0,0.0,0.0,0.0,0.0,0.0,0.0,0.0,0.0,0.0,-0.7191,-0.8399,-0.9298,-1.0288,-1.1193,-1.2041,-1.2799,-1.3668,-1.4528,-1.4812,-1.5164,-1.5858,-1.6729,-1.7267,-1.7447,0.0,0.0,0.0,0.0,-2.0667,-2.0899,-2.1369,-2.1874,-2.2466,-2.3054,-2.3651,-2.4307,-2.5028,-2.536,-2.5404,-2.6016,-2.578,-2.4987,-2.5237,-2.511,-2.4912,-2.6078,-2.6118,-2.5634,-2.6724,-2.7547,0.0,0.0,0.0,0.0,-3.029,-2.9538,-2.8783,-2.9478,-2.8801,-2.7954,-2.8802,-2.867,-2.8255,-2.8101,-2.7777,-2.723,-2.6332,-2.5239,-2.4351,-2.4004,-2.2643,-2.1394,-2.0935,-1.9761,-1.8555,-1.7655,-1.5873,-1.4129,-1.2741,-1.183,0.0,-0.9881,-0.8589,-0.7576,-0.7135,0.0,0.0,-0.4206,-0.356,-0.3129,-0.2911,-0.1702,-0.055,0.0563,0.0463,0.0725,0.1351,0.1661,0.1679,0.149,0.1657,0.1868,0.2112,0.2717,0.3291,0.0,0.0,0.0,0.0,0.0,0.0,0.0,0.0,0.0,0.0,0.0,0.0,0.0,0.0,0.0,-0.5042,-0.6635,-0.8007,-0.8391,-0.9807,-1.1039,-1.1573,-1.223,-1.3075,-1.4049,-1.465,-1.5428,-1.6512,-1.7376,-1.7836,-1.7893,-1.8709,0.0,-1.8742,-1.9499,-2.0101,-2.0422,-2.1227,-2.1746,-2.2123,0.0,0.0,-2.3608,-2.4307,-2.4614,-2.4652,-2.5261,-2.5016,-2.4249,-2.4669,-2.4781,-2.4774,-2.5409,-2.5582,-2.5701,-2.7368,-2.8065,-2.8408,-2.9971,-3.0492,-3.0374,-2.9776,-2.9293,-2.8945,-2.8973,-2.8742,0.0,-2.9074,-2.8997,-2.8718,-2.8525,-2.8146,-2.763,-2.6891,-2.561,-2.4503,-2.4219,-2.343,-2.2507,-2.1342,-2.0383,-1.9411,-1.8321,-1.6492,-1.4731,-1.3456,-1.2178,-1.0966,-0.9737,-0.8629,-0.7509,-0.6387,-0.5738,-0.4968,-0.3953,-0.3556,-0.3301,-0.3064,-0.1483,0.0177,0.1767,0.0985,0.09,0.1831,0.1804,0.1828,0.1965,0.2155,0.2449,0.2772,0.2539,0.2724,0.0,0.0,0.0,0.0,0.0,0.0,0.0,0.0,0.0,0.0,0.0,-0.3527,-0.3344,0.0,-0.5264,-0.5618,-0.6947,-0.8017,-0.8215,-0.9469,-1.0584,-1.1271,-1.2397,-1.3325,-1.397,-1.4699,-1.5342,-1.5833,-1.6799,-1.7302,-1.7032,-1.8434,-1.8933,-1.8401,-1.914,-1.9642,-1.9786,-2.0433,-2.0906,-2.1299,-2.1969,-2.2434,-2.283,-2.3507,-2.3759,-2.3683,-2.4317,-2.4315,-2.3942,-2.4445,-2.4823,-2.5067,-2.5172,-2.5343,-2.5762,-2.7503,-2.8151,-2.8398,-3.0156,-3.0682,-3.055,-3.0178,-2.9338,-2.856,-2.8909,-2.8581,-2.8316,-2.9393,-2.9336,-2.8897,-2.8694,-2.8237,-2.773,-2.7227,-2.5933,-2.4863,-2.4853,-2.3825,-2.2702,-2.2058,-2.1015,-1.9876,-1.8898,-1.7279,-1.5634,-1.4063,-1.2712,-1.1465,-1.0314,-0.9062,-0.7927,-0.7095,-0.6077,-0.5178,-0.4401,-0.3682,-0.3027,-0.2369,-0.1474,-0.0685,-0.0,0.0858,0.1187,0.0831,0.1029,0.1234,0.1448,0.167,0.195,0.2284,0.2222,0.2643,0.0,0.0,0.0,0.0,0.0,0.0,0.0,-0.1959,-0.2012,-0.2563,-0.3336,-0.3948,-0.4057,-0.4884,-0.5682,-0.6157,-0.7199,-0.7976,-0.8085,-0.9065,-1.0018,-1.0738,-1.2201,-1.3379,-1.3871,-1.4549,-1.4936,-1.5028,-1.6132,-1.6671,-1.6429,-1.8145,-1.8893,-1.839,-1.8951,-1.9302,-1.9351,-1.9664,-2.0083,-2.061,-2.1191,-2.1635,-2.2044,-2.2694,-2.2906,-2.2712,-2.3366,-2.3694,-2.3833,-2.4348,-2.4883,-2.5352,-2.5239,-2.5466,-2.6022,-2.7516,-2.8189,-2.8576,-3.0133,-3.0702,-3.0696,-3.0517,-2.9458,-2.8388,-2.9021,-2.8604,-2.8218,-2.9699,-2.968,-2.9123,-2.88,-2.8314,-2.7823,-2.7409,-2.6347,-2.5444,-2.5484,-2.4155,-2.2909,-2.2728,-2.1595,-2.032,-1.9359,-1.807,-1.656,-1.461,-1.3339,-1.2112,-1.0945,-0.9631,-0.8549,-0.7962,-0.6662,-0.5484,-0.4694,-0.3828,-0.2822,-0.1816,-0.1579,-0.1626,-0.1824,0.0509,0.1207,-0.0065,0.0327,0.0662,0.0806,0.1082,0.1352,0.1681,0.2018,0.2624,0.0064,0.0281,0.0107,0.0029,-0.0534,-0.1004,0.0,-0.2033,-0.3372,-0.31,-0.4111,-0.4898,-0.4504,-0.4949,-0.532,-0.5348,-0.6408,-0.7253,-0.737,-0.8415,-0.9282,-0.9487,-1.0532,-1.1743,-1.3159,-1.3506,-1.4132,-1.5434,-1.6339,-1.7023,-1.7596,-1.8017,-1.8357,-1.8672,-1.9032,-1.9302,-1.9484,-1.9436,-1.9853,-2.061,-2.0329,-2.0596,-2.1313,-2.203,-2.2183,-2.1974,-2.2494,-2.3119,-2.3753,-2.4224,-2.4739,-2.5273,-2.5798,-2.6265,-2.6782,-2.7682,-2.8547,-2.9372,-3.0302,-3.0699,-3.0644,-2.981,-2.9402,-2.9244,-2.9288,-2.911,-2.9121,-3.0011,-3.0104,-2.9715,-2.8989,-2.859,-2.8228,-2.7495,-2.695,-2.6421,-2.5672,-2.4808,-2.3884,-2.2905,-2.2002,-2.1055,-1.9747,-1.865,-1.717,-1.5119,-1.3999,-1.2749,-1.1037,-1.0249,-0.925,-0.7647,-0.6929,-0.5881,-0.4228,-0.3758,-0.3157,-0.222,-0.1542,-0.1004,-0.0602,-0.0067,0.0467,0.0936,0.0891,0.0824,0.0739,0.131,0.1723,0.1884,0.1884,0.2421,0.1096,0.1124,0.0728,0.054,0.0347,-0.0164,-0.1481,-0.2401,-0.3122,-0.3482,-0.4157,-0.4594,-0.4349,-0.4915,-0.5407,0.0,-0.6523,-0.7497,-0.7572,-0.8504,-0.9273,-0.9486,-1.0082,-1.0941,-1.2183,-1.3139,-1.4105,-1.5141,-1.598,-1.6689,-1.7179,-1.778,-1.8118,-1.8181,-1.8585,-1.8734,-1.8672,-1.8982,-1.9258,-1.9579,-1.985,-2.0093,-2.0246,-2.088,-2.1436,-2.1816,-2.2088,-2.2885,-2.3967,-2.3868,-2.4408,-2.5328,-2.5461,-2.6168,-2.7138,-2.7504,-2.8019,-2.8585,-2.9044,-2.9554,-2.9923,-2.957,-2.9117,-2.8784,-2.9221,-2.8968,-2.8671,-2.9428,-2.985,-2.995,-2.9457,-2.9067,-2.8652,-2.8021,-2.7447,-2.6838,-2.6158,-2.5297,-2.443,-2.3565,-2.2529,-2.15,-2.0683,-1.9282,-1.7829,-1.6543,-1.4758,-1.3183,-1.1973,-1.071,-0.9244,-0.7316,-0.6666,-0.5745,-0.4289,-0.3889,-0.3424,-0.2626,-0.2085,-0.1614,-0.121,-0.0874,-0.0538,-0.0269,-0.0272,-0.0204,0.0,0.034,0.0681,0.101,0.1278,0.1883,0.1409,0.1446,0.117,0.0828,0.0634,-0.0048,-0.216,-0.2888,-0.3259,-0.3925,-0.4243,-0.4379,-0.4289,-0.4767,-0.5234,-0.5301,-0.6484,-0.7494,-0.7746,-0.8473,-0.9152,-0.9502,-0.9743,-1.0255,-1.1251,-1.253,-1.3624,-1.4435,-1.5246,-1.5928,-1.6505,-1.7276,-1.7716,-1.7722,-1.8064,-1.8231,-1.818,-1.8394,-1.8588,-1.875,-1.9224,-1.9485,-1.9419,-2.0112,-2.0822,-2.1555,-2.1703,-2.2615,-2.3952,-2.3611,-2.4167,-2.5279,-2.5253,-2.6036,-2.7175,-2.7158,-2.768,-2.8403,-2.8443,-2.9,-2.9674,-2.9507,-2.9184,-2.8925,-2.9312,-2.9132,-2.8919,-2.945,-2.9872,-3.0126,-2.9845,-2.9438,-2.9005,-2.8554,-2.7865,-2.7186,-2.6657,-2.5783,-2.4902,-2.4116,-2.304,-2.2039,-2.1417,-2.0004,-1.8661,-1.772,-1.5773,-1.3999,-1.2903,-1.1212,-0.949,-0.774,-0.6924,-0.6028,-0.5001,-0.4439,-0.3904,-0.3267,-0.2771,-0.2363,-0.2108,-0.162,-0.1349,-0.1497,-0.1235,-0.0961,-0.0748,-0.048,-0.0137,0.0269,0.074,0.1344,0.0449,0.0896,0.1511,0.0791,-0.0283,-0.136,-0.2142,-0.3536,-0.4606,-0.4438,-0.4622,-0.4698,-0.4447,-0.4401,-0.4514,-0.4791,-0.5842,-0.6871,-0.7592,-0.8173,-0.8707,-0.9158,-0.9236,-0.9535,0.0,-1.1227,-1.2238,-1.3369,-1.4006,-1.4774,-1.5782,-1.646,-1.7032,-1.7501,-1.7655,-1.7918,-1.8309,-1.7769,-1.7874,-1.8513,-1.8355,-1.8585,-1.9242,-1.985,-2.0394,-2.0945,-2.1318,-2.225,-2.345,-2.3606,-2.4164,-2.4973,-2.541,-2.6115,-2.6868,-2.6613,-2.7834,-2.9604,-2.921,-2.967,-3.0345,-2.9555,-2.9852,-3.04,-2.9704,-3.0019,-3.0615,-3.058,-3.0471,-3.0317,-2.9984,-2.9639,-2.9285,-2.887,-2.8218,-2.7531,-2.7009,-2.6232,-2.5368,-2.4358,-2.3621,-2.2846,-2.1799,-2.0769,-1.9645,-1.8174,-1.697,-1.5573,-1.3734,-1.1703,-1.016,-0.9344,-0.8168,-0.7206,-0.6507,-0.5568,-0.4812,-0.4186,-0.3546,-0.3061,-0.2863,-0.2251,-0.1908,-0.196,-0.1364,-0.1149,-0.126,-0.0646,-0.0212,0.0,0.047,0.0874,0.2115,0.1933,0.1387,0.0839,-0.0364,-0.1672,-0.2353,-0.35,-0.4313,-0.3951,-0.4227,-0.4256,-0.3368,-0.3751,-0.426,-0.4442,-0.5811,-0.7077,-0.764,-0.8691,-0.9221,-0.8725,-0.9423,0.0,0.0,0.0,0.0,-1.3273,-1.3922,-1.4645,-1.5551,-1.6133,-1.6524,-1.6684,-1.7067,-1.7179,-1.6955,-1.7291,-1.7466,-1.7401,-1.7652,-1.7958,-1.8295,-1.8668,-1.9079,-1.9449,-1.9872,-2.0886,-2.2207,-2.2513,-2.3387,-2.4612,-2.4925,-2.5454,-2.6029,-2.6018,-2.6961,-2.8184,-2.7827,-2.8415,-2.9298,-2.9207,-2.9427,-2.9817,-3.0185,-2.9706,-2.9159,-2.9654,-2.9742,-2.961,-2.9417,-2.9593,-2.971,-2.9285,-2.8815,-2.8326,-2.8037,-2.742,-2.6619,-2.5711,-2.486,-2.3896,-2.2812,-2.1534,-1.9978,-1.8035,-1.6022,-1.4364,-1.3191,-1.1655,-1.0424,-0.97,-0.8451,-0.7344,-0.6676,-0.5708,-0.4909,-0.4487,-0.3981,-0.3574,-0.3332,-0.2886,-0.2636,-0.2521,-0.2156,-0.1886,-0.1799,-0.1284,-0.0914,-0.076,-0.0542,0.0067,0.2535,0.1972,0.097,0.0688,-0.0543,-0.1805,-0.2411,-0.3271,-0.3863,-0.3384,-0.3443,-0.3272,-0.2315,-0.2822,-0.3517,-0.389,-0.5247,-0.659,-0.7644,-0.8727,-0.928,-0.8924,-0.954,-0.9939,0.0,0.0,0.0,-1.2471,-1.3408,-1.4138,-1.4848,-1.5678,-1.6125,-1.6115,-1.6465,-1.6508,-1.6171,-1.674,-1.6976,-1.6807,-1.719,-1.7455,-1.7559,-1.7796,-1.8202,-1.8646,-1.8892,-1.979,-2.1113,-2.1661,-2.255,-2.3671,-2.4116,-2.4688,-2.5293,-2.5513,-2.6241,-2.7103,-2.7204,-2.7961,-2.8966,-2.9283,-2.9503,-2.9784,-3.0458,-2.9922,-2.9132,-2.9333,-2.9379,-2.9299,-2.9171,-2.9396,-2.9641,-2.9581,-2.9243,-2.8868,-2.8574,-2.7924,-2.7163,-2.6379,-2.5478,-2.4493,-2.348,-2.1885,-2.0117,-1.8263,-1.6136,-1.4359,-1.3289,-1.222,-1.1248,-1.0373,-0.9043,-0.7997,-0.7348,-0.6374,-0.5533,-0.5099,-0.4742,-0.4395,-0.3934,-0.3655,-0.3393,-0.3219,-0.2872,-0.262,-0.2405,-0.1934,-0.1626,-0.1401,-0.1294,-0.0605,0.1805,0.1109,0.0394,0.0218,-0.0815,-0.1905,-0.2272,-0.2889,-0.3218,-0.2744,-0.2381,-0.194,-0.139,-0.1721,-0.2374,-0.3169,-0.4184,-0.5572,-0.7577,-0.8229,-0.8834,0.0,0.0,0.0,0.0,0.0,0.0,-1.0997,0.0,-1.334,-1.3666,-1.4993,-1.5731,-1.5651,-1.5853,-1.59,-1.5874,-1.6114,-1.641,-1.6761,-1.6909,-1.7016,-1.7103,-1.7306,-1.7772,-1.8422,-1.8422,-1.9095,-2.0258,-2.1109,-2.1739,-2.2352,-2.3098,-2.3852,-2.4567,-2.4981,-2.5689,-2.6471,-2.7272,-2.8281,-2.9325,-2.9737,-3.006,-3.0317,-3.0539,-3.0613,-3.0443,-2.9585,-2.9335,-2.9296,-2.9116,-2.9035,-2.9143,-2.9711,-2.9532,-2.9116,-2.8766,-2.7939,-2.7112,-2.6522,-2.5545,-2.4608,-2.3806,-2.1937,-2.0117,-1.8915,-1.7213,-1.5547,-1.4126,-1.3392,-1.2515,-1.1248,-1.0023,-0.9043,-0.8477,-0.7513,-0.6634,-0.6061,-0.5787,-0.5348,-0.4778,-0.4488,-0.4217,-0.3983,-0.3659,-0.3274,-0.2913,-0.2617,-0.2297,-0.2031,-0.1635,-0.1212,0.2361,0.1751,0.1026,0.0,-0.0819,-0.1584,-0.2106,-0.2443,-0.2576,-0.2312,-0.2414,-0.2239,-0.1205,-0.1604,-0.2362,-0.318,-0.4039,0.0,-0.7328,-0.8226,0.0,-0.8933,0.0,-0.9885,-0.9836,-1.0248,0.0,0.0,-1.1803,-1.2681,-1.342,-1.435,-1.4865,-1.4924,-1.4984,-1.5124,-1.5381,-1.5536,-1.5768,-1.5961,-1.6228,-1.6206,-1.5932,-1.6622,-1.7015,-1.716,-1.8213,-1.9258,-2.0193,-2.1304,-2.1838,-2.2009,-2.2971,-2.3252,-2.323,-2.4348,-2.516,-2.5842,-2.6529,-2.7525,-2.8596,-2.9306,-2.9702,-2.9999,-3.0332,-3.0081,-2.9493,-2.8662,-2.8437,-2.8261,-2.7593,-2.8281,-2.9165,-2.9206,-2.9444,-2.9664,-2.9706,-2.9062,-2.8259,-2.7622,-2.587,-2.423,-2.3478,-2.1946,-2.057,-1.9683,-1.8232,-1.6616,-1.4768,-1.3319,-1.2173,-1.1333,-1.0059,-0.911,-0.8723,-0.7559,-0.6914,-0.6871,-0.6332,-0.5978,-0.5846,-0.5421,-0.5052,-0.4746,-0.4446,-0.3998,-0.3491,-0.3351,-0.3028,-0.2589,-0.2317,-0.1952,0.2334,0.1742,0.1002,0.0,-0.0686,-0.1196,-0.1389,-0.1641,-0.1784,-0.1525,-0.1602,-0.1463,-0.0725,-0.0836,-0.1349,0.0,0.0,0.0,-0.6453,-0.7532,-0.8307,0.0,-0.9399,0.0,-0.9603,-0.9993,-1.0392,0.0,-1.1696,-1.2504,-1.3033,-1.3726,-1.4188,-1.4441,-1.4441,-1.4541,-1.4734,-1.4951,-1.5069,-1.4961,-1.5245,-1.5399,-1.5419,-1.5916,-1.6325,-1.6722,0.0,-1.8655,-1.9386,-2.073,-2.1306,-2.1479,-2.2377,-2.2783,-2.2887,-2.388,-2.4663,-2.5313,-2.598,-2.6819,-2.7784,-2.8718,-2.9305,-2.9706,-3.0113,-2.9995,-2.9599,-2.8868,-2.8423,-2.802,-2.7514,-2.7764,-2.8306,-2.8896,-2.9231,-2.9501,-2.9847,-2.9338,-2.8507,-2.7533,-2.5901,-2.442,-2.3636,-2.2363,-2.1099,-1.9914,-1.8661,-1.7268,-1.5517,-1.4186,-1.2947,-1.1963,-1.1059,-1.0265,-0.9675,-0.8802,-0.8225,-0.8093,-0.7419,-0.6878,-0.6584,-0.6097,-0.5681,-0.5209,-0.4999,-0.4569,-0.4001,-0.3802,-0.3565,-0.3217,-0.3063,-0.2822,0.2106,0.1413,0.0667,0.0107,-0.0351,-0.0644,-0.0479,-0.0752,-0.1001,-0.075,-0.0561,-0.0373,-0.013,0.0106,-0.01,-0.1149,-0.1857,-0.3084,-0.5476,-0.659,-0.7596,-0.8692,-0.9163,-0.9352,-0.9285,-0.9545,-0.9958,-1.0376,-1.16,-1.2389,-1.2573,-1.3094,-1.3517,-1.389,-1.3953,-1.3986,-1.389,-1.4231,-1.4231,-1.3881,-1.4112,-1.4492,-1.4925,-1.5,-1.5552,-1.6457,0.0,0.0,-1.8423,-1.9795,-2.0471,-2.0742,-2.1703,-2.2339,-2.2791,-2.3464,-2.4146,-2.4847,-2.5519,-2.6212,-2.7014,-2.8094,-2.8838,-2.9381,-2.9684,-3.0005,-3.0113,-2.9403,-2.8716,-2.814,-2.7986,-2.7377,-2.7144,-2.8476,-2.8859,-2.9034,-2.9474,-2.9084,-2.8296,-2.6933,-2.5911,-2.4989,-2.4168,-2.2981,-2.1635,-2.0105,-1.8963,-1.78,-1.6415,-1.5333,-1.419,-1.2892,-1.2378,-1.1777,-1.0854,-1.0378,-0.9921,-0.9352,-0.8613,-0.7848,-0.7033,-0.6654,-0.6156,-0.5491,-0.5348,-0.4996,-0.4582,-0.424,-0.4025,-0.387,-0.371,-0.3593,0.2265,0.1598,0.0995,0.0207,0.0148,0.0136,-0.0583,-0.0501,-0.0369,-0.0648,-0.0665,-0.0399,0.0399,0.0229,-0.0334,-0.1243,-0.1496,-0.2596,-0.5487,-0.5918,-0.6504,-0.8104,-0.8391,-0.8579,-0.9005,-0.9417,0.0,0.0,0.0,0.0,-1.2297,-1.2253,-1.2382,-1.2755,-1.3186,-1.3091,-1.2413,-1.2704,-1.3,-1.3191,-1.313,-1.322,-1.3473,-1.3742,-1.427,-1.5134,0.0,0.0,-1.8334,-1.9715,-2.0081,-2.0053,-2.1427,-2.1678,-2.1433,-2.2867,-2.3687,-2.421,-2.5005,-2.5892,-2.6788,-2.7773,-2.8406,-2.8809,-2.8706,-2.9311,-2.978,-2.8521,-2.8147,-2.7958,-2.7273,-2.6942,-2.6867,-2.7137,-2.8145,-2.9042,-2.8893,-2.8706,-2.8262,-2.7261,-2.6336,-2.5443,-2.4697,-2.3419,-2.2104,-2.0899,-1.9942,-1.8723,-1.7074,-1.5713,-1.4439,-1.3459,-1.2664,-1.2006,-1.1383,-1.0723,-1.0124,-0.9471,-0.8933,-0.819,-0.7203,-0.6927,-0.6548,-0.6013,-0.5708,-0.5456,-0.5389,-0.5055,-0.4734,-0.4434,-0.428,-0.4083,0.2558,0.1992,0.1544,0.1027,0.0855,0.0678,0.0272,0.0138,0.0065,-0.0097,-0.0072,0.0055,0.0344,0.0429,0.0275,-0.031,-0.0766,-0.1804,-0.3996,-0.479,-0.5727,-0.7261,-0.7824,-0.8182,-0.8291,-0.876,0.0,0.0,0.0,0.0,-1.1221,-1.127,-1.1424,-1.1783,-1.2258,-1.2277,-1.1732,-1.2027,-1.2081,-1.1965,-1.1973,-1.2135,-1.2274,-1.2631,-1.3351,-1.4425,0.0,0.0,-1.7678,-1.9024,-1.9525,-1.9555,-2.0868,-2.1289,-2.1291,-2.2362,-2.3112,-2.3664,-2.4536,-2.5174,-2.5749,-2.658,-2.7591,-2.8499,-2.8632,-2.921,-2.9717,-2.9212,-2.855,-2.7926,-2.7554,-2.6798,-2.6244,-2.6697,-2.7926,-2.9036,-2.9136,-2.8909,-2.8372,-2.7333,-2.6736,-2.5977,-2.4772,-2.3805,-2.2773,-2.1527,-2.0501,-1.9395,-1.7846,-1.6747,-1.5596,-1.4256,-1.3934,-1.3451,-1.2639,-1.1887,-1.1339,-1.1134,-0.9935,-0.9034,-0.8743,-0.7893,-0.7335,-0.6937,-0.6408,-0.6145,-0.6145,-0.5815,-0.5535,-0.5382,-0.5251,-0.5043,0.2831,0.2427,0.2128,0.1949,0.1626,0.1374,0.127,0.0964,0.0672,0.0623,0.067,0.0672,0.049,0.0812,0.0955,0.0521,-0.0048,-0.098,-0.2548,-0.3661,-0.4791,-0.6122,-0.6962,0.0,-0.7311,-0.7812,0.0,0.0,0.0,0.0,-0.992,-1.0356,-1.0639,-1.0856,-1.1264,-1.1322,-1.1101,-1.1219,-1.1094,-1.0667,-1.0856,-1.1101,-1.1274,-1.1539,-1.2416,-1.3635,0.0,0.0,0.0,-1.8145,-1.889,-1.9184,-2.0348,-2.0979,-2.1294,-2.197,-2.2515,-2.3126,-2.4032,-2.456,-2.4919,-2.5461,-2.6603,-2.7753,-2.7994,-2.8665,-2.9387,-2.9465,-2.884,-2.8106,-2.7989,-2.685,-2.5925,-2.6628,-2.7766,-2.8841,-2.933,-2.9193,-2.8599,-2.7429,-2.7137,-2.6565,-2.4909,-2.4286,-2.3546,-2.2136,-2.118,-2.0092,-1.878,-1.8034,-1.7048,-1.5429,-1.5248,-1.4765,-1.3741,-1.3043,-1.2521,-1.236,-1.0831,-0.9989,-0.9997,-0.8893,-0.8177,-0.7982,-0.7321,-0.6999,-0.6999,-0.6563,-0.6322,-0.6266,-0.6228,-0.605,0.3115,0.2801,0.2696,0.2545,0.2555,0.2472,0.1861,0.1851,0.1814,0.1391,0.1228,0.1247,0.1577,0.1533,0.1198,0.0439,0.0358,-0.0305,-0.2337,-0.2657,-0.3269,-0.4798,0.0,0.0,-0.5836,-0.6496,0.0,0.0,0.0,0.0,0.0,-0.9608,-1.0084,-1.009,-1.0179,-1.0063,-0.9709,-0.9703,-0.9709,-0.9646,-0.9837,-1.0085,-1.0401,-1.0448,-1.1017,-1.2065,0.0,0.0,0.0,-1.7073,-1.8193,-1.8851,-1.9971,-2.0488,-2.0687,-2.1556,-2.2036,-2.2436,-2.3452,-2.4433,-2.526,-2.5175,-2.5472,-2.577,-2.5378,-2.6657,-2.8147,-2.7683,-2.8202,-2.8725,-2.8018,-2.7199,-2.663,-2.6767,-2.7404,-2.816,-2.8818,-2.9207,-2.9058,-2.7809,-2.7592,-2.7121,-2.5573,-2.492,-2.422,-2.2966,-2.2173,-2.1184,-1.9668,-1.9324,-1.8605,-1.7116,-1.5956,-1.4967,-1.4205,-1.3711,-1.2839,-1.1508,-1.1088,-1.0483,-0.9602,-0.9291,-0.9069,-0.8865,-0.8345,-0.8091,-0.8042,-0.7453,-0.7064,-0.6736,-0.6667,-0.6577,0.383,0.3732,0.3676,0.3773,0.3511,0.3164,0.2944,0.2766,0.2524,0.2149,0.205,0.1965,0.1727,0.1813,0.1694,0.1002,0.0955,0.0477,-0.0962,-0.1264,-0.1927,-0.3493,-0.3987,0.0,0.0,0.0,0.0,0.0,0.0,0.0,0.0,-0.7709,-0.8545,-0.8941,-0.8989,-0.8998,-0.8871,-0.8748,-0.8753,-0.8894,-0.8952,-0.9081,-0.921,-0.9344,-0.9894,-1.0878,0.0,0.0,0.0,-1.6214,-1.7369,-1.8091,-1.9125,-1.9749,-2.017,-2.0717,-2.1238,-2.1862,-2.2814,-2.342,-2.3834,-2.4518,-2.4758,-2.4832,-2.5305,-2.6936,-2.8532,-2.7997,-2.8339,-2.8815,-2.853,-2.7624,-2.6773,-2.6796,-2.702,-2.7548,-2.8664,-2.8574,-2.8233,-2.7993,-2.7405,-2.6706,-2.6057,-2.5413,-2.4761,-2.402,-2.3171,-2.2074,-2.068,-1.9982,-1.9263,-1.8356,-1.6909,-1.5619,-1.47,-1.395,-1.3252,-1.2667,-1.1717,-1.1134,-1.0989,-1.0379,-1.0034,-1.0091,-0.9691,-0.9352,-0.9078,-0.8786,-0.8351,-0.7794,-0.7813,-0.7682,0.4778,0.4798,0.4851,0.4904,0.447,0.4036,0.3885,0.3607,0.3263,0.2758,0.2696,0.2569,0.1979,0.2088,0.2087,0.1567,0.1502,0.1189,0.0295,0.0,-0.0589,-0.1973,0.0,-0.3114,0.0,0.0,0.0,0.0,0.0,0.0,0.0,-0.5832,-0.6801,-0.7782,-0.7918,-0.8059,-0.8231,-0.8107,-0.8112,-0.8252,-0.8252,-0.8252,-0.8252,-0.8447,-0.8916,0.0,0.0,0.0,0.0,-1.5173,-1.6478,-1.7359,-1.8311,-1.9157,-1.9841,-2.014,-2.0731,-2.1493,-2.237,-2.2746,-2.2979,-2.4031,-2.4543,-2.4864,-2.5481,-2.7007,-2.8482,-2.8196,-2.8252,-2.8394,-2.8204,-2.7286,-2.6392,-2.64,-2.6601,-2.7078,-2.8039,-2.8065,-2.7918,-2.7955,-2.7361,-2.6724,-2.6338,-2.5708,-2.5113,-2.4659,-2.3793,-2.2788,-2.1716,-2.0766,-1.9953,-1.9344,-1.7991,-1.6643,-1.5575,-1.4731,-1.4031,-1.3622,-1.2593,-1.2072,-1.2322,-1.1536,-1.1178,-1.1303,-1.0947,-1.0534,-1.0074,-0.984,-0.9491,-0.8991,-0.9015,-0.8857,0.5832,0.6007,0.6152,0.5718,0.5503,0.5214,0.456,0.4398,0.412,0.3183,0.3041,0.2982,0.2572,0.2442,0.2292,0.1939,0.196,0.1763,0.1081,0.1038,0.0738,0.0,0.0,-0.1146,0.0,0.0,0.0,0.0,0.0,0.0,0.0,0.0,-0.5061,-0.6662,-0.7126,-0.737,-0.7521,-0.7661,-0.7731,-0.7731,-0.7731,-0.7731,-0.7731,-0.7922,0.0,0.0,0.0,0.0,0.0,-1.399,-1.5583,-1.6835,-1.789,-1.8786,-1.9543,-1.9948,-2.0561,-2.1329,-2.2144,-2.2711,-2.3212,-2.3795,-2.4951,-2.6,-2.5443,-2.6346,-2.7588,-2.7843,-2.7715,-2.7343,-2.6618,-2.5909,-2.5437,-2.5505,-2.6169,-2.6795,-2.6727,-2.7854,-2.8579,-2.7599,-2.7677,-2.7537,-2.6385,-2.5807,-2.5287,-2.4693,-2.4085,-2.3435,-2.2785,-2.1799,-2.0881,-2.0093,-1.9097,-1.8058,-1.6948,-1.6254,-1.534,-1.3974,-1.3648,-1.3356,-1.3009,-1.2658,-1.2482,-1.2482,-1.1955,-1.1472,-1.1003,-1.0572,-1.0292,-1.0053,-1.0165,-1.0115,0.5698,0.5949,0.6094,0.5801,0.5431,0.5035,0.4699,0.4493,0.4202,0.3492,0.3253,0.3078,0.2761,0.2649,0.2533,0.2341,0.2286,0.2245,0.2175,0.1715,0.0,0.0534,-0.0515,-0.1264,0.0,0.0,0.0,0.0,0.0,0.0,0.0,0.0,-0.4291,-0.5749,-0.6025,-0.6151,-0.6207,-0.6272,-0.6408,-0.6605,-0.6544,-0.668,-0.7135,-0.7131,0.0,0.0,0.0,0.0,0.0,-1.272,-1.4292,-1.5447,-1.6526,-1.7678,-1.8764,-1.9245,-2.0064,-2.1043,-2.1629,-2.2409,-2.3286,-2.3864,-2.4928,-2.6044,-2.6453,-2.7293,-2.8118,-2.8157,-2.861,-2.8669,-2.6874,-2.6754,-2.6831,-2.5708,-2.5712,-2.6115,-2.6592,-2.7068,-2.7595,-2.823,-2.7547,-2.697,-2.7255,-2.6381,-2.5522,-2.5124,-2.4883,-2.4374,-2.345,-2.268,-2.1894,-2.1055,-2.0181,-1.8903,-1.7124,-1.6415,-1.5645,-1.4647,-1.4442,-1.4195,-1.3846,-1.3965,-1.3906,-1.3674,-1.3427,-1.3037,-1.2422,-1.2083,-1.1705,-1.1277,-1.1569,-1.1566,0.5847,0.616,0.6353,0.6061,0.5553,0.5032,0.4773,0.4493,0.4089,0.3371,0.3386,0.3372,0.2919,0.295,0.2995,0.2826,0.2754,0.272,0.2803,0.0,0.0,0.1083,0.0,0.0,0.0,0.0,0.0,0.0,0.0,0.0,0.0,0.0,-0.2894,-0.4151,-0.4818,-0.5153,-0.5219,-0.5282,-0.5477,-0.5807,-0.5617,-0.5803,-0.6312,0.0,0.0,0.0,0.0,0.0,0.0,-1.1417,-1.2992,-1.4159,-1.5716,-1.7102,-1.8309,-1.9162,-2.0015,-2.0846,-2.1445,-2.2033,-2.2589,-2.3425,-2.4677,-2.5983,-2.6702,-2.7657,-2.842,-2.8209,-2.8446,-2.8374,-2.6749,-2.6588,-2.6583,-2.5595,-2.5486,-2.571,-2.615,-2.6509,-2.6968,-2.7808,-2.7166,-2.6612,-2.7063,-2.645,-2.5739,-2.5333,-2.5428,-2.5227,-2.4251,-2.3448,-2.261,-2.162,-2.0895,-1.9775,-1.7901,-1.7302,-1.68,-1.6234,-1.5776,-1.5429,-1.508,-1.5196,-1.5138,-1.4904,-1.4534,-1.4167,-1.3717,-1.3279,-1.2987,-1.2822,-1.289,-1.289,0.0,0.6562,0.6816,0.6314,0.5694,0.5127,0.4734,0.4356,0.0,0.308,0.3476,0.3804,0.3161,0.3353,0.3568,0.3475,0.3341,0.3245,0.0,0.2895,0.0,0.0,0.0,0.0,0.0,0.0,0.0,0.0,0.0,0.0,0.0,0.0,0.0,-0.2074,-0.3347,-0.4154,-0.4422,-0.455,-0.4812,-0.514,-0.4812,-0.4891,-0.5379,0.0,0.0,0.0,0.0,0.0,0.0,-1.0124,-1.167,-1.3075,-1.5305,-1.6928,-1.804,-1.9348,-2.0165,-2.069,-2.1425,-2.1495,-2.1435,-2.265,-2.423,-2.5763,-2.626,-2.7397,-2.8469,-2.7941,-2.7452,-2.6931,-2.6288,-2.5647,-2.522,-2.5274,-2.5449,-2.556,-2.5506,-2.6172,-2.6757,-2.6648,-2.6621,-2.6502,-2.6167,-2.6135,-2.5954,-2.5341,-2.5743,-2.582,-2.5013,-2.4051,-2.3031,-2.183,-2.1301,-2.0475,-1.9213,-1.8797,-1.8501,-1.8286,-1.7423,-1.6824,-1.6595,-1.6327,-1.6203,-1.6234,-1.5347,-1.4862,-1.4759,-1.4185,-1.4172,-1.4584,-1.4179,-1.4075,0.5423,0.0,0.6028,0.5193,0.4767,0.4469,0.0,0.4127,0.4064,0.3958,0.3939,0.4055,0.451,0.4037,0.3874,0.4775,0.4349,0.397,0.4244,0.0,0.0,0.1671,0.0,0.0,0.0,0.0,0.0,0.0,0.0,0.0,0.0,0.0,0.0,-0.078,-0.146,-0.2079,-0.2547,-0.2815,-0.3149,-0.3547,-0.3487,-0.3934,-0.4771,0.0,0.0,0.0,0.0,0.0,0.0,-0.8729,-1.0515,-1.2379,-1.3696,-1.5309,-1.7069,-1.7829,-1.8672,-1.9572,-2.0315,-2.1149,-2.2049,-2.3173,-2.3984,-2.4603,-2.5141,-2.6697,-2.8083,-2.7049,-2.7318,-2.7493,-2.5683,-2.566,-2.5956,-2.5427,-2.5376,-2.5464,-2.549,-2.6136,-2.6729,-2.6746,-2.6707,-2.6776,-2.7096,-2.6415,-2.5801,-2.5727,-2.5387,-2.4879,-2.4097,-2.3519,-2.2792,-2.1799,-2.143,-2.0912,-2.0194,-1.9147,-1.8426,-1.8167,-1.7066,-1.6735,-1.7413,-1.7135,-1.7102,-1.7457,-1.6524,-1.5898,-1.5631,-1.5198,-1.5197,-1.5552,-1.5664,-1.5696,0.53,0.5613,0.5855,0.5264,0.4895,0.4621,0.4493,0.4302,0.4114,0.4008,0.4138,0.4361,0.4678,0.4533,0.4617,0.5373,0.5159,0.0,0.0,0.0,0.312,0.2365,0.0,0.0,0.0,0.0,0.0,0.0,0.0,0.0,0.0,0.0,0.0,0.0,0.0329,-0.0398,-0.1544,-0.1746,-0.1947,-0.2213,-0.2284,-0.2843,-0.3771,0.0,0.0,0.0,0.0,0.0,-0.7011,-0.8297,-0.9676,-1.1095,-1.2741,-1.4303,-1.5727,-1.7038,-1.8111,-1.9047,-1.9768,-2.075,-2.1741,-2.2409,-2.3045,-2.3627,-2.4071,-2.546,-2.681,-2.639,-2.6557,-2.6599,-2.5653,-2.5555,-2.5628,-2.5327,-2.5313,-2.5376,-2.5437,-2.5814,-2.6177,-2.6248,-2.6175,-2.6294,-2.6879,-2.6338,-2.5916,-2.614,-2.5678,-2.5065,-2.4484,-2.3866,-2.3102,-2.2189,-2.1819,-2.1365,-2.072,-1.9821,-1.9153,-1.8846,-1.7861,-1.7529,-1.8029,-1.808,-1.8226,-1.8594,-1.7772,-1.7277,-1.714,-1.6511,-1.6565,-1.726,-1.7179,-1.7407,0.5688,0.5961,0.6138,0.5742,0.5438,0.5234,0.5185,0.4839,0.4426,0.4126,0.4557,0.4936,0.4781,0.5159,0.5567,0.5781,0.0,0.0,0.4791,0.445,0.4,0.0,0.0,0.0,0.0,0.0,0.0,0.0,0.0,0.0,0.0,0.0,0.0,0.0,0.2001,0.1102,-0.0533,-0.0734,-0.087,-0.1008,-0.1277,-0.1814,-0.2688,-0.3773,0.0,0.0,0.0,0.0,-0.7011,-0.8078,-0.8906,-0.9822,-1.1836,-1.3297,-1.4432,-1.627,-1.7584,-1.8558,-1.9453,-2.0309,-2.1006,-2.1199,-2.1887,-2.2723,-2.3055,-2.3944,-2.4989,-2.5536,-2.547,-2.5307,-2.5677,-2.5341,-2.494,-2.513,-2.5231,-2.5303,-2.5367,-2.5439,-2.5493,-2.5566,-2.5488,-2.5624,-2.6304,-2.6124,-2.6004,-2.6377,-2.5889,-2.5334,-2.487,-2.4127,-2.3304,-2.2446,-2.2208,-2.1831,-2.1038,-2.0664,-2.0298,-1.9978,-1.8959,-1.8448,-1.8583,-1.9054,-1.9436,-1.9707,-1.9024,-1.8758,-1.8874,-1.784,-1.7909,-1.9042,-1.8645,-1.8948,0.6771,0.7127,0.6982,0.5745,0.5664,0.5876,0.5992,0.6003,0.6003,0.6114,0.6238,0.6397,0.6703,0.6557,0.6501,0.6822,0.0,0.6032,0.0,0.0,0.0,0.0,0.0,0.0,0.0,0.0,0.0,0.0,0.0,0.0,0.0,0.0,0.0,0.0,0.0,0.2506,0.2064,0.11,0.0459,0.0202,-0.0269,-0.1208,-0.2484,-0.2967,-0.3715,0.0,0.0,0.0,-0.6262,-0.6799,-0.8012,-0.9612,-1.0025,-1.1554,-1.3666,-1.4107,-1.5395,-1.7089,-1.8924,-1.9975,-2.0559,-2.0877,-2.1247,-2.1596,-2.1947,-2.2439,-2.3013,-2.339,-2.4347,-2.5201,-2.4814,-2.4764,-2.4847,-2.4994,-2.5118,-2.5228,-2.5303,-2.5371,-2.5434,-2.5493,-2.5502,-2.571,-2.6443,-2.5916,-2.5562,-2.6012,-2.4703,-2.3558,-2.3139,-2.2668,-2.2206,-2.1777,-2.2058,-2.2157,-2.1845,-2.1668,-2.1399,-2.1071,-1.913,-1.8256,-1.8903,-1.9813,-2.053,-2.1075,-2.0102,-1.9743,-2.002,-1.8899,-1.8826,-1.9645,-1.9666,-2.0035,0.6573,0.6848,0.6996,0.6969,0.7216,0.7501,0.7713,0.7713,0.7613,0.7439,0.7579,0.7689,0.7559,0.7552,0.7671,0.7929,0.0,0.763,0.0,0.0,0.0,0.0,0.0,0.0,0.0,0.0,0.0,0.0,0.0,0.0,0.0,0.0,0.0,0.0,0.0,0.3824,0.3877,0.3079,0.2129,0.1117,0.0394,-0.0394,-0.1378,-0.2491,-0.3407,0.0,0.0,-0.5755,-0.6166,-0.6607,-0.7459,-0.8562,-0.8883,-1.0045,-1.1751,-1.3543,-1.5059,-1.6493,-1.8452,-1.9735,-2.0579,-2.0807,-2.1103,-2.1433,-2.1751,-2.2158,-2.2561,-2.2867,-2.3636,-2.4356,-2.4358,-2.4476,-2.467,-2.4837,-2.4966,-2.5069,-2.5115,-2.5194,-2.5271,-2.5426,-2.5417,-2.5658,-2.6507,-2.5928,-2.5398,-2.5593,-2.4423,-2.3271,-2.2581,-2.2191,-2.2045,-2.222,-2.2392,-2.2553,-2.284,-2.2675,-2.2146,-2.114,-1.9821,-1.9348,-1.9916,-2.0489,-2.1102,-2.1671,-2.1129,-2.1045,-2.1437,-2.01,-2.0195,-2.156,-2.1142,-2.1552,0.6587,0.671,0.7101,0.8294,0.8497,0.8609,0.9478,0.9361,0.9067,0.9012,0.9238,0.9203,0.8578,0.856,0.0,0.8982,0.912,0.0,0.0,0.0,0.0,0.0,0.0,0.0,0.0,0.0,0.0,0.0,0.0,0.0,0.0,0.0,0.0,0.0,0.0,0.0,0.5266,0.4697,0.37,0.2165,0.1273,0.0509,-0.0255,-0.1778,-0.292,-0.3741,-0.4972,-0.5688,-0.6028,-0.642,-0.6887,-0.737,-0.7914,-0.8795,-1.005,-1.2924,-1.4576,-1.5676,-1.76,-1.9069,-2.0213,-2.074,-2.1118,-2.1479,-2.1705,-2.213,-2.2561,-2.2747,-2.3157,-2.3606,-2.3999,-2.4284,-2.4478,-2.4695,-2.4779,-2.4874,-2.4955,-2.5031,-2.5143,-2.5355,-2.5351,-2.5565,-2.632,-2.5732,-2.5129,-2.5069,-2.4014,-2.294,-2.2221,-2.209,-2.2163,-2.2403,-2.2669,-2.297,-2.3345,-2.3404,-2.2986,-2.1925,-2.1059,-2.0734,-2.1115,-2.1618,-2.2175,-2.2722,-2.2557,-2.2684,-2.308,-2.152,-2.1613,-2.324,-2.2534,-2.289,0.7742,0.7651,0.7772,0.9149,0.8483,0.8168,1.0805,1.0636,1.0244,1.147,1.1583,1.129,1.0613,0.9785,0.94,0.9916,0.9412,0.0,0.0,0.0,0.0,0.0,0.0,0.0,0.0,0.0,0.0,0.0,0.0,0.0,0.0,0.0,0.0,0.0,0.0,0.0,0.6015,0.5656,0.4837,0.3564,0.2711,0.1663,0.0431,-0.0492,-0.1719,-0.3247,-0.3752,-0.4465,-0.5327,-0.5708,-0.6132,-0.6534,-0.6851,-0.7905,-0.9472,-1.1291,-1.265,-1.3899,-1.5953,-1.7462,-1.874,-2.0288,-2.1167,-2.1573,-2.1464,-2.1986,-2.2579,-2.2542,-2.2902,-2.3412,-2.3732,-2.4019,-2.4284,-2.4478,-2.461,-2.4749,-2.4874,-2.4961,-2.5087,-2.5359,-2.5395,-2.5476,-2.573,-2.5002,-2.4378,-2.4374,-2.2881,-2.1725,-2.1664,-2.219,-2.223,-2.1405,-2.2598,-2.3251,-2.2806,-2.356,-2.4246,-2.4678,-2.3031,-2.2142,-2.2352,-2.3574,-2.4541,-2.5145,-2.4725,-2.4683,-2.5093,-2.3312,-2.2865,-2.3652,-2.3526,-2.3701,0.7169,0.7763,0.861,0.9615,0.9623,0.9817,1.1408,1.2108,1.2571,1.3141,1.3436,1.3184,1.1996,1.1256,1.0801,1.0684,0.0,0.0,0.0,0.0,0.0,0.0,0.0,0.0,0.0,0.0,0.0,0.0,0.0,0.0,0.0,0.0,0.0,0.0,0.0,0.0,0.0,0.6541,0.6125,0.5508,0.379,0.271,0.2076,0.0825,-0.0178,-0.1008,-0.2183,-0.306,-0.3739,-0.4805,-0.5555,-0.6119,-0.7031,-0.7544,-0.8009,-0.9757,-1.074,-1.1353,-1.2801,-1.4049,-1.5223,-1.6863,-1.8136,-1.9258,-2.0335,-2.1393,-2.2271,-2.2443,-2.2712,-2.3028,-2.3486,-2.3774,-2.3999,-2.4211,-2.4374,-2.4547,-2.4685,-2.435,-2.427,-2.5157,-2.49,-2.4588,-2.4785,-2.4567,-2.3993,-2.2916,-2.2159,-2.1539,-2.0997,-2.1149,-2.1566,-2.2241,-2.3758,-2.4351,-2.3392,-2.3389,-2.3985,-2.5297,-2.4315,-2.338,-2.2709,-2.3383,-2.4292,-2.5436,-2.5708,-2.5517,-2.4923,-2.3236,-2.3154,-2.4534,-2.3474,-2.3338,0.7166,0.7955,0.9037,0.9893,1.0525,1.1216,1.2351,1.3271,1.3982,1.4398,1.4435,1.4086,1.2945,1.2362,0.0,0.0,0.0,0.0,0.0,0.0,0.0,0.0,0.0,0.0,0.0,0.0,0.0,0.0,0.0,0.0,0.0,0.0,0.0,0.0,0.0,0.0,0.0,0.7361,0.723,0.6968,0.5275,0.4222,0.3756,0.242,0.1512,0.096,-0.0441,-0.1529,-0.2411,-0.3707,-0.4801,-0.5698,-0.6678,-0.6743,-0.6401,-0.7884,-0.8545,-0.8954,-1.0649,-1.1723,-1.2758,-1.4625,-1.615,-1.7491,-1.8772,-2.0099,-2.1184,-2.1494,-2.1881,-2.2358,-2.2764,-2.3271,-2.3753,-2.3921,-2.4135,-2.4321,-2.4478,-2.4113,-2.404,-2.5043,-2.4797,-2.4393,-2.4344,-2.4139,-2.3496,-2.2029,-2.1578,-2.1208,-2.0605,-2.0742,-2.1386,-2.2613,-2.3458,-2.3584,-2.2752,-2.2875,-2.3752,-2.552,-2.4656,-2.3961,-2.37,-2.4145,-2.4933,-2.6053,-2.6388,-2.6167,-2.5356,-2.3957,-2.3821,-2.4812,-2.3887,-2.3492,0.8129,0.8352,0.8999,1.0123,1.1035,1.2095,1.3821,1.3945,1.4081,1.5239,1.4599,1.374,1.3475,1.2918,0.0,0.0,0.0,0.0,0.0,0.0,0.0,0.0,0.0,0.0,0.0,0.0,0.0,0.0,0.0,0.0,0.0,0.0,0.0,0.0,0.0,0.0,0.0,0.8224,0.7975,0.79,0.7304,0.6427,0.5273,0.4277,0.3299,0.2362,0.1419,0.0053,-0.1536,-0.2516,-0.3803,-0.5236,-0.5582,-0.5272,-0.4804,-0.5587,-0.6042,-0.6692,-0.973,-1.0989,-1.1762,-1.4271,-1.5773,-1.6678,-1.6848,-1.8013,-1.9327,-1.9452,-2.0369,-2.131,-2.1464,-2.2487,-2.3508,-2.3649,-2.3837,-2.4056,-2.4247,-2.4392,-2.4595,-2.5001,-2.5195,-2.5084,-2.4485,-2.3671,-2.2799,-2.1922,-2.1111,-2.0605,-2.0594,-2.1297,-2.189,-2.2166,-2.1196,-2.0533,-2.05,-2.2022,-2.3747,-2.5559,-2.3996,-2.3776,-2.5504,-2.6366,-2.6935,-2.7257,-2.6881,-2.6703,-2.6754,-2.584,-2.502,-2.4309,-2.4955,-2.437,0.8109,0.9247,1.0649,1.1467,1.3317,1.4991,1.5251,1.5163,1.5151,1.5781,1.5339,1.4689,1.4301,1.3959,0.0,0.0,0.0,0.0,0.0,0.0,0.0,0.0,0.0,0.0,0.0,0.0,0.0,0.0,0.0,0.0,0.0,0.0,0.0,0.0,0.0,0.0,0.887,0.8623,0.8401,0.8173,0.7954,0.7235,0.6135,0.5481,0.4984,0.4584,0.3049,0.2037,0.1251,-0.138,-0.3198,-0.4426,-0.4887,-0.493,-0.4815,-0.5026,-0.53,-0.5701,-0.6877,-0.7405,-0.7983,-1.0822,-1.2497,-1.3803,-1.5484,-1.7419,-1.9066,-1.9288,-2.0096,-2.0866,-2.081,-2.1221,-2.1994,-2.3206,-2.3642,-2.3692,-2.3268,-2.3327,-2.3547,-2.3972,-2.4149,-2.4053,-2.345,-2.3213,-2.2563,-2.0975,-2.062,-2.0533,-2.0535,-2.0734,-2.0923,-2.1004,-2.2909,-2.3178,-2.0763,-2.103,-2.2047,-2.3755,-2.2971,-2.2859,-2.3791,-2.5163,-2.5194,-2.3747,-2.5118,-2.5253,-2.4058,-2.3825,-2.3874,-2.4142,-2.3152,-2.2722,0.9194,1.0545,1.2059,1.3192,1.4708,1.5997,1.6112,1.593,1.5828,1.6166,1.5692,1.5131,1.4834,1.4529,0.0,0.0,0.0,0.0,0.0,0.0,0.0,0.0,0.0,0.0,0.0,0.0,0.0,0.0,0.0,0.0,0.0,0.0,0.0,0.0,0.0,0.0,0.9541,0.927,0.8966,0.8786,0.8551,0.8044,0.7255,0.6705,0.6326,0.5992,0.4345,0.3365,0.2785,-0.005,-0.1788,-0.2832,-0.3574,-0.382,-0.3804,-0.4022,-0.4247,-0.4632,-0.5571,-0.5871,-0.6331,-0.8924,-1.0457,-1.1667,-1.3695,-1.5695,-1.738,-1.8001,-1.8976,-1.9855,-1.9999,-2.0632,-2.1488,-2.2575,-2.2999,-2.3142,-2.3127,-2.3306,-2.3561,-2.3952,-2.3872,-2.3552,-2.2987,-2.2681,-2.2003,-2.0551,-2.0441,-2.0533,-2.0545,-2.0526,-2.0508,-2.0495,-2.2354,-2.2773,-2.0736,-2.12,-2.1732,-2.2087,-2.2181,-2.2181,-2.2061,-2.3631,-2.3877,-2.2537,-2.3792,-2.3941,-2.2895,-2.2946,-2.3016,-2.3087,-2.2411,-2.1963,1.0804,1.192,1.3175,1.4966,1.5506,1.5802,1.6606,1.6466,1.6223,1.6459,1.5852,1.529,1.5196,1.4873,0.0,0.0,0.0,0.0,0.0,0.0,0.0,0.0,0.0,0.0,0.0,0.0,0.0,0.0,0.0,0.0,0.0,0.0,0.0,0.0,0.0,0.0,1.0508,1.0029,0.9697,0.0,0.9177,0.8854,0.8635,0.7931,0.7375,0.6873,0.55,0.4411,0.3465,0.1592,0.0232,-0.0792,-0.1787,-0.2174,-0.2211,-0.259,-0.3004,-0.3535,-0.5069,-0.5562,-0.5892,-0.786,-0.909,-0.9992,-1.1449,-1.2989,-1.4491,-1.5749,-1.704,-1.8229,-1.8928,-2.0194,-2.14,-2.1804,-2.2147,-2.2611,-2.3368,-2.383,-2.4173,-2.4425,-2.4075,-2.3545,-2.297,-2.2217,-2.1407,-2.0535,-2.0506,-2.0572,-2.0563,-2.0513,-2.0483,-2.0483,-2.0435,-2.0429,-2.0497,-2.1954,-2.2361,-2.1131,-2.1739,-2.1708,-2.0701,-2.2161,-2.2937,-2.2775,-2.2804,-2.2777,-2.2662,-2.275,-2.2373,-2.1608,-2.2254,-2.1748,1.0523,1.1851,1.3431,1.5119,1.6295,1.7116,1.7368,1.724,1.6999,1.6573,1.6269,1.6016,1.5832,0.0,0.0,0.0,0.0,0.0,0.0,0.0,0.0,0.0,0.0,0.0,0.0,0.0,0.0,0.0,0.0,0.0,0.0,0.0,0.0,0.0,0.0,1.1518,1.1347,1.0725,1.0342,0.0,0.9845,0.9688,0.9728,0.899,0.8466,0.8106,0.756,0.65,0.5048,0.3778,0.2287,0.0718,-0.0265,-0.1217,-0.195,-0.1109,-0.1267,-0.1961,-0.2215,-0.2631,-0.3365,-0.5066,-0.628,-0.7109,-0.7621,-0.9182,-1.1073,-1.2507,-1.37,-1.5036,-1.7107,-1.7993,-1.8785,-2.0675,-2.2106,-2.2764,-2.1857,-2.2964,-2.3805,-2.2768,-2.369,-2.4195,-2.2814,-2.2555,-2.204,-2.0624,-2.0421,-2.0413,-2.0379,-2.0398,-2.0423,-2.0423,-2.0411,-2.0448,-2.0575,-2.0913,-2.2137,-2.4453,-2.2304,-2.125,-2.1899,-2.2609,-2.2386,-2.1056,-2.1791,-2.1748,-2.0849,-2.1482,-2.1702,-2.1512,-2.0945,-2.0842,1.0784,1.2125,1.3685,1.5859,1.6978,1.7486,1.7368,1.7139,1.6834,1.6428,1.6301,1.6191,0.0,0.0,0.0,0.0,0.0,0.0,0.0,0.0,0.0,0.0,0.0,0.0,0.0,0.0,0.0,0.0,0.0,0.0,0.0,0.0,0.0,0.0,1.2341,1.2048,1.18,1.1316,1.1019,1.0922,1.0475,1.0321,1.0475,0.9746,0.9359,0.9245,0.8771,0.7999,0.7022,0.5991,0.4619,0.3082,0.2348,0.1345,0.0364,0.09,0.0583,-0.0099,-0.0256,-0.1009,-0.2038,-0.3168,-0.4273,-0.5381,-0.6435,-0.7758,-0.9323,-1.1356,-1.2487,-1.3567,-1.5601,-1.6718,-1.7797,-1.9535,-2.1114,-2.2101,-2.171,-2.2779,-2.3557,-2.2685,-2.3011,-2.3295,-2.2943,-2.2173,-2.1325,-2.048,-1.8854,-1.8332,-1.9997,-2.023,-2.0289,-2.0345,-2.0296,-2.0301,-2.043,-2.0516,-2.1308,-2.3095,-2.2326,-2.1705,-2.1484,-2.1684,-2.1176,-1.986,-2.0276,-2.0265,-1.9735,-2.0461,-2.0849,-2.0866,-2.0317,-2.0308,1.0931,1.2381,1.4013,1.6467,1.7236,1.7329,1.6959,1.6692,1.6409,1.6025,1.6075,0.0,0.0,0.0,0.0,0.0,0.0,0.0,0.0,0.0,0.0,0.0,0.0,0.0,0.0,0.0,0.0,0.0,0.0,0.0,0.0,0.0,1.2359,1.3082,1.2807,1.2487,1.2152,1.1879,1.1726,1.1737,1.118,1.0964,1.1002,1.0504,1.0321,1.036,0.9785,0.9389,0.9123,0.8211,0.7026,0.5737,0.5249,0.4256,0.3152,0.3232,0.2761,0.2028,0.157,0.0493,-0.0751,-0.1551,-0.2585,-0.3898,-0.5486,-0.6457,-0.758,-1.028,-1.1353,-1.2098,-1.4045,-1.565,-1.7116,-1.828,-1.9715,-2.1009,-2.1761,-2.2665,-2.3228,-2.2793,-2.2218,-2.2073,-2.2975,-2.153,-2.0252,-2.0285,-1.7148,-1.5847,-1.8793,-1.9707,-2.0126,-2.026,-2.0162,-2.0153,-2.0285,-1.9866,-1.987,-2.0486,-2.1862,-2.1952,-2.0366,-2.0435,-1.9925,-1.8691,-1.8705,-1.8722,-1.8737,-1.9645,-2.006,-1.9978,-1.9983,-1.9996,0.9998,1.2238,1.4615,1.5855,1.6573,1.6829,1.6179,1.6291,1.6194,0.0,1.5551,0.0,0.0,0.0,0.0,0.0,0.0,0.0,0.0,0.0,0.0,0.0,0.0,0.0,0.0,0.0,0.0,0.0,0.0,0.0,0.0,1.2798,1.2816,1.3504,1.3168,1.289,1.2782,1.2472,1.2401,1.2615,1.2294,1.1943,1.1608,1.1627,1.1605,1.1557,1.1352,1.1263,1.1138,1.0273,0.9194,0.8072,0.7493,0.6115,0.4578,0.5774,0.5517,0.4455,0.3952,0.3203,0.2264,0.076,-0.0539,-0.1655,-0.1887,-0.2502,-0.3645,-0.6388,-0.7291,-0.8262,-1.2091,-1.3922,-1.5186,-1.6802,-1.8433,-1.9857,-2.0656,-2.1855,-2.2493,-2.1406,-2.1507,-2.1932,-2.2374,-2.1114,-2.0097,-2.0269,-1.7113,-1.4873,-1.5362,-1.8111,-2.0038,-2.0117,-2.0117,-2.0153,-2.0285,-1.7655,-1.7303,-2.0393,-2.0816,-2.0351,-1.9093,-2.0048,-1.9422,-1.6976,-1.7606,-1.7728,-1.7286,-1.9183,-1.9754,-1.9088,-1.9706,-1.9993,0.9625,1.1404,1.3245,1.4819,1.5663,1.6007,1.5641,1.6006,1.6188,1.5287,0.0,0.0,0.0,0.0,0.0,0.0,0.0,0.0,0.0,0.0,0.0,0.0,0.0,0.0,0.0,0.0,0.0,0.0,0.0,0.0,1.3795,1.3322,1.3353,1.407,1.3581,0.0,1.306,1.2873,1.278,1.2745,1.2697,1.2484,1.2173,1.2354,1.227,1.1911,1.1779,1.1545,1.1292,1.1465,1.0765,0.9657,1.0064,0.9318,0.8024,0.8165,0.7808,0.7108,0.5721,0.4629,0.365,0.2401,0.102,-0.0184,-0.0421,-0.0888,-0.1886,-0.4527,-0.5546,-0.6559,-0.9603,-1.1817,-1.363,-1.5004,-1.6617,-1.8201,-1.9479,-2.0994,-2.1883,-2.1025,-2.2185,-2.2728,-2.0831,-2.0085,-1.9169,-1.7327,-1.565,-1.4522,-1.4381,-1.5723,-1.6804,-1.7053,-1.8888,-2.0126,-2.0171,-1.8907,-1.7968,-1.7647,-1.8572,-1.8741,-1.7874,-1.7708,-1.7398,-1.6889,-1.6555,-1.6744,-1.7446,-1.8632,-1.9332,-1.9588,-1.9867,-1.9949,0.9063,1.0088,1.1162,1.3168,1.4112,1.468,1.5095,1.5595,1.5859,0.0,0.0,0.0,0.0,0.0,0.0,0.0,0.0,0.0,0.0,0.0,0.0,0.0,0.0,0.0,0.0,0.0,0.0,0.0,0.0,0.0,1.4193,1.3606,1.3619,1.4473,1.3802,1.3423,1.3391,1.3335,1.3198,1.2943,1.3047,1.2965,1.2708,1.2918,1.2801,1.2449,1.2353,1.1996,1.1579,1.2469,1.2239,1.1367,1.227,1.1982,1.0984,1.0348,0.9839,0.9156,0.6968,0.5639,0.467,0.324,0.1898,0.0788,0.0409,0.0,-0.0821,-0.3043,-0.4222,-0.5274,-0.7365,-0.9756,-1.1898,-1.2896,-1.4514,-1.6514,-1.9043,-2.044,-2.096,-2.0132,-2.1625,-2.2206,-1.9555,-1.8709,-1.7504,-1.489,-1.4405,-1.4319,-1.4255,-1.415,-1.4255,-1.4669,-1.7131,-1.9097,-1.9993,-2.0182,-1.9027,-1.6117,-1.6829,-1.7263,-1.7107,-1.5941,-1.5725,-1.6652,-1.6542,-1.6847,-1.757,-1.8179,-1.8931,-1.9781,-1.9686,-1.9719,0.795,0.8152,0.8651,1.0625,1.1542,1.2508,1.4461,0.0,1.4924,0.0,0.0,0.0,0.0,0.0,0.0,0.0,0.0,0.0,0.0,0.0,0.0,0.0,0.0,0.0,0.0,0.0,0.0,0.0,0.0,0.0,1.4362,1.3393,1.3356,1.4469,1.3638,1.3453,1.3954,1.3894,1.3775,1.3547,1.3547,1.3467,1.3251,1.3285,1.3387,1.3602,1.3669,1.3396,1.2948,1.3585,1.3795,1.371,1.3728,1.313,1.2307,1.2274,1.1532,1.0177,0.7684,0.6596,0.5836,0.3144,0.1832,0.1288,0.0959,0.0572,0.0,-0.1225,-0.2492,-0.3926,-0.5827,-0.7961,-0.9804,-1.0452,-1.2136,-1.5,-1.9842,-2.0367,-1.9453,-1.7977,-1.8443,-1.9112,-1.9106,-1.6853,-1.4932,-1.4559,-1.4181,-1.4114,-1.4607,-1.4331,-1.4255,-1.4669,-1.4925,-1.6413,-1.9728,-2.0059,-1.9407,-1.7773,-1.633,-1.6001,-1.706,-1.5932,-1.5362,-1.5487,-1.831,-1.8829,-1.6957,-1.793,-1.8608,-1.895,-1.8763,-1.9114,0.7466,0.749,0.7863,0.9418,1.0593,1.1668,1.2878,1.4364,1.5448,0.0,0.0,0.0,0.0,0.0,0.0,0.0,0.0,0.0,0.0,0.0,0.0,0.0,0.0,0.0,0.0,0.0,0.0,0.0,0.0,0.0,1.4831,1.4179,1.4112,1.4865,1.3843,1.3412,1.3734,1.4223,1.4287,1.3934,1.4149,1.4032,1.3628,1.3848,1.3748,1.3462,1.4001,1.3902,1.3358,1.3543,1.3655,1.3744,1.4124,1.3947,1.3421,1.28,1.2389,1.1758,0.9376,0.8524,0.8066,0.5329,0.4323,0.4033,0.3197,0.2894,0.265,0.1466,0.0243,-0.125,-0.3628,-0.5919,-0.8178,-1.0221,-1.2122,-1.3924,-1.5605,-1.8139,-1.946,-1.7437,-1.7412,-1.7958,-1.877,-1.6593,-1.4714,-1.464,-1.4429,-1.4356,-1.4552,-1.4511,-1.4552,-1.4672,-1.4724,-1.531,-1.6719,-1.6931,-1.6739,-1.6222,-1.6652,-1.6667,-1.6031,-1.5559,-1.5313,-1.5345,-1.6283,-1.6415,-1.5682,-1.7423,-1.8421,-1.8716,-1.8634,-1.9021,0.6951,0.6704,0.6897,0.8498,0.9359,1.032,1.22,1.3752,1.4786,0.0,0.0,0.0,0.0,0.0,0.0,0.0,0.0,0.0,0.0,0.0,0.0,0.0,0.0,0.0,0.0,0.0,0.0,0.0,0.0,0.0,1.5004,1.4538,1.4353,1.4578,1.3788,1.3527,1.3838,1.4304,1.4508,1.4501,1.469,1.461,1.4319,1.4465,1.429,1.3871,1.419,1.4051,1.3599,1.3836,1.3979,1.4098,1.4457,1.4515,1.4273,1.3538,1.3368,1.3204,1.1195,1.0574,1.0308,0.7945,0.686,0.6376,0.5806,0.5304,0.4821,0.4092,0.2853,0.1221,-0.1197,-0.3812,-0.6514,-0.8989,-1.0576,-1.1711,-1.2246,-1.5627,-1.8207,-1.709,-1.7166,-1.7698,-1.8544,-1.717,-1.56,-1.4496,-1.435,-1.4381,-1.4429,-1.4552,-1.4629,-1.4629,-1.4661,-1.5262,-1.6624,-1.5804,-1.5245,-1.5326,-1.6388,-1.6506,-1.5439,-1.5368,-1.5307,-1.5221,-1.5094,-1.4987,-1.489,-1.6328,-1.756,-1.8572,-1.8241,-1.8676,0.0,0.0,0.0,0.7783,0.7802,0.839,1.2443,0.0,1.2846,0.0,0.0,0.0,0.0,0.0,0.0,0.0,0.0,0.0,0.0,0.0,0.0,0.0,0.0,0.0,0.0,0.0,0.0,0.0,0.0,1.5072,1.4825,1.4441,1.4036,1.3605,1.3568,1.3809,1.4282,1.4141,1.4471,1.5329,1.5195,1.5195,1.5299,1.509,1.4996,1.489,1.4296,1.3968,1.3906,1.4527,1.4859,1.5013,1.4856,1.4842,1.4876,1.4533,1.4541,1.4522,1.3071,1.2611,1.2397,1.0712,0.9271,0.8287,0.859,0.7621,0.6456,0.6671,0.5312,0.3354,0.1348,-0.1746,-0.4757,-0.6488,-0.7364,-0.8323,-1.0238,-1.3012,-1.5472,-1.6716,-1.7519,-1.8091,-1.8426,-1.8485,-1.7376,-1.4103,-1.388,-1.4136,-1.4281,-1.4405,-1.4476,-1.4494,-1.4618,-1.6103,-1.9555,-1.6992,-1.525,-1.5398,-1.541,-1.5402,-1.54,-1.5396,-1.5299,-1.5099,-1.5052,-1.4898,-1.4632,-1.4677,-1.6004,-1.8425,-1.7571,-1.8087,0.7581,0.0,0.0,0.0,0.0,0.0,1.0208,1.121,1.1891,0.0,0.0,0.0,0.0,0.0,0.0,0.0,0.0,0.0,0.0,0.0,0.0,0.0,0.0,0.0,0.0,0.0,0.0,0.0,1.4335,1.4935,1.5492,1.5402,1.485,1.3693,1.4695,1.4869,1.4075,1.4992,1.5488,1.5609,1.5769,1.5696,1.5448,1.5638,1.5609,1.5389,1.5228,1.5183,1.5197,1.4573,1.4731,1.5359,1.5163,1.5117,1.5163,1.4859,1.4816,1.4828,1.4108,1.3896,1.3648,1.2176,1.1594,1.1338,1.0517,0.9587,0.8907,0.9181,0.7902,0.5701,0.2609,-0.0346,-0.2975,-0.4689,-0.5566,-0.6616,-0.8782,-1.131,-1.3631,-1.5121,-1.6412,-1.7432,-1.7905,-1.7992,-1.6987,-1.4037,-1.3809,-1.4002,-1.4141,-1.4114,-1.4114,-1.419,-1.4499,-1.5117,-1.6157,-1.5594,-1.525,-1.5398,-1.539,-1.5329,-1.5182,-1.5042,-1.5026,-1.5165,-1.3927,-1.3173,-1.2967,-1.4185,-1.5689,-1.7442,-1.8337,-1.9317,0.8931,0.8693,0.8961,0.8809,0.0,0.0,1.0124,1.0543,1.0767,0.0,0.0,0.0,0.0,0.0,0.0,0.0,0.0,0.0,0.0,0.0,0.0,0.0,0.0,0.0,0.0,0.0,0.0,0.0,1.4203,1.5134,1.5963,1.5449,1.4916,1.4475,1.4679,1.4709,1.449,1.4943,1.5421,1.5911,1.6067,1.6052,1.5881,1.6037,1.6065,1.5938,1.5938,1.5994,1.6019,1.5263,1.5445,1.6114,1.5669,1.5758,1.6085,1.5692,1.5588,1.5668,1.5504,1.543,1.5252,1.4228,1.3876,1.3767,1.2949,1.225,1.1756,1.1986,1.0058,0.7341,0.4559,0.1857,-0.0552,-0.2159,-0.3266,-0.4519,-0.6772,-0.9092,-1.122,-1.2846,-1.3713,-1.486,-1.6938,-1.7425,-1.6602,-1.3922,-1.3544,-1.3717,-1.4123,-1.3941,-1.3853,-1.4086,-1.4405,-1.4685,-1.4877,-1.3798,-1.377,-1.5292,-1.5408,-1.5293,-1.5064,-1.3629,-1.2903,-1.3078,-1.2511,-1.2414,-1.2799,-1.3773,-1.516,-1.6962,-1.8273,-1.9464,1.0567,1.0189,1.0312,1.0747,1.0041,0.0,1.1157,1.0606,0.9913,0.0,0.0,0.0,0.0,0.0,0.0,0.0,0.0,0.0,0.0,0.0,0.0,0.0,0.0,0.0,0.0,0.0,1.2925,1.294,1.4261,1.5345,1.6037,1.4984,1.4685,1.5355,1.4272,1.4202,1.5222,1.4602,1.4929,1.6277,1.625,1.6316,1.6452,1.6409,1.6409,1.6479,1.6463,1.6517,1.6538,1.6367,1.6632,1.7085,1.6346,1.6571,1.7238,1.6697,1.6514,1.6634,1.6701,1.6718,1.6648,1.6294,1.5906,1.5591,1.554,1.5097,1.4596,1.4528,1.2025,0.9025,0.7201,0.468,0.2266,0.0888,-0.0473,-0.2127,-0.452,-0.6565,-0.845,-1.0156,-1.0293,-1.1354,-1.5283,-1.6266,-1.5854,-1.3768,-1.3329,-1.3445,-1.4074,-1.3877,-1.3774,-1.4109,-1.4344,-1.461,-1.4979,-1.2324,-1.1983,-1.5128,-1.5318,-1.5212,-1.4982,-1.1834,-1.0089,-1.0077,-1.1228,-1.2334,-1.3355,-1.3617,-1.4792,-1.6826,-1.7743,-1.9002,0.0,0.0,0.0,0.0,0.0,0.0,1.0712,1.0945,1.1113,0.0,0.0,0.0,0.0,0.0,0.0,0.0,0.0,0.0,0.0,0.0,0.0,0.0,0.0,0.0,0.0,0.0,1.2723,1.3193,1.4124,1.4671,1.4618,1.5168,1.5209,1.4616,1.5605,1.5914,1.553,1.5837,1.6208,1.6607,1.6543,1.6586,1.6733,1.6889,1.693,1.6879,1.6831,1.6876,1.6977,1.6773,1.7018,1.7465,1.714,1.7171,1.7324,1.6999,1.6526,1.6033,1.5785,1.5657,1.5724,1.6412,1.6493,1.6454,1.7237,1.684,1.5972,1.536,1.4227,1.2821,1.1132,0.8239,0.5475,0.4501,0.3084,0.0962,-0.2614,-0.4276,-0.5653,-0.7558,-0.846,-0.9557,-1.1502,-1.2576,-1.3304,-1.3743,-1.3853,-1.3761,-1.3379,-1.3731,-1.4123,-1.4393,-1.4368,-1.4546,-1.5031,-1.412,-1.3877,-1.4771,-1.4841,-1.4813,-1.4754,-1.1709,-0.9998,-0.9948,-1.1684,-1.2539,-1.2454,-1.4346,-1.5795,-1.6816,-1.7606,-1.9054,0.0,0.0,0.0,1.4435,0.0,0.0,0.0,1.1756,1.1406,1.1026,0.0,0.0,0.0,0.0,0.0,0.0,0.0,0.0,0.0,0.0,0.0,0.0,0.0,0.0,0.0,0.0,1.2629,1.3286,1.3504,1.3842,1.442,1.4963,1.5216,1.5201,1.5927,1.6413,1.6675,1.6665,1.7051,1.7844,1.74,1.7322,1.7533,1.7237,1.7117,1.7149,1.7167,1.7216,1.7248,1.7142,1.7465,1.8001,1.7364,1.7555,1.8158,1.7699,1.7193,1.6706,1.6653,1.6597,1.6541,1.6856,1.743,1.811,1.8462,1.8432,1.8131,1.7268,1.6331,1.5386,1.4722,1.257,1.0458,1.0216,0.9059,0.7148,0.4299,0.2702,0.1869,0.209,-0.3304,-0.822,-0.928,-1.001,-1.0654,-1.123,-1.1425,-1.1781,-1.2542,-1.3295,-1.3791,-1.3934,-1.4302,-1.4637,-1.4874,-1.4776,-1.4641,-1.4513,-1.4433,-1.4301,-1.4056,-1.2093,-1.0927,-1.0747,-1.216,-1.2975,-1.3106,-1.4338,-1.5506,-1.6561,-1.6951,-1.8431,0.0,0.0,0.0,0.0,0.0,1.4493,0.0,0.0,0.0,1.2657,0.0,0.0,0.0,0.0,0.0,0.0,0.0,0.0,0.0,0.0,0.0,0.0,0.0,0.0,0.0,0.0,1.2034,1.2749,1.2404,1.2804,1.4223,1.4591,1.514,1.5965,1.6087,1.6627,1.7679,1.7161,1.7476,1.8667,1.7994,1.7802,1.8065,1.7428,1.7216,1.7338,1.7472,1.7512,1.7451,1.7512,1.7869,1.8327,1.7551,1.7925,1.8865,1.8495,1.8038,1.7627,1.7954,1.7972,1.7801,1.7692,1.859,1.9649,1.9315,1.9522,1.9737,1.9142,1.8149,1.7395,1.7626,1.6564,1.5401,1.5276,1.4806,1.3684,1.0989,1.0188,1.025,1.1287,0.331,-0.4532,-0.7414,-0.8306,-0.8592,-0.8616,-0.8437,-0.8935,-1.0646,-1.3081,-1.4165,-1.2938,-1.3569,-1.4114,-1.418,-1.4402,-1.4399,-1.4056,-1.3867,-1.3665,-1.3413,-1.2494,-1.1854,-1.1569,-1.2469,-1.3201,-1.3743,-1.4141,-1.4979,-1.6218,-1.628,-1.7697,0.0,0.0,0.0,0.0,1.8065,0.0,0.0,0.0,1.3565,1.1804,0.0,0.0,0.0,0.0,0.0,0.0,0.0,0.0,0.0,0.0,0.0,0.0,0.0,0.0,0.0,0.0,0.0,1.0612,1.0646,1.1286,1.2751,1.4191,1.5275,1.5996,1.6844,1.7327,1.7363,1.7224,1.7273,1.7494,1.7289,1.7231,1.7347,1.7345,1.7361,1.7401,1.7542,1.7635,1.7681,1.7856,1.8034,1.8176,1.838,1.856,1.8682,1.9089,1.8651,1.7928,1.8446,1.8469,1.847,1.9371,1.9827,2.0002,1.9736,1.9295,1.9072,1.9673,1.9591,1.9229,1.9097,1.8945,1.8299,1.6225,1.765,1.7863,1.2083,1.4236,1.6164,1.2248,1.0348,0.5894,-0.5075,-0.7623,-0.8203,-0.8335,-0.7091,-0.6152,-0.6104,-1.3699,-1.6913,-1.1264,-1.1162,-1.1737,-1.2259,-1.2456,-1.2683,-1.304,-1.2767,-1.2847,-1.3395,-1.2442,-1.176,-1.1434,-1.2229,-1.2697,-1.2856,-1.4179,-1.5207,-1.5957,-1.6011,-1.719,0.0,0.0,0.0,0.0,0.0,0.0,1.5032,0.0,1.3905,0.0,0.0,0.0,0.0,0.0,0.0,0.0,0.0,0.0,0.0,0.0,0.0,0.0,0.0,0.0,0.0,0.0,0.0,0.0,0.0,1.1099,1.2578,1.4152,1.5364,1.6157,1.7044,1.7623,1.788,1.793,1.8194,1.8632,1.8102,1.7938,1.807,1.7726,1.7823,1.8255,1.7952,1.8093,1.8501,1.8237,1.8134,1.8197,1.8525,1.8683,1.8734,1.8926,1.8649,1.8225,1.8914,1.9197,1.9361,2.0261,2.0598,2.052,2.0047,1.9766,1.9747,2.0495,2.0352,1.9991,2.0235,2.0246,1.9867,1.8459,1.8973,1.9481,1.8422,1.7038,1.5927,1.5918,1.4143,1.0769,0.4839,-0.4506,-1.1445,-1.2252,-0.5272,0.0184,0.0518,-0.8703,-1.3661,-0.9404,-0.9894,-1.0572,-1.0713,-1.1096,-1.171,-1.2559,-1.2179,-1.1913,-1.189,-1.2306,-1.2122,-1.1204,-1.2681,-1.3245,-1.2812,-1.38,-1.4505,-1.494,-1.5716,-1.6848,2.1396,0.0,0.0,0.0,0.0,0.0,0.0,0.0,0.0,0.0,0.0,0.0,0.0,0.0,0.0,1.316,0.0,0.0,0.0,0.0,0.0,0.0,0.0,0.0,0.0,0.0,0.0,0.0,0.9655,0.0,1.2327,1.3897,1.5316,1.663,1.7259,1.7893,1.8509,1.8394,1.861,1.9194,1.8585,1.8367,1.8502,1.8008,1.8099,1.8629,1.8205,1.8344,1.8834,1.8443,1.8301,1.8328,1.8561,1.8697,1.8756,1.8927,1.8816,1.8725,1.9513,2.0044,2.0475,2.1196,2.1332,2.1087,2.0501,2.0152,2.0123,2.0892,2.0694,2.0383,2.1061,2.104,2.0686,2.009,1.9767,2.0135,2.2134,1.9712,1.7637,1.9212,1.7079,1.4286,1.1921,0.201,-0.5961,-0.7121,-0.2023,0.2044,0.2267,-0.4152,-0.845,-0.7756,-0.8691,-0.9426,-0.9583,-1.0063,-1.0866,-1.2029,-1.1764,-1.1404,-1.1035,-1.2133,-1.2283,-1.1292,-1.2991,-1.3482,-1.2687,-1.3386,-1.3756,-1.3805,-1.5089,-1.6193,0.0,0.0,0.0,1.9342,0.0,0.0,0.0,0.0,1.6805,0.0,0.0,0.0,0.0,1.5634,1.4315,1.3429,1.2656,0.0,0.0,0.0,0.0,0.0,0.0,0.0,0.0,0.0,0.0,0.8261,0.7758,0.0,1.159,1.3192,1.5126,1.7476,1.7721,1.8212,1.9075,1.8314,1.7995,1.8138,1.8056,1.8017,1.8017,1.8,1.8,1.8017,1.8082,1.8146,1.8243,1.85,1.8596,1.8598,1.875,1.8714,1.869,1.9412,1.9552,1.9486,2.0279,2.1086,2.184,2.2384,2.2159,2.1614,2.125,2.0297,1.9542,2.0619,2.0626,2.0525,2.1516,2.1381,2.0859,2.0394,2.0173,2.0108,2.0202,2.271,2.4066,2.1116,1.966,1.7342,1.2372,1.3045,1.3985,1.3106,0.3274,-0.4033,-0.4001,-0.189,-0.2029,-0.6382,-0.7213,-0.7909,-0.8932,-0.9341,-1.0045,-1.1259,-1.1379,-1.1468,-1.1556,-1.1922,-1.209,-1.1984,-1.2867,-1.2931,-1.213,-1.3124,-1.3275,-1.269,-1.4021,-1.4932,0.0,0.0,2.4908,2.134,0.0,0.0,0.0,0.0,0.0,0.0,0.0,0.0,0.0,1.5797,1.4641,1.4298,1.2745,1.1131,0.0,0.0,0.0,0.0,0.0,0.0,0.0,0.0,0.0,0.8994,0.8966,0.9942,0.0,1.4038,1.5537,1.6898,1.7557,1.8019,1.8381,1.8146,1.8074,1.8103,1.8082,1.8082,1.8121,1.8121,1.8456,1.8966,1.8492,1.8627,1.9167,1.8757,1.8639,1.8732,1.8843,1.9237,1.9813,1.9974,1.997,2.0073,2.1556,2.2183,2.2364,2.2531,2.2024,2.1274,2.072,2.0634,2.0838,2.1299,2.1299,2.145,2.2799,2.1889,2.0631,2.0411,2.0295,2.0222,2.0178,2.1133,2.172,2.0786,1.9389,1.7702,1.5574,1.4787,1.2002,0.4748,0.2368,0.0,-0.3792,-0.2055,-0.1,-0.2421,-0.5111,-0.6748,-0.6626,-0.8119,-0.9341,-1.007,-1.0256,-1.0365,-1.0403,-1.0885,-1.1176,-1.115,-1.1772,-1.2068,-1.1965,-1.2072,-1.2151,-1.2159,-1.2784,-1.3625,2.549,2.5865,0.0,2.2833,2.2213,0.0,1.8738,0.0,0.0,0.0,0.0,0.0,0.0,0.0,1.5662,1.5591,1.3657,1.1768,0.0,1.0527,0.0,0.0,0.0,0.0,0.0,0.0,0.8118,0.9544,0.9444,1.0272,0.0,0.0,1.5974,1.7033,1.7966,1.8447,1.8508,1.8276,1.8205,1.827,1.8232,1.829,1.8351,1.8351,1.865,1.9205,1.8715,1.8865,1.9387,1.8891,1.877,1.8896,1.929,1.9811,2.0351,2.0299,2.0263,2.0534,2.2301,2.2648,2.2446,2.3031,2.2811,2.2264,2.1771,2.1753,2.2008,2.2517,2.273,2.2761,2.2595,2.1988,2.1225,2.0584,2.0624,2.0789,2.0744,2.0538,2.0414,2.0544,1.9503,1.8217,1.6991,1.5371,1.1113,0.1878,0.2917,0.3508,0.0142,-0.0451,-0.0775,-0.128,-0.3483,-0.5035,-0.5304,-0.7034,-0.8266,-0.8691,-0.9112,-0.9321,-0.9267,-0.9829,-1.0178,-1.0309,-1.0891,-1.1208,-1.1272,-1.1149,-1.1105,-1.1172,-1.1506,-1.2314]}]]